<?xml version="1.0" encoding="utf-8"?>
<gpx xmlns:xsi="http://www.w3.org/2001/XMLSchema-instance" xmlns:xsd="http://www.w3.org/2001/XMLSchema" version="1.1" creator="Shapelink.com" xmlns="http://www.topografix.com/GPX/1/1" xmlns:gpxtpx="http://www.garmin.com/xmlschemas/TrackPointExtension/v1">
  <metadata>
    <name>Sykling 33.52 km, 2012-11-15</name>
    <desc></desc>
    <author><name>Stefan Östlund</name></author> 
    <time>2012-11-15T18:32:50Z</time>
  </metadata>
  <trk>
    <name>Sykling 33.52 km, 2012-11-15</name>
    <trkseg>
      <trkpt lat="59.9917347" lon="15.8255786">
        <ele>0</ele>
        <time>2012-11-15T18:32:50Z</time>
      </trkpt>
      <trkpt lat="59.9916216" lon="15.8255324">
        <ele>0</ele>
        <time>2012-11-15T18:32:52Z</time>
      </trkpt>
      <trkpt lat="59.9913802" lon="15.8254352">
        <ele>0</ele>
        <time>2012-11-15T18:32:56Z</time>
      </trkpt>
      <trkpt lat="59.9910678" lon="15.8253263">
        <ele>0</ele>
        <time>2012-11-15T18:33:02Z</time>
      </trkpt>
      <trkpt lat="59.9909517" lon="15.825491">
        <ele>0</ele>
        <time>2012-11-15T18:33:05Z</time>
      </trkpt>
      <trkpt lat="59.9908907" lon="15.8258933">
        <ele>0</ele>
        <time>2012-11-15T18:33:09Z</time>
      </trkpt>
      <trkpt lat="59.9908811" lon="15.8259938">
        <ele>0</ele>
        <time>2012-11-15T18:33:10Z</time>
      </trkpt>
      <trkpt lat="59.9907915" lon="15.8266919">
        <ele>0</ele>
        <time>2012-11-15T18:33:17Z</time>
      </trkpt>
      <trkpt lat="59.990629" lon="15.8274079">
        <ele>0</ele>
        <time>2012-11-15T18:33:25Z</time>
      </trkpt>
      <trkpt lat="59.9905038" lon="15.8278153">
        <ele>0</ele>
        <time>2012-11-15T18:33:31Z</time>
      </trkpt>
      <trkpt lat="59.990337" lon="15.8283911">
        <ele>0</ele>
        <time>2012-11-15T18:33:38Z</time>
      </trkpt>
      <trkpt lat="59.990089" lon="15.8291038">
        <ele>0</ele>
        <time>2012-11-15T18:33:47Z</time>
      </trkpt>
      <trkpt lat="59.9900355" lon="15.8292337">
        <ele>1</ele>
        <time>2012-11-15T18:33:49Z</time>
      </trkpt>
      <trkpt lat="59.9899642" lon="15.8294075">
        <ele>2.2</ele>
        <time>2012-11-15T18:33:52Z</time>
      </trkpt>
      <trkpt lat="59.989943" lon="15.8294625">
        <ele>2.2</ele>
        <time>2012-11-15T18:33:53Z</time>
      </trkpt>
      <trkpt lat="59.989893" lon="15.8295798">
        <ele>3.2</ele>
        <time>2012-11-15T18:33:55Z</time>
      </trkpt>
      <trkpt lat="59.9897943" lon="15.8297808">
        <ele>4.2</ele>
        <time>2012-11-15T18:33:59Z</time>
      </trkpt>
      <trkpt lat="59.9897263" lon="15.8299289">
        <ele>5.4</ele>
        <time>2012-11-15T18:34:02Z</time>
      </trkpt>
      <trkpt lat="59.9896482" lon="15.8301309">
        <ele>6.4</ele>
        <time>2012-11-15T18:34:06Z</time>
      </trkpt>
      <trkpt lat="59.9895697" lon="15.8303194">
        <ele>7.4</ele>
        <time>2012-11-15T18:34:10Z</time>
      </trkpt>
      <trkpt lat="59.9895079" lon="15.8304619">
        <ele>7.4</ele>
        <time>2012-11-15T18:34:13Z</time>
      </trkpt>
      <trkpt lat="59.9893268" lon="15.8308819">
        <ele>7.4</ele>
        <time>2012-11-15T18:34:21Z</time>
      </trkpt>
      <trkpt lat="59.9891953" lon="15.8311806">
        <ele>7.4</ele>
        <time>2012-11-15T18:34:26Z</time>
      </trkpt>
      <trkpt lat="59.9889398" lon="15.8317753">
        <ele>7.4</ele>
        <time>2012-11-15T18:34:34Z</time>
      </trkpt>
      <trkpt lat="59.9886104" lon="15.8325605">
        <ele>7.4</ele>
        <time>2012-11-15T18:34:44Z</time>
      </trkpt>
      <trkpt lat="59.9883066" lon="15.8334236">
        <ele>7.4</ele>
        <time>2012-11-15T18:34:54Z</time>
      </trkpt>
      <trkpt lat="59.9880515" lon="15.8342916">
        <ele>8.4</ele>
        <time>2012-11-15T18:35:04Z</time>
      </trkpt>
      <trkpt lat="59.9879836" lon="15.8348945">
        <ele>8.4</ele>
        <time>2012-11-15T18:35:10Z</time>
      </trkpt>
      <trkpt lat="59.9879716" lon="15.8351791">
        <ele>9.6</ele>
        <time>2012-11-15T18:35:13Z</time>
      </trkpt>
      <trkpt lat="59.9879636" lon="15.8356225">
        <ele>10.6</ele>
        <time>2012-11-15T18:35:18Z</time>
      </trkpt>
      <trkpt lat="59.9879639" lon="15.8357107">
        <ele>10.6</ele>
        <time>2012-11-15T18:35:19Z</time>
      </trkpt>
      <trkpt lat="59.9879189" lon="15.8363702">
        <ele>10.6</ele>
        <time>2012-11-15T18:35:26Z</time>
      </trkpt>
      <trkpt lat="59.9877803" lon="15.8369177">
        <ele>10.6</ele>
        <time>2012-11-15T18:35:32Z</time>
      </trkpt>
      <trkpt lat="59.9875716" lon="15.8377101">
        <ele>10.6</ele>
        <time>2012-11-15T18:35:40Z</time>
      </trkpt>
      <trkpt lat="59.9874658" lon="15.8383916">
        <ele>10.6</ele>
        <time>2012-11-15T18:35:47Z</time>
      </trkpt>
      <trkpt lat="59.9874852" lon="15.8387881">
        <ele>10.6</ele>
        <time>2012-11-15T18:35:51Z</time>
      </trkpt>
      <trkpt lat="59.987604" lon="15.839131">
        <ele>10.6</ele>
        <time>2012-11-15T18:35:55Z</time>
      </trkpt>
      <trkpt lat="59.9877719" lon="15.8394088">
        <ele>10.6</ele>
        <time>2012-11-15T18:36:00Z</time>
      </trkpt>
      <trkpt lat="59.9878366" lon="15.8394798">
        <ele>10.6</ele>
        <time>2012-11-15T18:36:04Z</time>
      </trkpt>
      <trkpt lat="59.9878509" lon="15.8395005">
        <ele>10.6</ele>
        <time>2012-11-15T18:36:10Z</time>
      </trkpt>
      <trkpt lat="59.9878677" lon="15.8395559">
        <ele>10.6</ele>
        <time>2012-11-15T18:36:16Z</time>
      </trkpt>
      <trkpt lat="59.9878702" lon="15.8395642">
        <ele>11.6</ele>
        <time>2012-11-15T18:36:17Z</time>
      </trkpt>
      <trkpt lat="59.9878789" lon="15.8395786">
        <ele>11.6</ele>
        <time>2012-11-15T18:36:22Z</time>
      </trkpt>
      <trkpt lat="59.9878821" lon="15.8395899">
        <ele>11.6</ele>
        <time>2012-11-15T18:36:27Z</time>
      </trkpt>
      <trkpt lat="59.9878908" lon="15.8395843">
        <ele>11.6</ele>
        <time>2012-11-15T18:36:36Z</time>
      </trkpt>
      <trkpt lat="59.9879213" lon="15.8395987">
        <ele>11.6</ele>
        <time>2012-11-15T18:36:42Z</time>
      </trkpt>
      <trkpt lat="59.9880304" lon="15.8397373">
        <ele>11.6</ele>
        <time>2012-11-15T18:36:48Z</time>
      </trkpt>
      <trkpt lat="59.9881834" lon="15.8399226">
        <ele>11.6</ele>
        <time>2012-11-15T18:36:53Z</time>
      </trkpt>
      <trkpt lat="59.988214" lon="15.8399879">
        <ele>11.6</ele>
        <time>2012-11-15T18:36:54Z</time>
      </trkpt>
      <trkpt lat="59.9882392" lon="15.840049">
        <ele>12.8</ele>
        <time>2012-11-15T18:36:55Z</time>
      </trkpt>
      <trkpt lat="59.9883203" lon="15.8402463">
        <ele>12.8</ele>
        <time>2012-11-15T18:36:58Z</time>
      </trkpt>
      <trkpt lat="59.9883885" lon="15.8404064">
        <ele>12.8</ele>
        <time>2012-11-15T18:37:00Z</time>
        <extensions><gpxtpx:TrackPointExtension><gpxtpx:hr>138</gpxtpx:hr></gpxtpx:TrackPointExtension></extensions>
      </trkpt>
      <trkpt lat="59.9884215" lon="15.8404929">
        <ele>12.8</ele>
        <time>2012-11-15T18:37:01Z</time>
        <extensions><gpxtpx:TrackPointExtension><gpxtpx:hr>138</gpxtpx:hr></gpxtpx:TrackPointExtension></extensions>
      </trkpt>
      <trkpt lat="59.9884785" lon="15.8406611">
        <ele>12.8</ele>
        <time>2012-11-15T18:37:03Z</time>
        <extensions><gpxtpx:TrackPointExtension><gpxtpx:hr>138</gpxtpx:hr></gpxtpx:TrackPointExtension></extensions>
      </trkpt>
      <trkpt lat="59.9885042" lon="15.8407446">
        <ele>13.8</ele>
        <time>2012-11-15T18:37:04Z</time>
        <extensions><gpxtpx:TrackPointExtension><gpxtpx:hr>138</gpxtpx:hr></gpxtpx:TrackPointExtension></extensions>
      </trkpt>
      <trkpt lat="59.9885683" lon="15.8409722">
        <ele>15</ele>
        <time>2012-11-15T18:37:07Z</time>
        <extensions><gpxtpx:TrackPointExtension><gpxtpx:hr>138</gpxtpx:hr></gpxtpx:TrackPointExtension></extensions>
      </trkpt>
      <trkpt lat="59.988627" lon="15.84117">
        <ele>16</ele>
        <time>2012-11-15T18:37:10Z</time>
        <extensions><gpxtpx:TrackPointExtension><gpxtpx:hr>138</gpxtpx:hr></gpxtpx:TrackPointExtension></extensions>
      </trkpt>
      <trkpt lat="59.9886606" lon="15.8412861">
        <ele>17.2</ele>
        <time>2012-11-15T18:37:12Z</time>
        <extensions><gpxtpx:TrackPointExtension><gpxtpx:hr>138</gpxtpx:hr></gpxtpx:TrackPointExtension></extensions>
      </trkpt>
      <trkpt lat="59.9887145" lon="15.8414438">
        <ele>18.2</ele>
        <time>2012-11-15T18:37:15Z</time>
        <extensions><gpxtpx:TrackPointExtension><gpxtpx:hr>138</gpxtpx:hr></gpxtpx:TrackPointExtension></extensions>
      </trkpt>
      <trkpt lat="59.9887283" lon="15.8414909">
        <ele>18.2</ele>
        <time>2012-11-15T18:37:16Z</time>
        <extensions><gpxtpx:TrackPointExtension><gpxtpx:hr>138</gpxtpx:hr></gpxtpx:TrackPointExtension></extensions>
      </trkpt>
      <trkpt lat="59.9887419" lon="15.8416656">
        <ele>19.2</ele>
        <time>2012-11-15T18:37:19Z</time>
        <extensions><gpxtpx:TrackPointExtension><gpxtpx:hr>59</gpxtpx:hr></gpxtpx:TrackPointExtension></extensions>
      </trkpt>
      <trkpt lat="59.9887451" lon="15.8417349">
        <ele>19.2</ele>
        <time>2012-11-15T18:37:20Z</time>
        <extensions><gpxtpx:TrackPointExtension><gpxtpx:hr>59</gpxtpx:hr></gpxtpx:TrackPointExtension></extensions>
      </trkpt>
      <trkpt lat="59.9887627" lon="15.841803">
        <ele>19.2</ele>
        <time>2012-11-15T18:37:21Z</time>
        <extensions><gpxtpx:TrackPointExtension><gpxtpx:hr>59</gpxtpx:hr></gpxtpx:TrackPointExtension></extensions>
      </trkpt>
      <trkpt lat="59.988784" lon="15.8418696">
        <ele>19.2</ele>
        <time>2012-11-15T18:37:22Z</time>
        <extensions><gpxtpx:TrackPointExtension><gpxtpx:hr>55</gpxtpx:hr></gpxtpx:TrackPointExtension></extensions>
      </trkpt>
      <trkpt lat="59.9887826" lon="15.8421165">
        <ele>19.2</ele>
        <time>2012-11-15T18:37:25Z</time>
        <extensions><gpxtpx:TrackPointExtension><gpxtpx:hr>55</gpxtpx:hr></gpxtpx:TrackPointExtension></extensions>
      </trkpt>
      <trkpt lat="59.9887624" lon="15.8423726">
        <ele>19.2</ele>
        <time>2012-11-15T18:37:28Z</time>
      </trkpt>
      <trkpt lat="59.9887587" lon="15.8424635">
        <ele>19.2</ele>
        <time>2012-11-15T18:37:29Z</time>
      </trkpt>
      <trkpt lat="59.9887458" lon="15.8425581">
        <ele>19.2</ele>
        <time>2012-11-15T18:37:30Z</time>
      </trkpt>
      <trkpt lat="59.9886869" lon="15.8428206">
        <ele>19.2</ele>
        <time>2012-11-15T18:37:33Z</time>
      </trkpt>
      <trkpt lat="59.9886436" lon="15.8430133">
        <ele>19.2</ele>
        <time>2012-11-15T18:37:35Z</time>
      </trkpt>
      <trkpt lat="59.9886306" lon="15.8431299">
        <ele>19.2</ele>
        <time>2012-11-15T18:37:36Z</time>
        <extensions><gpxtpx:TrackPointExtension><gpxtpx:hr>55</gpxtpx:hr></gpxtpx:TrackPointExtension></extensions>
      </trkpt>
      <trkpt lat="59.9885909" lon="15.8434688">
        <ele>19.2</ele>
        <time>2012-11-15T18:37:39Z</time>
        <extensions><gpxtpx:TrackPointExtension><gpxtpx:hr>55</gpxtpx:hr></gpxtpx:TrackPointExtension></extensions>
      </trkpt>
      <trkpt lat="59.9885705" lon="15.8438023">
        <ele>19.2</ele>
        <time>2012-11-15T18:37:42Z</time>
        <extensions><gpxtpx:TrackPointExtension><gpxtpx:hr>55</gpxtpx:hr></gpxtpx:TrackPointExtension></extensions>
      </trkpt>
      <trkpt lat="59.9885743" lon="15.844012">
        <ele>19.2</ele>
        <time>2012-11-15T18:37:44Z</time>
        <extensions><gpxtpx:TrackPointExtension><gpxtpx:hr>55</gpxtpx:hr></gpxtpx:TrackPointExtension></extensions>
      </trkpt>
      <trkpt lat="59.988583" lon="15.8441951">
        <ele>19.2</ele>
        <time>2012-11-15T18:37:46Z</time>
        <extensions><gpxtpx:TrackPointExtension><gpxtpx:hr>55</gpxtpx:hr></gpxtpx:TrackPointExtension></extensions>
      </trkpt>
      <trkpt lat="59.9885889" lon="15.8443705">
        <ele>19.2</ele>
        <time>2012-11-15T18:37:48Z</time>
      </trkpt>
      <trkpt lat="59.988621" lon="15.844687">
        <ele>19.2</ele>
        <time>2012-11-15T18:37:53Z</time>
        <extensions><gpxtpx:TrackPointExtension><gpxtpx:hr>55</gpxtpx:hr></gpxtpx:TrackPointExtension></extensions>
      </trkpt>
      <trkpt lat="59.9886588" lon="15.8450083">
        <ele>20.4</ele>
        <time>2012-11-15T18:37:58Z</time>
        <extensions><gpxtpx:TrackPointExtension><gpxtpx:hr>55</gpxtpx:hr></gpxtpx:TrackPointExtension></extensions>
      </trkpt>
      <trkpt lat="59.9886685" lon="15.8450796">
        <ele>20.4</ele>
        <time>2012-11-15T18:37:59Z</time>
        <extensions><gpxtpx:TrackPointExtension><gpxtpx:hr>55</gpxtpx:hr></gpxtpx:TrackPointExtension></extensions>
      </trkpt>
      <trkpt lat="59.9886891" lon="15.8452228">
        <ele>21.4</ele>
        <time>2012-11-15T18:38:01Z</time>
        <extensions><gpxtpx:TrackPointExtension><gpxtpx:hr>55</gpxtpx:hr></gpxtpx:TrackPointExtension></extensions>
      </trkpt>
      <trkpt lat="59.9887364" lon="15.8455034">
        <ele>21.4</ele>
        <time>2012-11-15T18:38:05Z</time>
        <extensions><gpxtpx:TrackPointExtension><gpxtpx:hr>55</gpxtpx:hr></gpxtpx:TrackPointExtension></extensions>
      </trkpt>
      <trkpt lat="59.9888073" lon="15.8457604">
        <ele>22.4</ele>
        <time>2012-11-15T18:38:09Z</time>
        <extensions><gpxtpx:TrackPointExtension><gpxtpx:hr>55</gpxtpx:hr></gpxtpx:TrackPointExtension></extensions>
      </trkpt>
      <trkpt lat="59.9888455" lon="15.8458744">
        <ele>22.4</ele>
        <time>2012-11-15T18:38:11Z</time>
        <extensions><gpxtpx:TrackPointExtension><gpxtpx:hr>55</gpxtpx:hr></gpxtpx:TrackPointExtension></extensions>
      </trkpt>
      <trkpt lat="59.9888813" lon="15.8459743">
        <ele>23.4</ele>
        <time>2012-11-15T18:38:13Z</time>
        <extensions><gpxtpx:TrackPointExtension><gpxtpx:hr>55</gpxtpx:hr></gpxtpx:TrackPointExtension></extensions>
      </trkpt>
      <trkpt lat="59.9890107" lon="15.8462363">
        <ele>23.4</ele>
        <time>2012-11-15T18:38:19Z</time>
        <extensions><gpxtpx:TrackPointExtension><gpxtpx:hr>55</gpxtpx:hr></gpxtpx:TrackPointExtension></extensions>
      </trkpt>
      <trkpt lat="59.989035" lon="15.8462703">
        <ele>24.6</ele>
        <time>2012-11-15T18:38:20Z</time>
        <extensions><gpxtpx:TrackPointExtension><gpxtpx:hr>55</gpxtpx:hr></gpxtpx:TrackPointExtension></extensions>
      </trkpt>
      <trkpt lat="59.9891477" lon="15.8464243">
        <ele>24.6</ele>
        <time>2012-11-15T18:38:24Z</time>
        <extensions><gpxtpx:TrackPointExtension><gpxtpx:hr>55</gpxtpx:hr></gpxtpx:TrackPointExtension></extensions>
      </trkpt>
      <trkpt lat="59.9893128" lon="15.8466425">
        <ele>24.6</ele>
        <time>2012-11-15T18:38:29Z</time>
        <extensions><gpxtpx:TrackPointExtension><gpxtpx:hr>55</gpxtpx:hr></gpxtpx:TrackPointExtension></extensions>
      </trkpt>
      <trkpt lat="59.9893456" lon="15.8466986">
        <ele>24.6</ele>
        <time>2012-11-15T18:38:30Z</time>
        <extensions><gpxtpx:TrackPointExtension><gpxtpx:hr>55</gpxtpx:hr></gpxtpx:TrackPointExtension></extensions>
      </trkpt>
      <trkpt lat="59.9894776" lon="15.8469165">
        <ele>24.6</ele>
        <time>2012-11-15T18:38:34Z</time>
      </trkpt>
      <trkpt lat="59.9895141" lon="15.8469655">
        <ele>24.6</ele>
        <time>2012-11-15T18:38:35Z</time>
      </trkpt>
      <trkpt lat="59.9895515" lon="15.847012">
        <ele>24.6</ele>
        <time>2012-11-15T18:38:36Z</time>
        <extensions><gpxtpx:TrackPointExtension><gpxtpx:hr>49</gpxtpx:hr></gpxtpx:TrackPointExtension></extensions>
      </trkpt>
      <trkpt lat="59.9895874" lon="15.8470608">
        <ele>24.6</ele>
        <time>2012-11-15T18:38:37Z</time>
        <extensions><gpxtpx:TrackPointExtension><gpxtpx:hr>49</gpxtpx:hr></gpxtpx:TrackPointExtension></extensions>
      </trkpt>
      <trkpt lat="59.9897541" lon="15.8472965">
        <ele>24.6</ele>
        <time>2012-11-15T18:38:42Z</time>
        <extensions><gpxtpx:TrackPointExtension><gpxtpx:hr>49</gpxtpx:hr></gpxtpx:TrackPointExtension></extensions>
      </trkpt>
      <trkpt lat="59.9899018" lon="15.8474673">
        <ele>25.6</ele>
        <time>2012-11-15T18:38:47Z</time>
        <extensions><gpxtpx:TrackPointExtension><gpxtpx:hr>49</gpxtpx:hr></gpxtpx:TrackPointExtension></extensions>
      </trkpt>
      <trkpt lat="59.9899288" lon="15.8475029">
        <ele>25.6</ele>
        <time>2012-11-15T18:38:48Z</time>
        <extensions><gpxtpx:TrackPointExtension><gpxtpx:hr>49</gpxtpx:hr></gpxtpx:TrackPointExtension></extensions>
      </trkpt>
      <trkpt lat="59.9900325" lon="15.8476065">
        <ele>26.8</ele>
        <time>2012-11-15T18:38:52Z</time>
      </trkpt>
      <trkpt lat="59.9900795" lon="15.8476524">
        <ele>26.8</ele>
        <time>2012-11-15T18:38:54Z</time>
        <extensions><gpxtpx:TrackPointExtension><gpxtpx:hr>49</gpxtpx:hr></gpxtpx:TrackPointExtension></extensions>
      </trkpt>
      <trkpt lat="59.9901447" lon="15.8477185">
        <ele>26.8</ele>
        <time>2012-11-15T18:38:56Z</time>
        <extensions><gpxtpx:TrackPointExtension><gpxtpx:hr>46</gpxtpx:hr></gpxtpx:TrackPointExtension></extensions>
      </trkpt>
      <trkpt lat="59.9901739" lon="15.8477469">
        <ele>27.8</ele>
        <time>2012-11-15T18:38:57Z</time>
        <extensions><gpxtpx:TrackPointExtension><gpxtpx:hr>46</gpxtpx:hr></gpxtpx:TrackPointExtension></extensions>
      </trkpt>
      <trkpt lat="59.9901998" lon="15.8477751">
        <ele>27.8</ele>
        <time>2012-11-15T18:38:58Z</time>
        <extensions><gpxtpx:TrackPointExtension><gpxtpx:hr>46</gpxtpx:hr></gpxtpx:TrackPointExtension></extensions>
      </trkpt>
      <trkpt lat="59.9903587" lon="15.8479786">
        <ele>27.8</ele>
        <time>2012-11-15T18:39:03Z</time>
        <extensions><gpxtpx:TrackPointExtension><gpxtpx:hr>46</gpxtpx:hr></gpxtpx:TrackPointExtension></extensions>
      </trkpt>
      <trkpt lat="59.9904701" lon="15.8482011">
        <ele>28.8</ele>
        <time>2012-11-15T18:39:07Z</time>
      </trkpt>
      <trkpt lat="59.9905314" lon="15.8483842">
        <ele>28.8</ele>
        <time>2012-11-15T18:39:10Z</time>
      </trkpt>
      <trkpt lat="59.9905689" lon="15.8485017">
        <ele>29.8</ele>
        <time>2012-11-15T18:39:12Z</time>
        <extensions><gpxtpx:TrackPointExtension><gpxtpx:hr>46</gpxtpx:hr></gpxtpx:TrackPointExtension></extensions>
      </trkpt>
      <trkpt lat="59.9906614" lon="15.8488036">
        <ele>30.8</ele>
        <time>2012-11-15T18:39:17Z</time>
        <extensions><gpxtpx:TrackPointExtension><gpxtpx:hr>46</gpxtpx:hr></gpxtpx:TrackPointExtension></extensions>
      </trkpt>
      <trkpt lat="59.9906791" lon="15.8488592">
        <ele>30.8</ele>
        <time>2012-11-15T18:39:18Z</time>
        <extensions><gpxtpx:TrackPointExtension><gpxtpx:hr>43</gpxtpx:hr></gpxtpx:TrackPointExtension></extensions>
      </trkpt>
      <trkpt lat="59.9907009" lon="15.8489199">
        <ele>30.8</ele>
        <time>2012-11-15T18:39:19Z</time>
        <extensions><gpxtpx:TrackPointExtension><gpxtpx:hr>43</gpxtpx:hr></gpxtpx:TrackPointExtension></extensions>
      </trkpt>
      <trkpt lat="59.9907721" lon="15.8490726">
        <ele>31.8</ele>
        <time>2012-11-15T18:39:22Z</time>
        <extensions><gpxtpx:TrackPointExtension><gpxtpx:hr>43</gpxtpx:hr></gpxtpx:TrackPointExtension></extensions>
      </trkpt>
      <trkpt lat="59.9908747" lon="15.8492526">
        <ele>31.8</ele>
        <time>2012-11-15T18:39:26Z</time>
      </trkpt>
      <trkpt lat="59.9909007" lon="15.8492972">
        <ele>32.8</ele>
        <time>2012-11-15T18:39:27Z</time>
      </trkpt>
      <trkpt lat="59.9911228" lon="15.8496512">
        <ele>34</ele>
        <time>2012-11-15T18:39:35Z</time>
        <extensions><gpxtpx:TrackPointExtension><gpxtpx:hr>38</gpxtpx:hr></gpxtpx:TrackPointExtension></extensions>
      </trkpt>
      <trkpt lat="59.9911518" lon="15.849695">
        <ele>34</ele>
        <time>2012-11-15T18:39:36Z</time>
        <extensions><gpxtpx:TrackPointExtension><gpxtpx:hr>38</gpxtpx:hr></gpxtpx:TrackPointExtension></extensions>
      </trkpt>
      <trkpt lat="59.9912398" lon="15.8498257">
        <ele>35</ele>
        <time>2012-11-15T18:39:39Z</time>
        <extensions><gpxtpx:TrackPointExtension><gpxtpx:hr>38</gpxtpx:hr></gpxtpx:TrackPointExtension></extensions>
      </trkpt>
      <trkpt lat="59.9913823" lon="15.8500425">
        <ele>36</ele>
        <time>2012-11-15T18:39:44Z</time>
      </trkpt>
      <trkpt lat="59.9914422" lon="15.8501316">
        <ele>36</ele>
        <time>2012-11-15T18:39:46Z</time>
        <extensions><gpxtpx:TrackPointExtension><gpxtpx:hr>38</gpxtpx:hr></gpxtpx:TrackPointExtension></extensions>
      </trkpt>
      <trkpt lat="59.9917034" lon="15.8505927">
        <ele>36</ele>
        <time>2012-11-15T18:39:54Z</time>
      </trkpt>
      <trkpt lat="59.9917972" lon="15.8508322">
        <ele>37.2</ele>
        <time>2012-11-15T18:39:58Z</time>
      </trkpt>
      <trkpt lat="59.9918426" lon="15.8509571">
        <ele>37.2</ele>
        <time>2012-11-15T18:40:00Z</time>
      </trkpt>
      <trkpt lat="59.9919065" lon="15.8511382">
        <ele>38.2</ele>
        <time>2012-11-15T18:40:03Z</time>
      </trkpt>
      <trkpt lat="59.9919922" lon="15.8513885">
        <ele>39.2</ele>
        <time>2012-11-15T18:40:07Z</time>
      </trkpt>
      <trkpt lat="59.9920522" lon="15.8515657">
        <ele>39.2</ele>
        <time>2012-11-15T18:40:10Z</time>
      </trkpt>
      <trkpt lat="59.9920957" lon="15.8516826">
        <ele>40.2</ele>
        <time>2012-11-15T18:40:12Z</time>
      </trkpt>
      <trkpt lat="59.9922491" lon="15.8520982">
        <ele>40.2</ele>
        <time>2012-11-15T18:40:19Z</time>
      </trkpt>
      <trkpt lat="59.9922937" lon="15.8522171">
        <ele>41.2</ele>
        <time>2012-11-15T18:40:21Z</time>
      </trkpt>
      <trkpt lat="59.9924432" lon="15.8527353">
        <ele>41.2</ele>
        <time>2012-11-15T18:40:29Z</time>
      </trkpt>
      <trkpt lat="59.9924675" lon="15.852883">
        <ele>42.4</ele>
        <time>2012-11-15T18:40:31Z</time>
      </trkpt>
      <trkpt lat="59.992493" lon="15.8530742">
        <ele>43.4</ele>
        <time>2012-11-15T18:40:34Z</time>
        <extensions><gpxtpx:TrackPointExtension><gpxtpx:hr>36</gpxtpx:hr></gpxtpx:TrackPointExtension></extensions>
      </trkpt>
      <trkpt lat="59.9925012" lon="15.8531785">
        <ele>43.4</ele>
        <time>2012-11-15T18:40:36Z</time>
        <extensions><gpxtpx:TrackPointExtension><gpxtpx:hr>36</gpxtpx:hr></gpxtpx:TrackPointExtension></extensions>
      </trkpt>
      <trkpt lat="59.9925039" lon="15.8532294">
        <ele>44.4</ele>
        <time>2012-11-15T18:40:37Z</time>
        <extensions><gpxtpx:TrackPointExtension><gpxtpx:hr>36</gpxtpx:hr></gpxtpx:TrackPointExtension></extensions>
      </trkpt>
      <trkpt lat="59.992497" lon="15.8534381">
        <ele>45.4</ele>
        <time>2012-11-15T18:40:41Z</time>
        <extensions><gpxtpx:TrackPointExtension><gpxtpx:hr>36</gpxtpx:hr></gpxtpx:TrackPointExtension></extensions>
      </trkpt>
      <trkpt lat="59.9924918" lon="15.8535057">
        <ele>45.4</ele>
        <time>2012-11-15T18:40:42Z</time>
        <extensions><gpxtpx:TrackPointExtension><gpxtpx:hr>36</gpxtpx:hr></gpxtpx:TrackPointExtension></extensions>
      </trkpt>
      <trkpt lat="59.9924582" lon="15.8538731">
        <ele>46.4</ele>
        <time>2012-11-15T18:40:48Z</time>
      </trkpt>
      <trkpt lat="59.9924494" lon="15.8539483">
        <ele>46.4</ele>
        <time>2012-11-15T18:40:49Z</time>
      </trkpt>
      <trkpt lat="59.9924044" lon="15.8542844">
        <ele>47.4</ele>
        <time>2012-11-15T18:40:54Z</time>
      </trkpt>
      <trkpt lat="59.9924" lon="15.8543545">
        <ele>47.4</ele>
        <time>2012-11-15T18:40:55Z</time>
      </trkpt>
      <trkpt lat="59.9924097" lon="15.8545739">
        <ele>47.4</ele>
        <time>2012-11-15T18:40:58Z</time>
      </trkpt>
      <trkpt lat="59.9924377" lon="15.8548183">
        <ele>47.4</ele>
        <time>2012-11-15T18:41:01Z</time>
      </trkpt>
      <trkpt lat="59.9924885" lon="15.8550262">
        <ele>48.6</ele>
        <time>2012-11-15T18:41:04Z</time>
      </trkpt>
      <trkpt lat="59.992539" lon="15.8552111">
        <ele>48.6</ele>
        <time>2012-11-15T18:41:07Z</time>
      </trkpt>
      <trkpt lat="59.9925784" lon="15.8553214">
        <ele>49.8</ele>
        <time>2012-11-15T18:41:09Z</time>
      </trkpt>
      <trkpt lat="59.9926857" lon="15.8556291">
        <ele>49.8</ele>
        <time>2012-11-15T18:41:14Z</time>
      </trkpt>
      <trkpt lat="59.9929041" lon="15.8562566">
        <ele>49.8</ele>
        <time>2012-11-15T18:41:23Z</time>
      </trkpt>
      <trkpt lat="59.9929514" lon="15.8564328">
        <ele>49.8</ele>
        <time>2012-11-15T18:41:25Z</time>
      </trkpt>
      <trkpt lat="59.9929955" lon="15.856679">
        <ele>49.8</ele>
        <time>2012-11-15T18:41:28Z</time>
      </trkpt>
      <trkpt lat="59.9930614" lon="15.8572429">
        <ele>49.8</ele>
        <time>2012-11-15T18:41:35Z</time>
        <extensions><gpxtpx:TrackPointExtension><gpxtpx:hr>36</gpxtpx:hr></gpxtpx:TrackPointExtension></extensions>
      </trkpt>
      <trkpt lat="59.9931207" lon="15.8577966">
        <ele>49.8</ele>
        <time>2012-11-15T18:41:41Z</time>
        <extensions><gpxtpx:TrackPointExtension><gpxtpx:hr>36</gpxtpx:hr></gpxtpx:TrackPointExtension></extensions>
      </trkpt>
      <trkpt lat="59.9931342" lon="15.8578929">
        <ele>49.8</ele>
        <time>2012-11-15T18:41:42Z</time>
        <extensions><gpxtpx:TrackPointExtension><gpxtpx:hr>36</gpxtpx:hr></gpxtpx:TrackPointExtension></extensions>
      </trkpt>
      <trkpt lat="59.9931749" lon="15.858177">
        <ele>49.8</ele>
        <time>2012-11-15T18:41:45Z</time>
        <extensions><gpxtpx:TrackPointExtension><gpxtpx:hr>33</gpxtpx:hr></gpxtpx:TrackPointExtension></extensions>
      </trkpt>
      <trkpt lat="59.9932077" lon="15.8583526">
        <ele>49.8</ele>
        <time>2012-11-15T18:41:47Z</time>
        <extensions><gpxtpx:TrackPointExtension><gpxtpx:hr>33</gpxtpx:hr></gpxtpx:TrackPointExtension></extensions>
      </trkpt>
      <trkpt lat="59.9932803" lon="15.8586809">
        <ele>49.8</ele>
        <time>2012-11-15T18:41:51Z</time>
        <extensions><gpxtpx:TrackPointExtension><gpxtpx:hr>30</gpxtpx:hr></gpxtpx:TrackPointExtension></extensions>
      </trkpt>
      <trkpt lat="59.9933347" lon="15.8588941">
        <ele>49.8</ele>
        <time>2012-11-15T18:41:54Z</time>
        <extensions><gpxtpx:TrackPointExtension><gpxtpx:hr>30</gpxtpx:hr></gpxtpx:TrackPointExtension></extensions>
      </trkpt>
      <trkpt lat="59.9934652" lon="15.8593458">
        <ele>49.8</ele>
        <time>2012-11-15T18:42:00Z</time>
      </trkpt>
      <trkpt lat="59.9936053" lon="15.8598249">
        <ele>50.8</ele>
        <time>2012-11-15T18:42:07Z</time>
      </trkpt>
      <trkpt lat="59.9936507" lon="15.8600057">
        <ele>50.8</ele>
        <time>2012-11-15T18:42:10Z</time>
      </trkpt>
      <trkpt lat="59.9936674" lon="15.8600694">
        <ele>51.8</ele>
        <time>2012-11-15T18:42:11Z</time>
      </trkpt>
      <trkpt lat="59.9937247" lon="15.8603197">
        <ele>53</ele>
        <time>2012-11-15T18:42:15Z</time>
      </trkpt>
      <trkpt lat="59.9937667" lon="15.8604984">
        <ele>54</ele>
        <time>2012-11-15T18:42:18Z</time>
      </trkpt>
      <trkpt lat="59.9937808" lon="15.8605636">
        <ele>54</ele>
        <time>2012-11-15T18:42:19Z</time>
      </trkpt>
      <trkpt lat="59.9938095" lon="15.8607353">
        <ele>55</ele>
        <time>2012-11-15T18:42:22Z</time>
      </trkpt>
      <trkpt lat="59.9938488" lon="15.8609625">
        <ele>56.2</ele>
        <time>2012-11-15T18:42:26Z</time>
      </trkpt>
      <trkpt lat="59.9938538" lon="15.8609996">
        <ele>56.2</ele>
        <time>2012-11-15T18:42:27Z</time>
      </trkpt>
      <trkpt lat="59.9938813" lon="15.8611707">
        <ele>57.4</ele>
        <time>2012-11-15T18:42:31Z</time>
        <extensions><gpxtpx:TrackPointExtension><gpxtpx:hr>30</gpxtpx:hr></gpxtpx:TrackPointExtension></extensions>
      </trkpt>
      <trkpt lat="59.9939014" lon="15.8612462">
        <ele>57.4</ele>
        <time>2012-11-15T18:42:33Z</time>
        <extensions><gpxtpx:TrackPointExtension><gpxtpx:hr>30</gpxtpx:hr></gpxtpx:TrackPointExtension></extensions>
      </trkpt>
      <trkpt lat="59.9939093" lon="15.8612876">
        <ele>58.4</ele>
        <time>2012-11-15T18:42:34Z</time>
        <extensions><gpxtpx:TrackPointExtension><gpxtpx:hr>30</gpxtpx:hr></gpxtpx:TrackPointExtension></extensions>
      </trkpt>
      <trkpt lat="59.9939412" lon="15.8614581">
        <ele>59.6</ele>
        <time>2012-11-15T18:42:38Z</time>
        <extensions><gpxtpx:TrackPointExtension><gpxtpx:hr>30</gpxtpx:hr></gpxtpx:TrackPointExtension></extensions>
      </trkpt>
      <trkpt lat="59.9939651" lon="15.8616335">
        <ele>59.6</ele>
        <time>2012-11-15T18:42:42Z</time>
        <extensions><gpxtpx:TrackPointExtension><gpxtpx:hr>30</gpxtpx:hr></gpxtpx:TrackPointExtension></extensions>
      </trkpt>
      <trkpt lat="59.9939849" lon="15.8619448">
        <ele>60.6</ele>
        <time>2012-11-15T18:42:49Z</time>
        <extensions><gpxtpx:TrackPointExtension><gpxtpx:hr>30</gpxtpx:hr></gpxtpx:TrackPointExtension></extensions>
      </trkpt>
      <trkpt lat="59.9939732" lon="15.8621706">
        <ele>60.6</ele>
        <time>2012-11-15T18:42:53Z</time>
        <extensions><gpxtpx:TrackPointExtension><gpxtpx:hr>30</gpxtpx:hr></gpxtpx:TrackPointExtension></extensions>
      </trkpt>
      <trkpt lat="59.9939577" lon="15.8624428">
        <ele>60.6</ele>
        <time>2012-11-15T18:42:58Z</time>
        <extensions><gpxtpx:TrackPointExtension><gpxtpx:hr>30</gpxtpx:hr></gpxtpx:TrackPointExtension></extensions>
      </trkpt>
      <trkpt lat="59.9939314" lon="15.8627811">
        <ele>60.6</ele>
        <time>2012-11-15T18:43:03Z</time>
        <extensions><gpxtpx:TrackPointExtension><gpxtpx:hr>30</gpxtpx:hr></gpxtpx:TrackPointExtension></extensions>
      </trkpt>
      <trkpt lat="59.9939266" lon="15.8631476">
        <ele>57.6</ele>
        <time>2012-11-15T18:43:07Z</time>
      </trkpt>
      <trkpt lat="59.9939334" lon="15.8632495">
        <ele>57.6</ele>
        <time>2012-11-15T18:43:08Z</time>
      </trkpt>
      <trkpt lat="59.9939438" lon="15.8633603">
        <ele>57.6</ele>
        <time>2012-11-15T18:43:09Z</time>
      </trkpt>
      <trkpt lat="59.9939604" lon="15.8634692">
        <ele>56.4</ele>
        <time>2012-11-15T18:43:10Z</time>
      </trkpt>
      <trkpt lat="59.9940117" lon="15.8637583">
        <ele>56.4</ele>
        <time>2012-11-15T18:43:13Z</time>
      </trkpt>
      <trkpt lat="59.9940262" lon="15.8638551">
        <ele>55.4</ele>
        <time>2012-11-15T18:43:14Z</time>
      </trkpt>
      <trkpt lat="59.9940551" lon="15.8640675">
        <ele>55.4</ele>
        <time>2012-11-15T18:43:17Z</time>
      </trkpt>
      <trkpt lat="59.9940804" lon="15.8642359">
        <ele>54.4</ele>
        <time>2012-11-15T18:43:19Z</time>
      </trkpt>
      <trkpt lat="59.9941213" lon="15.864467">
        <ele>54.4</ele>
        <time>2012-11-15T18:43:22Z</time>
      </trkpt>
      <trkpt lat="59.9941616" lon="15.864626">
        <ele>54.4</ele>
        <time>2012-11-15T18:43:24Z</time>
      </trkpt>
      <trkpt lat="59.9941687" lon="15.8647393">
        <ele>53.4</ele>
        <time>2012-11-15T18:43:25Z</time>
      </trkpt>
      <trkpt lat="59.9942081" lon="15.8650374">
        <ele>53.4</ele>
        <time>2012-11-15T18:43:28Z</time>
      </trkpt>
      <trkpt lat="59.9942422" lon="15.8652143">
        <ele>53.4</ele>
        <time>2012-11-15T18:43:30Z</time>
      </trkpt>
      <trkpt lat="59.9942945" lon="15.8655755">
        <ele>52.2</ele>
        <time>2012-11-15T18:43:34Z</time>
      </trkpt>
      <trkpt lat="59.9943438" lon="15.8657627">
        <ele>51.2</ele>
        <time>2012-11-15T18:43:36Z</time>
      </trkpt>
      <trkpt lat="59.9943837" lon="15.865988">
        <ele>51.2</ele>
        <time>2012-11-15T18:43:38Z</time>
      </trkpt>
      <trkpt lat="59.9944065" lon="15.8660882">
        <ele>50.2</ele>
        <time>2012-11-15T18:43:39Z</time>
      </trkpt>
      <trkpt lat="59.994473" lon="15.86625">
        <ele>50.2</ele>
        <time>2012-11-15T18:43:41Z</time>
      </trkpt>
      <trkpt lat="59.994502" lon="15.8663504">
        <ele>50.2</ele>
        <time>2012-11-15T18:43:42Z</time>
      </trkpt>
      <trkpt lat="59.9945757" lon="15.8666383">
        <ele>50.2</ele>
        <time>2012-11-15T18:43:45Z</time>
      </trkpt>
      <trkpt lat="59.9945934" lon="15.8667323">
        <ele>50.2</ele>
        <time>2012-11-15T18:43:46Z</time>
      </trkpt>
      <trkpt lat="59.9947214" lon="15.8672248">
        <ele>50.2</ele>
        <time>2012-11-15T18:43:52Z</time>
      </trkpt>
      <trkpt lat="59.9948688" lon="15.8674572">
        <ele>50.2</ele>
        <time>2012-11-15T18:43:57Z</time>
      </trkpt>
      <trkpt lat="59.9949006" lon="15.8674647">
        <ele>50.2</ele>
        <time>2012-11-15T18:43:58Z</time>
      </trkpt>
      <trkpt lat="59.9950907" lon="15.8674501">
        <ele>50.2</ele>
        <time>2012-11-15T18:44:03Z</time>
      </trkpt>
      <trkpt lat="59.9954006" lon="15.8673961">
        <ele>50.2</ele>
        <time>2012-11-15T18:44:11Z</time>
      </trkpt>
      <trkpt lat="59.9955903" lon="15.867393">
        <ele>50.2</ele>
        <time>2012-11-15T18:44:17Z</time>
      </trkpt>
      <trkpt lat="59.9956508" lon="15.8673959">
        <ele>53.2</ele>
        <time>2012-11-15T18:44:19Z</time>
      </trkpt>
      <trkpt lat="59.9957983" lon="15.8674105">
        <ele>53.2</ele>
        <time>2012-11-15T18:44:23Z</time>
      </trkpt>
      <trkpt lat="59.9960339" lon="15.8674381">
        <ele>50</ele>
        <time>2012-11-15T18:44:27Z</time>
      </trkpt>
      <trkpt lat="59.9963337" lon="15.8674868">
        <ele>50</ele>
        <time>2012-11-15T18:44:32Z</time>
        <extensions><gpxtpx:TrackPointExtension><gpxtpx:hr>30</gpxtpx:hr></gpxtpx:TrackPointExtension></extensions>
      </trkpt>
      <trkpt lat="59.9965433" lon="15.8675035">
        <ele>50</ele>
        <time>2012-11-15T18:44:37Z</time>
      </trkpt>
      <trkpt lat="59.996883" lon="15.8675155">
        <ele>50</ele>
        <time>2012-11-15T18:44:45Z</time>
      </trkpt>
      <trkpt lat="59.9972636" lon="15.8674928">
        <ele>50</ele>
        <time>2012-11-15T18:44:53Z</time>
      </trkpt>
      <trkpt lat="59.9974241" lon="15.867485">
        <ele>50</ele>
        <time>2012-11-15T18:44:56Z</time>
        <extensions><gpxtpx:TrackPointExtension><gpxtpx:hr>30</gpxtpx:hr></gpxtpx:TrackPointExtension></extensions>
      </trkpt>
      <trkpt lat="59.9975238" lon="15.8674679">
        <ele>50</ele>
        <time>2012-11-15T18:44:58Z</time>
        <extensions><gpxtpx:TrackPointExtension><gpxtpx:hr>30</gpxtpx:hr></gpxtpx:TrackPointExtension></extensions>
      </trkpt>
      <trkpt lat="59.9975794" lon="15.8674654">
        <ele>50</ele>
        <time>2012-11-15T18:44:59Z</time>
        <extensions><gpxtpx:TrackPointExtension><gpxtpx:hr>30</gpxtpx:hr></gpxtpx:TrackPointExtension></extensions>
      </trkpt>
      <trkpt lat="59.9976358" lon="15.867461">
        <ele>49</ele>
        <time>2012-11-15T18:45:00Z</time>
        <extensions><gpxtpx:TrackPointExtension><gpxtpx:hr>30</gpxtpx:hr></gpxtpx:TrackPointExtension></extensions>
      </trkpt>
      <trkpt lat="59.9980027" lon="15.8674037">
        <ele>49</ele>
        <time>2012-11-15T18:45:07Z</time>
      </trkpt>
      <trkpt lat="59.9981516" lon="15.8673606">
        <ele>49</ele>
        <time>2012-11-15T18:45:11Z</time>
      </trkpt>
      <trkpt lat="59.9983713" lon="15.8673344">
        <ele>49</ele>
        <time>2012-11-15T18:45:17Z</time>
      </trkpt>
      <trkpt lat="59.9985437" lon="15.8672485">
        <ele>49</ele>
        <time>2012-11-15T18:45:22Z</time>
      </trkpt>
      <trkpt lat="59.9987356" lon="15.8670772">
        <ele>49</ele>
        <time>2012-11-15T18:45:27Z</time>
      </trkpt>
      <trkpt lat="59.9989671" lon="15.8668176">
        <ele>49</ele>
        <time>2012-11-15T18:45:33Z</time>
      </trkpt>
      <trkpt lat="59.9992579" lon="15.8664923">
        <ele>49</ele>
        <time>2012-11-15T18:45:40Z</time>
      </trkpt>
      <trkpt lat="59.9994955" lon="15.8662289">
        <ele>49</ele>
        <time>2012-11-15T18:45:46Z</time>
      </trkpt>
      <trkpt lat="59.9995325" lon="15.866182">
        <ele>49</ele>
        <time>2012-11-15T18:45:47Z</time>
      </trkpt>
      <trkpt lat="59.9996083" lon="15.8660986">
        <ele>49</ele>
        <time>2012-11-15T18:45:49Z</time>
      </trkpt>
      <trkpt lat="59.9997389" lon="15.8660211">
        <ele>49</ele>
        <time>2012-11-15T18:45:52Z</time>
      </trkpt>
      <trkpt lat="60.0000287" lon="15.8659028">
        <ele>49</ele>
        <time>2012-11-15T18:45:58Z</time>
      </trkpt>
      <trkpt lat="60.0000737" lon="15.8658888">
        <ele>52</ele>
        <time>2012-11-15T18:45:59Z</time>
      </trkpt>
      <trkpt lat="60.000122" lon="15.8658806">
        <ele>52</ele>
        <time>2012-11-15T18:46:00Z</time>
      </trkpt>
      <trkpt lat="60.0001956" lon="15.8658719">
        <ele>53.2</ele>
        <time>2012-11-15T18:46:02Z</time>
      </trkpt>
      <trkpt lat="60.0002928" lon="15.8658783">
        <ele>53.2</ele>
        <time>2012-11-15T18:46:05Z</time>
      </trkpt>
      <trkpt lat="60.0004301" lon="15.8659047">
        <ele>54.4</ele>
        <time>2012-11-15T18:46:09Z</time>
      </trkpt>
      <trkpt lat="60.000568" lon="15.8659588">
        <ele>54.4</ele>
        <time>2012-11-15T18:46:13Z</time>
      </trkpt>
      <trkpt lat="60.0008168" lon="15.8661392">
        <ele>54.4</ele>
        <time>2012-11-15T18:46:20Z</time>
      </trkpt>
      <trkpt lat="60.0010442" lon="15.8664687">
        <ele>54.4</ele>
        <time>2012-11-15T18:46:27Z</time>
      </trkpt>
      <trkpt lat="60.0011553" lon="15.8666856">
        <ele>55.6</ele>
        <time>2012-11-15T18:46:31Z</time>
      </trkpt>
      <trkpt lat="60.001184" lon="15.8667402">
        <ele>55.6</ele>
        <time>2012-11-15T18:46:32Z</time>
      </trkpt>
      <trkpt lat="60.0013721" lon="15.8671123">
        <ele>56.6</ele>
        <time>2012-11-15T18:46:39Z</time>
      </trkpt>
      <trkpt lat="60.0014203" lon="15.8672087">
        <ele>56.6</ele>
        <time>2012-11-15T18:46:41Z</time>
      </trkpt>
      <trkpt lat="60.001526" lon="15.8674128">
        <ele>57.6</ele>
        <time>2012-11-15T18:46:45Z</time>
      </trkpt>
      <trkpt lat="60.0016498" lon="15.8676592">
        <ele>58.6</ele>
        <time>2012-11-15T18:46:50Z</time>
      </trkpt>
      <trkpt lat="60.0018187" lon="15.8681129">
        <ele>58.6</ele>
        <time>2012-11-15T18:46:58Z</time>
      </trkpt>
      <trkpt lat="60.0018721" lon="15.8685545">
        <ele>58.6</ele>
        <time>2012-11-15T18:47:04Z</time>
      </trkpt>
      <trkpt lat="60.0018853" lon="15.8687897">
        <ele>58.6</ele>
        <time>2012-11-15T18:47:07Z</time>
      </trkpt>
      <trkpt lat="60.0018956" lon="15.8689451">
        <ele>58.6</ele>
        <time>2012-11-15T18:47:09Z</time>
      </trkpt>
      <trkpt lat="60.0019139" lon="15.8693554">
        <ele>58.6</ele>
        <time>2012-11-15T18:47:14Z</time>
      </trkpt>
      <trkpt lat="60.0019227" lon="15.8694455">
        <ele>58.6</ele>
        <time>2012-11-15T18:47:15Z</time>
      </trkpt>
      <trkpt lat="60.0020115" lon="15.8698193">
        <ele>58.6</ele>
        <time>2012-11-15T18:47:19Z</time>
      </trkpt>
      <trkpt lat="60.0021818" lon="15.8700288">
        <ele>58.6</ele>
        <time>2012-11-15T18:47:23Z</time>
      </trkpt>
      <trkpt lat="60.0024101" lon="15.8700292">
        <ele>58.6</ele>
        <time>2012-11-15T18:47:28Z</time>
      </trkpt>
      <trkpt lat="60.0027468" lon="15.8698304">
        <ele>58.6</ele>
        <time>2012-11-15T18:47:35Z</time>
      </trkpt>
      <trkpt lat="60.002891" lon="15.869785">
        <ele>58.6</ele>
        <time>2012-11-15T18:47:38Z</time>
      </trkpt>
      <trkpt lat="60.0030236" lon="15.869815">
        <ele>58.6</ele>
        <time>2012-11-15T18:47:41Z</time>
      </trkpt>
      <trkpt lat="60.0030644" lon="15.8698314">
        <ele>58.6</ele>
        <time>2012-11-15T18:47:42Z</time>
      </trkpt>
      <trkpt lat="60.003266" lon="15.8699658">
        <ele>58.6</ele>
        <time>2012-11-15T18:47:47Z</time>
      </trkpt>
      <trkpt lat="60.0032978" lon="15.8699928">
        <ele>58.6</ele>
        <time>2012-11-15T18:47:48Z</time>
      </trkpt>
      <trkpt lat="60.003455" lon="15.8701218">
        <ele>58.6</ele>
        <time>2012-11-15T18:47:52Z</time>
      </trkpt>
      <trkpt lat="60.0035394" lon="15.8701999">
        <ele>58.6</ele>
        <time>2012-11-15T18:47:54Z</time>
      </trkpt>
      <trkpt lat="60.0037408" lon="15.8703485">
        <ele>58.6</ele>
        <time>2012-11-15T18:47:59Z</time>
      </trkpt>
      <trkpt lat="60.0038428" lon="15.8704278">
        <ele>58.6</ele>
        <time>2012-11-15T18:48:03Z</time>
      </trkpt>
      <trkpt lat="60.0039496" lon="15.8705097">
        <ele>58.6</ele>
        <time>2012-11-15T18:48:06Z</time>
      </trkpt>
      <trkpt lat="60.0039949" lon="15.8705415">
        <ele>58.6</ele>
        <time>2012-11-15T18:48:07Z</time>
      </trkpt>
      <trkpt lat="60.004232" lon="15.8707346">
        <ele>58.6</ele>
        <time>2012-11-15T18:48:12Z</time>
      </trkpt>
      <trkpt lat="60.004328" lon="15.8708067">
        <ele>58.6</ele>
        <time>2012-11-15T18:48:14Z</time>
      </trkpt>
      <trkpt lat="60.0045055" lon="15.8709245">
        <ele>58.6</ele>
        <time>2012-11-15T18:48:18Z</time>
      </trkpt>
      <trkpt lat="60.0046944" lon="15.8711036">
        <ele>58.6</ele>
        <time>2012-11-15T18:48:23Z</time>
      </trkpt>
      <trkpt lat="60.0048745" lon="15.8712989">
        <ele>58.6</ele>
        <time>2012-11-15T18:48:28Z</time>
      </trkpt>
      <trkpt lat="60.0050572" lon="15.8715095">
        <ele>58.6</ele>
        <time>2012-11-15T18:48:33Z</time>
      </trkpt>
      <trkpt lat="60.0051256" lon="15.8716313">
        <ele>58.6</ele>
        <time>2012-11-15T18:48:35Z</time>
      </trkpt>
      <trkpt lat="60.0052756" lon="15.8718201">
        <ele>58.6</ele>
        <time>2012-11-15T18:48:39Z</time>
      </trkpt>
      <trkpt lat="60.0054598" lon="15.8720326">
        <ele>58.6</ele>
        <time>2012-11-15T18:48:44Z</time>
      </trkpt>
      <trkpt lat="60.0056278" lon="15.8721023">
        <ele>59.8</ele>
        <time>2012-11-15T18:48:48Z</time>
      </trkpt>
      <trkpt lat="60.0057435" lon="15.8720956">
        <ele>60.8</ele>
        <time>2012-11-15T18:48:51Z</time>
      </trkpt>
      <trkpt lat="60.0058155" lon="15.8720735">
        <ele>60.8</ele>
        <time>2012-11-15T18:48:53Z</time>
      </trkpt>
      <trkpt lat="60.0059071" lon="15.8720258">
        <ele>61.8</ele>
        <time>2012-11-15T18:48:56Z</time>
      </trkpt>
      <trkpt lat="60.0059586" lon="15.8719973">
        <ele>61.8</ele>
        <time>2012-11-15T18:48:58Z</time>
      </trkpt>
      <trkpt lat="60.0059933" lon="15.8719756">
        <ele>61.8</ele>
        <time>2012-11-15T18:48:59Z</time>
      </trkpt>
      <trkpt lat="60.0060299" lon="15.8719531">
        <ele>62.8</ele>
        <time>2012-11-15T18:49:00Z</time>
      </trkpt>
      <trkpt lat="60.0061185" lon="15.871877">
        <ele>62.8</ele>
        <time>2012-11-15T18:49:03Z</time>
      </trkpt>
      <trkpt lat="60.0062073" lon="15.8718012">
        <ele>63.8</ele>
        <time>2012-11-15T18:49:06Z</time>
      </trkpt>
      <trkpt lat="60.0062886" lon="15.8716993">
        <ele>63.8</ele>
        <time>2012-11-15T18:49:09Z</time>
      </trkpt>
      <trkpt lat="60.0063958" lon="15.8715559">
        <ele>63.8</ele>
        <time>2012-11-15T18:49:13Z</time>
      </trkpt>
      <trkpt lat="60.0065582" lon="15.8713655">
        <ele>63.8</ele>
        <time>2012-11-15T18:49:18Z</time>
      </trkpt>
      <trkpt lat="60.0066113" lon="15.8712752">
        <ele>63.8</ele>
        <time>2012-11-15T18:49:20Z</time>
      </trkpt>
      <trkpt lat="60.0066875" lon="15.8711997">
        <ele>63.8</ele>
        <time>2012-11-15T18:49:22Z</time>
      </trkpt>
      <trkpt lat="60.0068854" lon="15.8710213">
        <ele>63.8</ele>
        <time>2012-11-15T18:49:27Z</time>
      </trkpt>
      <trkpt lat="60.0069594" lon="15.8709374">
        <ele>63.8</ele>
        <time>2012-11-15T18:49:29Z</time>
      </trkpt>
      <trkpt lat="60.0070471" lon="15.8708586">
        <ele>63.8</ele>
        <time>2012-11-15T18:49:31Z</time>
      </trkpt>
      <trkpt lat="60.007312" lon="15.8706186">
        <ele>65</ele>
        <time>2012-11-15T18:49:38Z</time>
      </trkpt>
      <trkpt lat="60.0074851" lon="15.8704582">
        <ele>66</ele>
        <time>2012-11-15T18:49:43Z</time>
      </trkpt>
      <trkpt lat="60.0075612" lon="15.8703868">
        <ele>66</ele>
        <time>2012-11-15T18:49:45Z</time>
      </trkpt>
      <trkpt lat="60.0078799" lon="15.8701551">
        <ele>66</ele>
        <time>2012-11-15T18:49:52Z</time>
      </trkpt>
      <trkpt lat="60.0080477" lon="15.8700456">
        <ele>63</ele>
        <time>2012-11-15T18:49:55Z</time>
      </trkpt>
      <trkpt lat="60.0081705" lon="15.8699734">
        <ele>62</ele>
        <time>2012-11-15T18:49:57Z</time>
      </trkpt>
      <trkpt lat="60.0082294" lon="15.8699428">
        <ele>62</ele>
        <time>2012-11-15T18:49:58Z</time>
      </trkpt>
      <trkpt lat="60.0085344" lon="15.8698395">
        <ele>62</ele>
        <time>2012-11-15T18:50:03Z</time>
      </trkpt>
      <trkpt lat="60.0085862" lon="15.8698347">
        <ele>62</ele>
        <time>2012-11-15T18:50:04Z</time>
      </trkpt>
      <trkpt lat="60.0086349" lon="15.8698335">
        <ele>60.8</ele>
        <time>2012-11-15T18:50:05Z</time>
      </trkpt>
      <trkpt lat="60.0089457" lon="15.8697943">
        <ele>60.8</ele>
        <time>2012-11-15T18:50:11Z</time>
      </trkpt>
      <trkpt lat="60.0092008" lon="15.869769">
        <ele>60.8</ele>
        <time>2012-11-15T18:50:17Z</time>
      </trkpt>
      <trkpt lat="60.0094779" lon="15.8696955">
        <ele>60.8</ele>
        <time>2012-11-15T18:50:24Z</time>
      </trkpt>
      <trkpt lat="60.0097345" lon="15.8694954">
        <ele>60.8</ele>
        <time>2012-11-15T18:50:30Z</time>
      </trkpt>
      <trkpt lat="60.0097832" lon="15.8694511">
        <ele>60.8</ele>
        <time>2012-11-15T18:50:31Z</time>
      </trkpt>
      <trkpt lat="60.0099014" lon="15.8693211">
        <ele>59.6</ele>
        <time>2012-11-15T18:50:34Z</time>
      </trkpt>
      <trkpt lat="60.009957" lon="15.8692649">
        <ele>59.6</ele>
        <time>2012-11-15T18:50:35Z</time>
      </trkpt>
      <trkpt lat="60.0101861" lon="15.8690278">
        <ele>59.6</ele>
        <time>2012-11-15T18:50:40Z</time>
      </trkpt>
      <trkpt lat="60.0102945" lon="15.868892">
        <ele>59.6</ele>
        <time>2012-11-15T18:50:44Z</time>
      </trkpt>
      <trkpt lat="60.0103079" lon="15.8689083">
        <ele>59.6</ele>
        <time>2012-11-15T18:50:48Z</time>
      </trkpt>
      <trkpt lat="60.0102918" lon="15.8689399">
        <ele>59.6</ele>
        <time>2012-11-15T18:50:51Z</time>
      </trkpt>
      <trkpt lat="60.0102753" lon="15.8689618">
        <ele>59.6</ele>
        <time>2012-11-15T18:50:54Z</time>
      </trkpt>
      <trkpt lat="60.010277" lon="15.8689758">
        <ele>59.6</ele>
        <time>2012-11-15T18:50:59Z</time>
      </trkpt>
      <trkpt lat="60.0108804" lon="15.8682903">
        <ele>59.6</ele>
        <time>2012-11-15T18:51:58Z</time>
        <extensions><gpxtpx:TrackPointExtension><gpxtpx:hr>45</gpxtpx:hr></gpxtpx:TrackPointExtension></extensions>
      </trkpt>
      <trkpt lat="60.0109103" lon="15.8682989">
        <ele>59.6</ele>
        <time>2012-11-15T18:51:59Z</time>
      </trkpt>
      <trkpt lat="60.010933" lon="15.8682911">
        <ele>59.6</ele>
        <time>2012-11-15T18:52:00Z</time>
      </trkpt>
      <trkpt lat="60.0109579" lon="15.8682862">
        <ele>59.6</ele>
        <time>2012-11-15T18:52:01Z</time>
        <extensions><gpxtpx:TrackPointExtension><gpxtpx:hr>45</gpxtpx:hr></gpxtpx:TrackPointExtension></extensions>
      </trkpt>
      <trkpt lat="60.011058" lon="15.8682952">
        <ele>58.6</ele>
        <time>2012-11-15T18:52:04Z</time>
        <extensions><gpxtpx:TrackPointExtension><gpxtpx:hr>45</gpxtpx:hr></gpxtpx:TrackPointExtension></extensions>
      </trkpt>
      <trkpt lat="60.0111023" lon="15.8683142">
        <ele>58.6</ele>
        <time>2012-11-15T18:52:05Z</time>
        <extensions><gpxtpx:TrackPointExtension><gpxtpx:hr>45</gpxtpx:hr></gpxtpx:TrackPointExtension></extensions>
      </trkpt>
      <trkpt lat="60.0112713" lon="15.8684359">
        <ele>58.6</ele>
        <time>2012-11-15T18:52:09Z</time>
        <extensions><gpxtpx:TrackPointExtension><gpxtpx:hr>45</gpxtpx:hr></gpxtpx:TrackPointExtension></extensions>
      </trkpt>
      <trkpt lat="60.0114538" lon="15.8685743">
        <ele>58.6</ele>
        <time>2012-11-15T18:52:14Z</time>
      </trkpt>
      <trkpt lat="60.0116589" lon="15.8687431">
        <ele>58.6</ele>
        <time>2012-11-15T18:52:20Z</time>
      </trkpt>
      <trkpt lat="60.0117329" lon="15.8687667">
        <ele>61.8</ele>
        <time>2012-11-15T18:52:24Z</time>
        <extensions><gpxtpx:TrackPointExtension><gpxtpx:hr>45</gpxtpx:hr></gpxtpx:TrackPointExtension></extensions>
      </trkpt>
      <trkpt lat="60.0117651" lon="15.8687904">
        <ele>61.8</ele>
        <time>2012-11-15T18:52:25Z</time>
        <extensions><gpxtpx:TrackPointExtension><gpxtpx:hr>45</gpxtpx:hr></gpxtpx:TrackPointExtension></extensions>
      </trkpt>
      <trkpt lat="60.011831" lon="15.8688386">
        <ele>61.8</ele>
        <time>2012-11-15T18:52:27Z</time>
        <extensions><gpxtpx:TrackPointExtension><gpxtpx:hr>45</gpxtpx:hr></gpxtpx:TrackPointExtension></extensions>
      </trkpt>
      <trkpt lat="60.0118603" lon="15.8688589">
        <ele>62.8</ele>
        <time>2012-11-15T18:52:28Z</time>
        <extensions><gpxtpx:TrackPointExtension><gpxtpx:hr>45</gpxtpx:hr></gpxtpx:TrackPointExtension></extensions>
      </trkpt>
      <trkpt lat="60.0119239" lon="15.8689081">
        <ele>63.8</ele>
        <time>2012-11-15T18:52:30Z</time>
        <extensions><gpxtpx:TrackPointExtension><gpxtpx:hr>45</gpxtpx:hr></gpxtpx:TrackPointExtension></extensions>
      </trkpt>
      <trkpt lat="60.01201" lon="15.8689886">
        <ele>63.8</ele>
        <time>2012-11-15T18:52:33Z</time>
        <extensions><gpxtpx:TrackPointExtension><gpxtpx:hr>45</gpxtpx:hr></gpxtpx:TrackPointExtension></extensions>
      </trkpt>
      <trkpt lat="60.012037" lon="15.8690114">
        <ele>65</ele>
        <time>2012-11-15T18:52:34Z</time>
        <extensions><gpxtpx:TrackPointExtension><gpxtpx:hr>44</gpxtpx:hr></gpxtpx:TrackPointExtension></extensions>
      </trkpt>
      <trkpt lat="60.0120853" lon="15.8690633">
        <ele>66</ele>
        <time>2012-11-15T18:52:36Z</time>
        <extensions><gpxtpx:TrackPointExtension><gpxtpx:hr>44</gpxtpx:hr></gpxtpx:TrackPointExtension></extensions>
      </trkpt>
      <trkpt lat="60.0121852" lon="15.8691787">
        <ele>67</ele>
        <time>2012-11-15T18:52:40Z</time>
        <extensions><gpxtpx:TrackPointExtension><gpxtpx:hr>44</gpxtpx:hr></gpxtpx:TrackPointExtension></extensions>
      </trkpt>
      <trkpt lat="60.0122075" lon="15.8691953">
        <ele>67</ele>
        <time>2012-11-15T18:52:41Z</time>
        <extensions><gpxtpx:TrackPointExtension><gpxtpx:hr>44</gpxtpx:hr></gpxtpx:TrackPointExtension></extensions>
      </trkpt>
      <trkpt lat="60.0122316" lon="15.8692371">
        <ele>67</ele>
        <time>2012-11-15T18:52:42Z</time>
        <extensions><gpxtpx:TrackPointExtension><gpxtpx:hr>44</gpxtpx:hr></gpxtpx:TrackPointExtension></extensions>
      </trkpt>
      <trkpt lat="60.0122863" lon="15.8692835">
        <ele>67</ele>
        <time>2012-11-15T18:52:44Z</time>
        <extensions><gpxtpx:TrackPointExtension><gpxtpx:hr>44</gpxtpx:hr></gpxtpx:TrackPointExtension></extensions>
      </trkpt>
      <trkpt lat="60.0123993" lon="15.8694103">
        <ele>67</ele>
        <time>2012-11-15T18:52:48Z</time>
        <extensions><gpxtpx:TrackPointExtension><gpxtpx:hr>43</gpxtpx:hr></gpxtpx:TrackPointExtension></extensions>
      </trkpt>
      <trkpt lat="60.0124265" lon="15.8694438">
        <ele>68.2</ele>
        <time>2012-11-15T18:52:49Z</time>
        <extensions><gpxtpx:TrackPointExtension><gpxtpx:hr>43</gpxtpx:hr></gpxtpx:TrackPointExtension></extensions>
      </trkpt>
      <trkpt lat="60.0126043" lon="15.869614">
        <ele>68.2</ele>
        <time>2012-11-15T18:52:54Z</time>
      </trkpt>
      <trkpt lat="60.0128107" lon="15.8698412">
        <ele>68.2</ele>
        <time>2012-11-15T18:53:00Z</time>
      </trkpt>
      <trkpt lat="60.0129288" lon="15.8700322">
        <ele>68.2</ele>
        <time>2012-11-15T18:53:04Z</time>
      </trkpt>
      <trkpt lat="60.0131114" lon="15.8703999">
        <ele>68.2</ele>
        <time>2012-11-15T18:53:10Z</time>
      </trkpt>
      <trkpt lat="60.0133167" lon="15.8708084">
        <ele>68.2</ele>
        <time>2012-11-15T18:53:17Z</time>
      </trkpt>
      <trkpt lat="60.0134736" lon="15.8711443">
        <ele>68.2</ele>
        <time>2012-11-15T18:53:23Z</time>
      </trkpt>
      <trkpt lat="60.0136586" lon="15.8714906">
        <ele>69.2</ele>
        <time>2012-11-15T18:53:30Z</time>
        <extensions><gpxtpx:TrackPointExtension><gpxtpx:hr>43</gpxtpx:hr></gpxtpx:TrackPointExtension></extensions>
      </trkpt>
      <trkpt lat="60.0137579" lon="15.8715826">
        <ele>69.2</ele>
        <time>2012-11-15T18:53:34Z</time>
      </trkpt>
      <trkpt lat="60.0138231" lon="15.8716326">
        <ele>70.4</ele>
        <time>2012-11-15T18:53:36Z</time>
      </trkpt>
      <trkpt lat="60.0138512" lon="15.8716471">
        <ele>70.4</ele>
        <time>2012-11-15T18:53:37Z</time>
        <extensions><gpxtpx:TrackPointExtension><gpxtpx:hr>38</gpxtpx:hr></gpxtpx:TrackPointExtension></extensions>
      </trkpt>
      <trkpt lat="60.0138762" lon="15.8716538">
        <ele>70.4</ele>
        <time>2012-11-15T18:53:38Z</time>
        <extensions><gpxtpx:TrackPointExtension><gpxtpx:hr>38</gpxtpx:hr></gpxtpx:TrackPointExtension></extensions>
      </trkpt>
      <trkpt lat="60.0139104" lon="15.8716672">
        <ele>70.4</ele>
        <time>2012-11-15T18:53:39Z</time>
        <extensions><gpxtpx:TrackPointExtension><gpxtpx:hr>38</gpxtpx:hr></gpxtpx:TrackPointExtension></extensions>
      </trkpt>
      <trkpt lat="60.0139784" lon="15.8716776">
        <ele>71.4</ele>
        <time>2012-11-15T18:53:41Z</time>
        <extensions><gpxtpx:TrackPointExtension><gpxtpx:hr>38</gpxtpx:hr></gpxtpx:TrackPointExtension></extensions>
      </trkpt>
      <trkpt lat="60.0140689" lon="15.8716821">
        <ele>71.4</ele>
        <time>2012-11-15T18:53:44Z</time>
        <extensions><gpxtpx:TrackPointExtension><gpxtpx:hr>35</gpxtpx:hr></gpxtpx:TrackPointExtension></extensions>
      </trkpt>
      <trkpt lat="60.0141006" lon="15.8716882">
        <ele>71.4</ele>
        <time>2012-11-15T18:53:45Z</time>
        <extensions><gpxtpx:TrackPointExtension><gpxtpx:hr>35</gpxtpx:hr></gpxtpx:TrackPointExtension></extensions>
      </trkpt>
      <trkpt lat="60.0141315" lon="15.8716861">
        <ele>72.8</ele>
        <time>2012-11-15T18:53:46Z</time>
        <extensions><gpxtpx:TrackPointExtension><gpxtpx:hr>35</gpxtpx:hr></gpxtpx:TrackPointExtension></extensions>
      </trkpt>
      <trkpt lat="60.0142597" lon="15.8716893">
        <ele>73.8</ele>
        <time>2012-11-15T18:53:50Z</time>
        <extensions><gpxtpx:TrackPointExtension><gpxtpx:hr>35</gpxtpx:hr></gpxtpx:TrackPointExtension></extensions>
      </trkpt>
      <trkpt lat="60.0142913" lon="15.871685">
        <ele>73.8</ele>
        <time>2012-11-15T18:53:51Z</time>
        <extensions><gpxtpx:TrackPointExtension><gpxtpx:hr>35</gpxtpx:hr></gpxtpx:TrackPointExtension></extensions>
      </trkpt>
      <trkpt lat="60.0143472" lon="15.871686">
        <ele>74.8</ele>
        <time>2012-11-15T18:53:53Z</time>
        <extensions><gpxtpx:TrackPointExtension><gpxtpx:hr>35</gpxtpx:hr></gpxtpx:TrackPointExtension></extensions>
      </trkpt>
      <trkpt lat="60.0144363" lon="15.871688">
        <ele>75.8</ele>
        <time>2012-11-15T18:53:56Z</time>
        <extensions><gpxtpx:TrackPointExtension><gpxtpx:hr>35</gpxtpx:hr></gpxtpx:TrackPointExtension></extensions>
      </trkpt>
      <trkpt lat="60.014471" lon="15.8716806">
        <ele>75.8</ele>
        <time>2012-11-15T18:53:57Z</time>
        <extensions><gpxtpx:TrackPointExtension><gpxtpx:hr>35</gpxtpx:hr></gpxtpx:TrackPointExtension></extensions>
      </trkpt>
      <trkpt lat="60.0145472" lon="15.8716694">
        <ele>75.8</ele>
        <time>2012-11-15T18:53:59Z</time>
        <extensions><gpxtpx:TrackPointExtension><gpxtpx:hr>35</gpxtpx:hr></gpxtpx:TrackPointExtension></extensions>
      </trkpt>
      <trkpt lat="60.0147106" lon="15.8716507">
        <ele>75.8</ele>
        <time>2012-11-15T18:54:03Z</time>
        <extensions><gpxtpx:TrackPointExtension><gpxtpx:hr>35</gpxtpx:hr></gpxtpx:TrackPointExtension></extensions>
      </trkpt>
      <trkpt lat="60.0150774" lon="15.8716122">
        <ele>75.8</ele>
        <time>2012-11-15T18:54:12Z</time>
      </trkpt>
      <trkpt lat="60.0152565" lon="15.8715962">
        <ele>76.8</ele>
        <time>2012-11-15T18:54:17Z</time>
      </trkpt>
      <trkpt lat="60.0153618" lon="15.8715894">
        <ele>76.8</ele>
        <time>2012-11-15T18:54:20Z</time>
      </trkpt>
      <trkpt lat="60.0155251" lon="15.8715947">
        <ele>77.8</ele>
        <time>2012-11-15T18:54:25Z</time>
        <extensions><gpxtpx:TrackPointExtension><gpxtpx:hr>35</gpxtpx:hr></gpxtpx:TrackPointExtension></extensions>
      </trkpt>
      <trkpt lat="60.0156124" lon="15.8716032">
        <ele>79</ele>
        <time>2012-11-15T18:54:28Z</time>
        <extensions><gpxtpx:TrackPointExtension><gpxtpx:hr>35</gpxtpx:hr></gpxtpx:TrackPointExtension></extensions>
      </trkpt>
      <trkpt lat="60.0156452" lon="15.8716028">
        <ele>79</ele>
        <time>2012-11-15T18:54:29Z</time>
        <extensions><gpxtpx:TrackPointExtension><gpxtpx:hr>35</gpxtpx:hr></gpxtpx:TrackPointExtension></extensions>
      </trkpt>
      <trkpt lat="60.0156737" lon="15.8716055">
        <ele>80</ele>
        <time>2012-11-15T18:54:30Z</time>
        <extensions><gpxtpx:TrackPointExtension><gpxtpx:hr>35</gpxtpx:hr></gpxtpx:TrackPointExtension></extensions>
      </trkpt>
      <trkpt lat="60.0158543" lon="15.8716237">
        <ele>81</ele>
        <time>2012-11-15T18:54:36Z</time>
        <extensions><gpxtpx:TrackPointExtension><gpxtpx:hr>34</gpxtpx:hr></gpxtpx:TrackPointExtension></extensions>
      </trkpt>
      <trkpt lat="60.0159149" lon="15.8716305">
        <ele>81</ele>
        <time>2012-11-15T18:54:38Z</time>
        <extensions><gpxtpx:TrackPointExtension><gpxtpx:hr>34</gpxtpx:hr></gpxtpx:TrackPointExtension></extensions>
      </trkpt>
      <trkpt lat="60.0160163" lon="15.8716464">
        <ele>82.2</ele>
        <time>2012-11-15T18:54:41Z</time>
        <extensions><gpxtpx:TrackPointExtension><gpxtpx:hr>34</gpxtpx:hr></gpxtpx:TrackPointExtension></extensions>
      </trkpt>
      <trkpt lat="60.0161424" lon="15.8716522">
        <ele>83.2</ele>
        <time>2012-11-15T18:54:45Z</time>
        <extensions><gpxtpx:TrackPointExtension><gpxtpx:hr>34</gpxtpx:hr></gpxtpx:TrackPointExtension></extensions>
      </trkpt>
      <trkpt lat="60.0162067" lon="15.8716444">
        <ele>83.2</ele>
        <time>2012-11-15T18:54:47Z</time>
        <extensions><gpxtpx:TrackPointExtension><gpxtpx:hr>34</gpxtpx:hr></gpxtpx:TrackPointExtension></extensions>
      </trkpt>
      <trkpt lat="60.0164512" lon="15.871552">
        <ele>83.2</ele>
        <time>2012-11-15T18:54:54Z</time>
      </trkpt>
      <trkpt lat="60.0166836" lon="15.8714753">
        <ele>83.2</ele>
        <time>2012-11-15T18:55:00Z</time>
      </trkpt>
      <trkpt lat="60.0169069" lon="15.871481">
        <ele>84.2</ele>
        <time>2012-11-15T18:55:06Z</time>
      </trkpt>
      <trkpt lat="60.0169451" lon="15.8714839">
        <ele>84.2</ele>
        <time>2012-11-15T18:55:07Z</time>
      </trkpt>
      <trkpt lat="60.0172389" lon="15.8715275">
        <ele>84.2</ele>
        <time>2012-11-15T18:55:15Z</time>
      </trkpt>
      <trkpt lat="60.0174236" lon="15.8714929">
        <ele>85.4</ele>
        <time>2012-11-15T18:55:21Z</time>
        <extensions><gpxtpx:TrackPointExtension><gpxtpx:hr>34</gpxtpx:hr></gpxtpx:TrackPointExtension></extensions>
      </trkpt>
      <trkpt lat="60.0174483" lon="15.871486">
        <ele>85.4</ele>
        <time>2012-11-15T18:55:22Z</time>
        <extensions><gpxtpx:TrackPointExtension><gpxtpx:hr>31</gpxtpx:hr></gpxtpx:TrackPointExtension></extensions>
      </trkpt>
      <trkpt lat="60.0176682" lon="15.8714032">
        <ele>85.4</ele>
        <time>2012-11-15T18:55:29Z</time>
      </trkpt>
      <trkpt lat="60.0179318" lon="15.8713077">
        <ele>85.4</ele>
        <time>2012-11-15T18:55:36Z</time>
      </trkpt>
      <trkpt lat="60.0179817" lon="15.8713069">
        <ele>85.4</ele>
        <time>2012-11-15T18:55:37Z</time>
      </trkpt>
      <trkpt lat="60.0180329" lon="15.8713115">
        <ele>82.2</ele>
        <time>2012-11-15T18:55:38Z</time>
      </trkpt>
      <trkpt lat="60.0180985" lon="15.8713238">
        <ele>82.2</ele>
        <time>2012-11-15T18:55:39Z</time>
      </trkpt>
      <trkpt lat="60.0182242" lon="15.8713554">
        <ele>81.2</ele>
        <time>2012-11-15T18:55:41Z</time>
      </trkpt>
      <trkpt lat="60.0183447" lon="15.8713912">
        <ele>80.2</ele>
        <time>2012-11-15T18:55:43Z</time>
      </trkpt>
      <trkpt lat="60.0184766" lon="15.8714385">
        <ele>80.2</ele>
        <time>2012-11-15T18:55:45Z</time>
      </trkpt>
      <trkpt lat="60.018543" lon="15.8714713">
        <ele>78.8</ele>
        <time>2012-11-15T18:55:46Z</time>
      </trkpt>
      <trkpt lat="60.0187761" lon="15.8715913">
        <ele>78.8</ele>
        <time>2012-11-15T18:55:50Z</time>
      </trkpt>
      <trkpt lat="60.0188799" lon="15.8716403">
        <ele>77.8</ele>
        <time>2012-11-15T18:55:52Z</time>
        <extensions><gpxtpx:TrackPointExtension><gpxtpx:hr>31</gpxtpx:hr></gpxtpx:TrackPointExtension></extensions>
      </trkpt>
      <trkpt lat="60.0189845" lon="15.871674">
        <ele>77.8</ele>
        <time>2012-11-15T18:55:54Z</time>
        <extensions><gpxtpx:TrackPointExtension><gpxtpx:hr>31</gpxtpx:hr></gpxtpx:TrackPointExtension></extensions>
      </trkpt>
      <trkpt lat="60.0191342" lon="15.8716753">
        <ele>77.8</ele>
        <time>2012-11-15T18:55:57Z</time>
        <extensions><gpxtpx:TrackPointExtension><gpxtpx:hr>31</gpxtpx:hr></gpxtpx:TrackPointExtension></extensions>
      </trkpt>
      <trkpt lat="60.0192281" lon="15.8716537">
        <ele>77.8</ele>
        <time>2012-11-15T18:55:59Z</time>
        <extensions><gpxtpx:TrackPointExtension><gpxtpx:hr>31</gpxtpx:hr></gpxtpx:TrackPointExtension></extensions>
      </trkpt>
      <trkpt lat="60.0192741" lon="15.871631">
        <ele>77.8</ele>
        <time>2012-11-15T18:56:00Z</time>
        <extensions><gpxtpx:TrackPointExtension><gpxtpx:hr>31</gpxtpx:hr></gpxtpx:TrackPointExtension></extensions>
      </trkpt>
      <trkpt lat="60.0193931" lon="15.8715443">
        <ele>77.8</ele>
        <time>2012-11-15T18:56:03Z</time>
      </trkpt>
      <trkpt lat="60.0196009" lon="15.8713202">
        <ele>77.8</ele>
        <time>2012-11-15T18:56:09Z</time>
      </trkpt>
      <trkpt lat="60.0197983" lon="15.8710779">
        <ele>77.8</ele>
        <time>2012-11-15T18:56:15Z</time>
      </trkpt>
      <trkpt lat="60.0199772" lon="15.870844">
        <ele>77.8</ele>
        <time>2012-11-15T18:56:21Z</time>
      </trkpt>
      <trkpt lat="60.0201949" lon="15.8705841">
        <ele>77.8</ele>
        <time>2012-11-15T18:56:27Z</time>
      </trkpt>
      <trkpt lat="60.0204143" lon="15.8703206">
        <ele>77.8</ele>
        <time>2012-11-15T18:56:33Z</time>
      </trkpt>
      <trkpt lat="60.0204563" lon="15.8702716">
        <ele>77.8</ele>
        <time>2012-11-15T18:56:34Z</time>
      </trkpt>
      <trkpt lat="60.0207564" lon="15.869919">
        <ele>77.8</ele>
        <time>2012-11-15T18:56:42Z</time>
        <extensions><gpxtpx:TrackPointExtension><gpxtpx:hr>31</gpxtpx:hr></gpxtpx:TrackPointExtension></extensions>
      </trkpt>
      <trkpt lat="60.0209327" lon="15.8696807">
        <ele>77.8</ele>
        <time>2012-11-15T18:56:48Z</time>
        <extensions><gpxtpx:TrackPointExtension><gpxtpx:hr>31</gpxtpx:hr></gpxtpx:TrackPointExtension></extensions>
      </trkpt>
      <trkpt lat="60.0211415" lon="15.8693805">
        <ele>77.8</ele>
        <time>2012-11-15T18:56:54Z</time>
      </trkpt>
      <trkpt lat="60.021211" lon="15.8692584">
        <ele>77.8</ele>
        <time>2012-11-15T18:56:56Z</time>
      </trkpt>
      <trkpt lat="60.0213011" lon="15.8690457">
        <ele>77.8</ele>
        <time>2012-11-15T18:56:59Z</time>
      </trkpt>
      <trkpt lat="60.0213286" lon="15.8689695">
        <ele>77.8</ele>
        <time>2012-11-15T18:57:00Z</time>
      </trkpt>
      <trkpt lat="60.0214742" lon="15.8684369">
        <ele>77.8</ele>
        <time>2012-11-15T18:57:07Z</time>
      </trkpt>
      <trkpt lat="60.0215971" lon="15.8677148">
        <ele>77.8</ele>
        <time>2012-11-15T18:57:16Z</time>
      </trkpt>
      <trkpt lat="60.0216268" lon="15.8671295">
        <ele>77.8</ele>
        <time>2012-11-15T18:57:23Z</time>
      </trkpt>
      <trkpt lat="60.0215689" lon="15.8665814">
        <ele>77.8</ele>
        <time>2012-11-15T18:57:30Z</time>
      </trkpt>
      <trkpt lat="60.0214316" lon="15.8659888">
        <ele>77.8</ele>
        <time>2012-11-15T18:57:38Z</time>
        <extensions><gpxtpx:TrackPointExtension><gpxtpx:hr>31</gpxtpx:hr></gpxtpx:TrackPointExtension></extensions>
      </trkpt>
      <trkpt lat="60.021237" lon="15.8653603">
        <ele>77.8</ele>
        <time>2012-11-15T18:57:47Z</time>
      </trkpt>
      <trkpt lat="60.0210946" lon="15.8649986">
        <ele>77.8</ele>
        <time>2012-11-15T18:57:53Z</time>
      </trkpt>
      <trkpt lat="60.0209547" lon="15.8646164">
        <ele>76.4</ele>
        <time>2012-11-15T18:57:58Z</time>
      </trkpt>
      <trkpt lat="60.0209176" lon="15.8645192">
        <ele>76.4</ele>
        <time>2012-11-15T18:57:59Z</time>
      </trkpt>
      <trkpt lat="60.0208066" lon="15.8642147">
        <ele>75.4</ele>
        <time>2012-11-15T18:58:02Z</time>
      </trkpt>
      <trkpt lat="60.020696" lon="15.8639152">
        <ele>75.4</ele>
        <time>2012-11-15T18:58:05Z</time>
      </trkpt>
      <trkpt lat="60.0206206" lon="15.8636683">
        <ele>75.4</ele>
        <time>2012-11-15T18:58:08Z</time>
      </trkpt>
      <trkpt lat="60.0206027" lon="15.8635833">
        <ele>75.4</ele>
        <time>2012-11-15T18:58:09Z</time>
      </trkpt>
      <trkpt lat="60.0205575" lon="15.8631681">
        <ele>75.4</ele>
        <time>2012-11-15T18:58:14Z</time>
      </trkpt>
      <trkpt lat="60.0205506" lon="15.862964">
        <ele>75.4</ele>
        <time>2012-11-15T18:58:16Z</time>
      </trkpt>
      <trkpt lat="60.0205508" lon="15.862658">
        <ele>75.4</ele>
        <time>2012-11-15T18:58:19Z</time>
      </trkpt>
      <trkpt lat="60.0205571" lon="15.8623578">
        <ele>75.4</ele>
        <time>2012-11-15T18:58:22Z</time>
      </trkpt>
      <trkpt lat="60.0205647" lon="15.8620022">
        <ele>75.4</ele>
        <time>2012-11-15T18:58:25Z</time>
      </trkpt>
      <trkpt lat="60.0205727" lon="15.861886">
        <ele>74.2</ele>
        <time>2012-11-15T18:58:26Z</time>
      </trkpt>
      <trkpt lat="60.0205802" lon="15.8617658">
        <ele>73.2</ele>
        <time>2012-11-15T18:58:27Z</time>
      </trkpt>
      <trkpt lat="60.0205934" lon="15.8616661">
        <ele>73.2</ele>
        <time>2012-11-15T18:58:28Z</time>
      </trkpt>
      <trkpt lat="60.0206405" lon="15.8614236">
        <ele>72</ele>
        <time>2012-11-15T18:58:30Z</time>
      </trkpt>
      <trkpt lat="60.0208221" lon="15.8609869">
        <ele>72</ele>
        <time>2012-11-15T18:58:34Z</time>
      </trkpt>
      <trkpt lat="60.0208739" lon="15.8609006">
        <ele>70.8</ele>
        <time>2012-11-15T18:58:35Z</time>
      </trkpt>
      <trkpt lat="60.0209249" lon="15.8608232">
        <ele>70.8</ele>
        <time>2012-11-15T18:58:36Z</time>
      </trkpt>
      <trkpt lat="60.0210565" lon="15.8606322">
        <ele>70.8</ele>
        <time>2012-11-15T18:58:39Z</time>
      </trkpt>
      <trkpt lat="60.0211056" lon="15.8605803">
        <ele>70.8</ele>
        <time>2012-11-15T18:58:40Z</time>
      </trkpt>
      <trkpt lat="60.0212501" lon="15.8604012">
        <ele>70.8</ele>
        <time>2012-11-15T18:58:43Z</time>
      </trkpt>
      <trkpt lat="60.0214968" lon="15.8600872">
        <ele>70.8</ele>
        <time>2012-11-15T18:58:48Z</time>
      </trkpt>
      <trkpt lat="60.021548" lon="15.8600212">
        <ele>70.8</ele>
        <time>2012-11-15T18:58:49Z</time>
      </trkpt>
      <trkpt lat="60.0216435" lon="15.859869">
        <ele>69.6</ele>
        <time>2012-11-15T18:58:51Z</time>
      </trkpt>
      <trkpt lat="60.021686" lon="15.8597758">
        <ele>69.6</ele>
        <time>2012-11-15T18:58:52Z</time>
      </trkpt>
      <trkpt lat="60.0217554" lon="15.8595508">
        <ele>69.6</ele>
        <time>2012-11-15T18:58:54Z</time>
      </trkpt>
      <trkpt lat="60.0217869" lon="15.8593244">
        <ele>69.6</ele>
        <time>2012-11-15T18:58:56Z</time>
      </trkpt>
      <trkpt lat="60.0218073" lon="15.8591192">
        <ele>69.6</ele>
        <time>2012-11-15T18:58:58Z</time>
      </trkpt>
      <trkpt lat="60.021811" lon="15.8589893">
        <ele>69.6</ele>
        <time>2012-11-15T18:58:59Z</time>
      </trkpt>
      <trkpt lat="60.0218182" lon="15.8587429">
        <ele>68.6</ele>
        <time>2012-11-15T18:59:01Z</time>
      </trkpt>
      <trkpt lat="60.0218147" lon="15.8585017">
        <ele>68.6</ele>
        <time>2012-11-15T18:59:03Z</time>
      </trkpt>
      <trkpt lat="60.0218117" lon="15.8582386">
        <ele>67.6</ele>
        <time>2012-11-15T18:59:05Z</time>
      </trkpt>
      <trkpt lat="60.0218304" lon="15.8575624">
        <ele>66.4</ele>
        <time>2012-11-15T18:59:11Z</time>
      </trkpt>
      <trkpt lat="60.0218409" lon="15.8569019">
        <ele>66.4</ele>
        <time>2012-11-15T18:59:18Z</time>
      </trkpt>
      <trkpt lat="60.0218634" lon="15.8563117">
        <ele>66.4</ele>
        <time>2012-11-15T18:59:24Z</time>
      </trkpt>
      <trkpt lat="60.0219019" lon="15.855935">
        <ele>66.4</ele>
        <time>2012-11-15T18:59:29Z</time>
      </trkpt>
      <trkpt lat="60.021925" lon="15.8558939">
        <ele>69.4</ele>
        <time>2012-11-15T18:59:30Z</time>
      </trkpt>
      <trkpt lat="60.0219561" lon="15.855875">
        <ele>69.4</ele>
        <time>2012-11-15T18:59:31Z</time>
      </trkpt>
      <trkpt lat="60.0219867" lon="15.8558734">
        <ele>69.4</ele>
        <time>2012-11-15T18:59:32Z</time>
      </trkpt>
      <trkpt lat="60.0220637" lon="15.855943">
        <ele>70.6</ele>
        <time>2012-11-15T18:59:35Z</time>
      </trkpt>
      <trkpt lat="60.0220916" lon="15.8559767">
        <ele>70.6</ele>
        <time>2012-11-15T18:59:36Z</time>
      </trkpt>
      <trkpt lat="60.0223124" lon="15.8561445">
        <ele>70.6</ele>
        <time>2012-11-15T18:59:42Z</time>
      </trkpt>
      <trkpt lat="60.0225134" lon="15.856249">
        <ele>71.6</ele>
        <time>2012-11-15T18:59:47Z</time>
      </trkpt>
      <trkpt lat="60.0227329" lon="15.8563552">
        <ele>71.6</ele>
        <time>2012-11-15T18:59:53Z</time>
      </trkpt>
      <trkpt lat="60.0227724" lon="15.8563773">
        <ele>72.6</ele>
        <time>2012-11-15T18:59:54Z</time>
      </trkpt>
      <trkpt lat="60.0229424" lon="15.8564814">
        <ele>73.8</ele>
        <time>2012-11-15T18:59:59Z</time>
      </trkpt>
      <trkpt lat="60.0230678" lon="15.8565873">
        <ele>74.8</ele>
        <time>2012-11-15T19:00:03Z</time>
      </trkpt>
      <trkpt lat="60.0232178" lon="15.8567522">
        <ele>75.8</ele>
        <time>2012-11-15T19:00:08Z</time>
      </trkpt>
      <trkpt lat="60.0233311" lon="15.8569093">
        <ele>75.8</ele>
        <time>2012-11-15T19:00:12Z</time>
      </trkpt>
      <trkpt lat="60.0233534" lon="15.856943">
        <ele>76.8</ele>
        <time>2012-11-15T19:00:13Z</time>
      </trkpt>
      <trkpt lat="60.0235412" lon="15.857226">
        <ele>77.8</ele>
        <time>2012-11-15T19:00:20Z</time>
      </trkpt>
      <trkpt lat="60.0235887" lon="15.8573008">
        <ele>77.8</ele>
        <time>2012-11-15T19:00:22Z</time>
      </trkpt>
      <trkpt lat="60.0237256" lon="15.8575022">
        <ele>78.8</ele>
        <time>2012-11-15T19:00:27Z</time>
      </trkpt>
      <trkpt lat="60.0238723" lon="15.8576705">
        <ele>78.8</ele>
        <time>2012-11-15T19:00:32Z</time>
      </trkpt>
      <trkpt lat="60.0238995" lon="15.8576948">
        <ele>80</ele>
        <time>2012-11-15T19:00:33Z</time>
      </trkpt>
      <trkpt lat="60.0241164" lon="15.8578519">
        <ele>81</ele>
        <time>2012-11-15T19:00:40Z</time>
      </trkpt>
      <trkpt lat="60.0242099" lon="15.8579084">
        <ele>81</ele>
        <time>2012-11-15T19:00:43Z</time>
      </trkpt>
      <trkpt lat="60.0243372" lon="15.8579727">
        <ele>82</ele>
        <time>2012-11-15T19:00:47Z</time>
      </trkpt>
      <trkpt lat="60.0244842" lon="15.8580555">
        <ele>82</ele>
        <time>2012-11-15T19:00:52Z</time>
      </trkpt>
      <trkpt lat="60.0245841" lon="15.8581088">
        <ele>83</ele>
        <time>2012-11-15T19:00:55Z</time>
      </trkpt>
      <trkpt lat="60.0247796" lon="15.8582073">
        <ele>83</ele>
        <time>2012-11-15T19:01:01Z</time>
      </trkpt>
      <trkpt lat="60.0248121" lon="15.8582218">
        <ele>84.2</ele>
        <time>2012-11-15T19:01:02Z</time>
      </trkpt>
      <trkpt lat="60.0251332" lon="15.8583513">
        <ele>84.2</ele>
        <time>2012-11-15T19:01:11Z</time>
      </trkpt>
      <trkpt lat="60.0255588" lon="15.8585103">
        <ele>84.2</ele>
        <time>2012-11-15T19:01:21Z</time>
      </trkpt>
      <trkpt lat="60.02591" lon="15.8587785">
        <ele>84.2</ele>
        <time>2012-11-15T19:01:29Z</time>
      </trkpt>
      <trkpt lat="60.0262315" lon="15.8591869">
        <ele>85.2</ele>
        <time>2012-11-15T19:01:38Z</time>
      </trkpt>
      <trkpt lat="60.0262658" lon="15.85924">
        <ele>85.2</ele>
        <time>2012-11-15T19:01:39Z</time>
      </trkpt>
      <trkpt lat="60.0263518" lon="15.8593731">
        <ele>86.2</ele>
        <time>2012-11-15T19:01:42Z</time>
      </trkpt>
      <trkpt lat="60.0264484" lon="15.8595138">
        <ele>87.4</ele>
        <time>2012-11-15T19:01:46Z</time>
      </trkpt>
      <trkpt lat="60.0264988" lon="15.8595821">
        <ele>87.4</ele>
        <time>2012-11-15T19:01:48Z</time>
      </trkpt>
      <trkpt lat="60.0265269" lon="15.8596171">
        <ele>88.4</ele>
        <time>2012-11-15T19:01:49Z</time>
      </trkpt>
      <trkpt lat="60.0266043" lon="15.859709">
        <ele>89.6</ele>
        <time>2012-11-15T19:01:53Z</time>
      </trkpt>
      <trkpt lat="60.0267111" lon="15.8597835">
        <ele>90.6</ele>
        <time>2012-11-15T19:01:57Z</time>
      </trkpt>
      <trkpt lat="60.0267642" lon="15.8598097">
        <ele>90.6</ele>
        <time>2012-11-15T19:01:59Z</time>
      </trkpt>
      <trkpt lat="60.0268142" lon="15.8598299">
        <ele>91.6</ele>
        <time>2012-11-15T19:02:01Z</time>
      </trkpt>
      <trkpt lat="60.0269598" lon="15.8598786">
        <ele>92.6</ele>
        <time>2012-11-15T19:02:06Z</time>
      </trkpt>
      <trkpt lat="60.0269915" lon="15.8598881">
        <ele>92.6</ele>
        <time>2012-11-15T19:02:07Z</time>
      </trkpt>
      <trkpt lat="60.0270781" lon="15.8599136">
        <ele>93.6</ele>
        <time>2012-11-15T19:02:10Z</time>
      </trkpt>
      <trkpt lat="60.0271882" lon="15.8599572">
        <ele>93.6</ele>
        <time>2012-11-15T19:02:14Z</time>
      </trkpt>
      <trkpt lat="60.0273628" lon="15.8599856">
        <ele>94.8</ele>
        <time>2012-11-15T19:02:19Z</time>
      </trkpt>
      <trkpt lat="60.0274635" lon="15.8599931">
        <ele>94.8</ele>
        <time>2012-11-15T19:02:22Z</time>
      </trkpt>
      <trkpt lat="60.0277496" lon="15.8599619">
        <ele>94.8</ele>
        <time>2012-11-15T19:02:29Z</time>
      </trkpt>
      <trkpt lat="60.0280466" lon="15.8599443">
        <ele>94.8</ele>
        <time>2012-11-15T19:02:36Z</time>
      </trkpt>
      <trkpt lat="60.028335" lon="15.8600861">
        <ele>94.8</ele>
        <time>2012-11-15T19:02:43Z</time>
      </trkpt>
      <trkpt lat="60.0285961" lon="15.860369">
        <ele>94.8</ele>
        <time>2012-11-15T19:02:50Z</time>
      </trkpt>
      <trkpt lat="60.0288821" lon="15.860782">
        <ele>94.8</ele>
        <time>2012-11-15T19:02:58Z</time>
      </trkpt>
      <trkpt lat="60.0290755" lon="15.8610711">
        <ele>94.8</ele>
        <time>2012-11-15T19:03:03Z</time>
      </trkpt>
      <trkpt lat="60.0291633" lon="15.861148">
        <ele>94.8</ele>
        <time>2012-11-15T19:03:05Z</time>
      </trkpt>
      <trkpt lat="60.029451" lon="15.8612318">
        <ele>94.8</ele>
        <time>2012-11-15T19:03:11Z</time>
      </trkpt>
      <trkpt lat="60.0296089" lon="15.8612459">
        <ele>95.8</ele>
        <time>2012-11-15T19:03:15Z</time>
      </trkpt>
      <trkpt lat="60.0296886" lon="15.8612721">
        <ele>95.8</ele>
        <time>2012-11-15T19:03:17Z</time>
      </trkpt>
      <trkpt lat="60.0298326" lon="15.8613801">
        <ele>97</ele>
        <time>2012-11-15T19:03:21Z</time>
      </trkpt>
      <trkpt lat="60.0298958" lon="15.861453">
        <ele>97</ele>
        <time>2012-11-15T19:03:23Z</time>
      </trkpt>
      <trkpt lat="60.0301098" lon="15.8616922">
        <ele>97</ele>
        <time>2012-11-15T19:03:29Z</time>
      </trkpt>
      <trkpt lat="60.0301471" lon="15.8617302">
        <ele>97</ele>
        <time>2012-11-15T19:03:30Z</time>
      </trkpt>
      <trkpt lat="60.030288" lon="15.8618666">
        <ele>98</ele>
        <time>2012-11-15T19:03:34Z</time>
      </trkpt>
      <trkpt lat="60.0304528" lon="15.862004">
        <ele>98</ele>
        <time>2012-11-15T19:03:38Z</time>
      </trkpt>
      <trkpt lat="60.030534" lon="15.8620734">
        <ele>98</ele>
        <time>2012-11-15T19:03:40Z</time>
      </trkpt>
      <trkpt lat="60.0307361" lon="15.8622176">
        <ele>98</ele>
        <time>2012-11-15T19:03:45Z</time>
      </trkpt>
      <trkpt lat="60.0308139" lon="15.8622591">
        <ele>98</ele>
        <time>2012-11-15T19:03:47Z</time>
      </trkpt>
      <trkpt lat="60.0309912" lon="15.8623413">
        <ele>98</ele>
        <time>2012-11-15T19:03:51Z</time>
      </trkpt>
      <trkpt lat="60.0312934" lon="15.8625112">
        <ele>98</ele>
        <time>2012-11-15T19:03:58Z</time>
      </trkpt>
      <trkpt lat="60.0314027" lon="15.8625891">
        <ele>98</ele>
        <time>2012-11-15T19:04:00Z</time>
      </trkpt>
      <trkpt lat="60.0315699" lon="15.8627626">
        <ele>98</ele>
        <time>2012-11-15T19:04:04Z</time>
      </trkpt>
      <trkpt lat="60.0316064" lon="15.8628124">
        <ele>98</ele>
        <time>2012-11-15T19:04:05Z</time>
      </trkpt>
      <trkpt lat="60.0316714" lon="15.8628888">
        <ele>99</ele>
        <time>2012-11-15T19:04:07Z</time>
      </trkpt>
      <trkpt lat="60.0317441" lon="15.8628866">
        <ele>99</ele>
        <time>2012-11-15T19:04:09Z</time>
      </trkpt>
      <trkpt lat="60.0318621" lon="15.8626766">
        <ele>99</ele>
        <time>2012-11-15T19:04:13Z</time>
      </trkpt>
      <trkpt lat="60.0318943" lon="15.8626017">
        <ele>99</ele>
        <time>2012-11-15T19:04:14Z</time>
      </trkpt>
      <trkpt lat="60.0319555" lon="15.8624437">
        <ele>99</ele>
        <time>2012-11-15T19:04:16Z</time>
      </trkpt>
      <trkpt lat="60.0320399" lon="15.8621293">
        <ele>99</ele>
        <time>2012-11-15T19:04:19Z</time>
      </trkpt>
      <trkpt lat="60.032065" lon="15.8620169">
        <ele>96</ele>
        <time>2012-11-15T19:04:20Z</time>
      </trkpt>
      <trkpt lat="60.0321626" lon="15.8615783">
        <ele>95</ele>
        <time>2012-11-15T19:04:24Z</time>
      </trkpt>
      <trkpt lat="60.0322177" lon="15.8613059">
        <ele>95</ele>
        <time>2012-11-15T19:04:27Z</time>
      </trkpt>
      <trkpt lat="60.0323053" lon="15.8609579">
        <ele>95</ele>
        <time>2012-11-15T19:04:31Z</time>
      </trkpt>
      <trkpt lat="60.0323256" lon="15.8608592">
        <ele>95</ele>
        <time>2012-11-15T19:04:32Z</time>
      </trkpt>
      <trkpt lat="60.0324165" lon="15.8604761">
        <ele>95</ele>
        <time>2012-11-15T19:04:36Z</time>
      </trkpt>
      <trkpt lat="60.0324903" lon="15.8601697">
        <ele>95</ele>
        <time>2012-11-15T19:04:39Z</time>
      </trkpt>
      <trkpt lat="60.0325462" lon="15.8599566">
        <ele>94</ele>
        <time>2012-11-15T19:04:41Z</time>
      </trkpt>
      <trkpt lat="60.0326322" lon="15.8596254">
        <ele>93</ele>
        <time>2012-11-15T19:04:44Z</time>
      </trkpt>
      <trkpt lat="60.0326845" lon="15.8594211">
        <ele>91.8</ele>
        <time>2012-11-15T19:04:46Z</time>
      </trkpt>
      <trkpt lat="60.0327142" lon="15.8593008">
        <ele>91.8</ele>
        <time>2012-11-15T19:04:47Z</time>
      </trkpt>
      <trkpt lat="60.032741" lon="15.8591964">
        <ele>90.8</ele>
        <time>2012-11-15T19:04:48Z</time>
      </trkpt>
      <trkpt lat="60.032867" lon="15.8586869">
        <ele>89.4</ele>
        <time>2012-11-15T19:04:52Z</time>
      </trkpt>
      <trkpt lat="60.0328982" lon="15.8585592">
        <ele>89.4</ele>
        <time>2012-11-15T19:04:53Z</time>
      </trkpt>
      <trkpt lat="60.0329343" lon="15.8584133">
        <ele>88.4</ele>
        <time>2012-11-15T19:04:54Z</time>
      </trkpt>
      <trkpt lat="60.032999" lon="15.8581461">
        <ele>87.2</ele>
        <time>2012-11-15T19:04:56Z</time>
      </trkpt>
      <trkpt lat="60.0331539" lon="15.8575421">
        <ele>87.2</ele>
        <time>2012-11-15T19:05:00Z</time>
      </trkpt>
      <trkpt lat="60.0333003" lon="15.856992">
        <ele>84.8</ele>
        <time>2012-11-15T19:05:04Z</time>
      </trkpt>
      <trkpt lat="60.0333567" lon="15.8567444">
        <ele>84.8</ele>
        <time>2012-11-15T19:05:06Z</time>
      </trkpt>
      <trkpt lat="60.0333769" lon="15.8566213">
        <ele>83.8</ele>
        <time>2012-11-15T19:05:07Z</time>
      </trkpt>
      <trkpt lat="60.0333888" lon="15.8565042">
        <ele>83.8</ele>
        <time>2012-11-15T19:05:08Z</time>
      </trkpt>
      <trkpt lat="60.033409" lon="15.8561303">
        <ele>83.8</ele>
        <time>2012-11-15T19:05:11Z</time>
      </trkpt>
      <trkpt lat="60.0333899" lon="15.8558224">
        <ele>83.8</ele>
        <time>2012-11-15T19:05:13Z</time>
      </trkpt>
      <trkpt lat="60.033356" lon="15.8554761">
        <ele>83.8</ele>
        <time>2012-11-15T19:05:15Z</time>
      </trkpt>
      <trkpt lat="60.033343" lon="15.8553116">
        <ele>82.6</ele>
        <time>2012-11-15T19:05:16Z</time>
      </trkpt>
      <trkpt lat="60.0333194" lon="15.8549777">
        <ele>81.6</ele>
        <time>2012-11-15T19:05:18Z</time>
      </trkpt>
      <trkpt lat="60.0332912" lon="15.8546533">
        <ele>80.4</ele>
        <time>2012-11-15T19:05:20Z</time>
      </trkpt>
      <trkpt lat="60.0332703" lon="15.8545118">
        <ele>80.4</ele>
        <time>2012-11-15T19:05:21Z</time>
      </trkpt>
      <trkpt lat="60.0331673" lon="15.8536943">
        <ele>80.4</ele>
        <time>2012-11-15T19:05:27Z</time>
      </trkpt>
      <trkpt lat="60.0331618" lon="15.8536034">
        <ele>80.4</ele>
        <time>2012-11-15T19:05:28Z</time>
      </trkpt>
      <trkpt lat="60.0331238" lon="15.8531913">
        <ele>80.4</ele>
        <time>2012-11-15T19:05:31Z</time>
      </trkpt>
      <trkpt lat="60.033095" lon="15.8528976">
        <ele>80.4</ele>
        <time>2012-11-15T19:05:33Z</time>
        <extensions><gpxtpx:TrackPointExtension><gpxtpx:hr>82</gpxtpx:hr></gpxtpx:TrackPointExtension></extensions>
      </trkpt>
      <trkpt lat="60.0330821" lon="15.8527553">
        <ele>80.4</ele>
        <time>2012-11-15T19:05:34Z</time>
        <extensions><gpxtpx:TrackPointExtension><gpxtpx:hr>82</gpxtpx:hr></gpxtpx:TrackPointExtension></extensions>
      </trkpt>
      <trkpt lat="60.0330512" lon="15.8523206">
        <ele>80.4</ele>
        <time>2012-11-15T19:05:37Z</time>
        <extensions><gpxtpx:TrackPointExtension><gpxtpx:hr>82</gpxtpx:hr></gpxtpx:TrackPointExtension></extensions>
      </trkpt>
      <trkpt lat="60.032987" lon="15.851754">
        <ele>80.4</ele>
        <time>2012-11-15T19:05:42Z</time>
      </trkpt>
      <trkpt lat="60.0329635" lon="15.8516487">
        <ele>80.4</ele>
        <time>2012-11-15T19:05:43Z</time>
      </trkpt>
      <trkpt lat="60.032878" lon="15.8512594">
        <ele>80.4</ele>
        <time>2012-11-15T19:05:47Z</time>
      </trkpt>
      <trkpt lat="60.0328999" lon="15.8510628">
        <ele>78.2</ele>
        <time>2012-11-15T19:05:49Z</time>
      </trkpt>
      <trkpt lat="60.0329321" lon="15.8509825">
        <ele>78.2</ele>
        <time>2012-11-15T19:05:50Z</time>
      </trkpt>
      <trkpt lat="60.0329729" lon="15.8509064">
        <ele>77.2</ele>
        <time>2012-11-15T19:05:51Z</time>
      </trkpt>
      <trkpt lat="60.0330155" lon="15.8508349">
        <ele>77.2</ele>
        <time>2012-11-15T19:05:52Z</time>
      </trkpt>
      <trkpt lat="60.0331467" lon="15.8505853">
        <ele>77.2</ele>
        <time>2012-11-15T19:05:55Z</time>
        <extensions><gpxtpx:TrackPointExtension><gpxtpx:hr>82</gpxtpx:hr></gpxtpx:TrackPointExtension></extensions>
      </trkpt>
      <trkpt lat="60.0333479" lon="15.8502412">
        <ele>77.2</ele>
        <time>2012-11-15T19:06:00Z</time>
      </trkpt>
      <trkpt lat="60.0336884" lon="15.8496649">
        <ele>77.2</ele>
        <time>2012-11-15T19:06:09Z</time>
      </trkpt>
      <trkpt lat="60.0338774" lon="15.8493832">
        <ele>77.2</ele>
        <time>2012-11-15T19:06:14Z</time>
      </trkpt>
      <trkpt lat="60.0340007" lon="15.8492264">
        <ele>77.2</ele>
        <time>2012-11-15T19:06:17Z</time>
      </trkpt>
      <trkpt lat="60.0341267" lon="15.8490679">
        <ele>76</ele>
        <time>2012-11-15T19:06:20Z</time>
      </trkpt>
      <trkpt lat="60.0342376" lon="15.8489314">
        <ele>76</ele>
        <time>2012-11-15T19:06:23Z</time>
      </trkpt>
      <trkpt lat="60.0344507" lon="15.8486961">
        <ele>76</ele>
        <time>2012-11-15T19:06:29Z</time>
        <extensions><gpxtpx:TrackPointExtension><gpxtpx:hr>82</gpxtpx:hr></gpxtpx:TrackPointExtension></extensions>
      </trkpt>
      <trkpt lat="60.0344817" lon="15.8486661">
        <ele>76</ele>
        <time>2012-11-15T19:06:30Z</time>
        <extensions><gpxtpx:TrackPointExtension><gpxtpx:hr>73</gpxtpx:hr></gpxtpx:TrackPointExtension></extensions>
      </trkpt>
      <trkpt lat="60.0345144" lon="15.8486361">
        <ele>76</ele>
        <time>2012-11-15T19:06:31Z</time>
        <extensions><gpxtpx:TrackPointExtension><gpxtpx:hr>73</gpxtpx:hr></gpxtpx:TrackPointExtension></extensions>
      </trkpt>
      <trkpt lat="60.0346791" lon="15.8484604">
        <ele>76</ele>
        <time>2012-11-15T19:06:36Z</time>
      </trkpt>
      <trkpt lat="60.0349482" lon="15.8481625">
        <ele>76</ele>
        <time>2012-11-15T19:06:43Z</time>
        <extensions><gpxtpx:TrackPointExtension><gpxtpx:hr>73</gpxtpx:hr></gpxtpx:TrackPointExtension></extensions>
      </trkpt>
      <trkpt lat="60.0351971" lon="15.8478905">
        <ele>76</ele>
        <time>2012-11-15T19:06:49Z</time>
      </trkpt>
      <trkpt lat="60.035482" lon="15.8475708">
        <ele>76</ele>
        <time>2012-11-15T19:06:56Z</time>
      </trkpt>
      <trkpt lat="60.0356307" lon="15.8474062">
        <ele>76</ele>
        <time>2012-11-15T19:07:00Z</time>
      </trkpt>
      <trkpt lat="60.0358138" lon="15.8471897">
        <ele>76</ele>
        <time>2012-11-15T19:07:05Z</time>
      </trkpt>
      <trkpt lat="60.0358888" lon="15.8470945">
        <ele>79</ele>
        <time>2012-11-15T19:07:07Z</time>
      </trkpt>
      <trkpt lat="60.0360311" lon="15.8469333">
        <ele>80</ele>
        <time>2012-11-15T19:07:11Z</time>
      </trkpt>
      <trkpt lat="60.0361351" lon="15.8468232">
        <ele>80</ele>
        <time>2012-11-15T19:07:14Z</time>
      </trkpt>
      <trkpt lat="60.0362456" lon="15.8466998">
        <ele>81</ele>
        <time>2012-11-15T19:07:17Z</time>
      </trkpt>
      <trkpt lat="60.0363954" lon="15.8465446">
        <ele>81</ele>
        <time>2012-11-15T19:07:21Z</time>
      </trkpt>
      <trkpt lat="60.0364751" lon="15.8464522">
        <ele>81</ele>
        <time>2012-11-15T19:07:23Z</time>
      </trkpt>
      <trkpt lat="60.0366334" lon="15.8462788">
        <ele>81</ele>
        <time>2012-11-15T19:07:27Z</time>
      </trkpt>
      <trkpt lat="60.0367103" lon="15.8461945">
        <ele>82</ele>
        <time>2012-11-15T19:07:29Z</time>
      </trkpt>
      <trkpt lat="60.03687" lon="15.8460158">
        <ele>83</ele>
        <time>2012-11-15T19:07:34Z</time>
      </trkpt>
      <trkpt lat="60.0371804" lon="15.8456527">
        <ele>83</ele>
        <time>2012-11-15T19:07:42Z</time>
      </trkpt>
      <trkpt lat="60.0373681" lon="15.8453578">
        <ele>83</ele>
        <time>2012-11-15T19:07:47Z</time>
      </trkpt>
      <trkpt lat="60.0373982" lon="15.8452929">
        <ele>83</ele>
        <time>2012-11-15T19:07:48Z</time>
      </trkpt>
      <trkpt lat="60.0374815" lon="15.8450701">
        <ele>83</ele>
        <time>2012-11-15T19:07:51Z</time>
      </trkpt>
      <trkpt lat="60.0375207" lon="15.844926">
        <ele>83</ele>
        <time>2012-11-15T19:07:53Z</time>
      </trkpt>
      <trkpt lat="60.0375369" lon="15.8448437">
        <ele>83</ele>
        <time>2012-11-15T19:07:54Z</time>
      </trkpt>
      <trkpt lat="60.0376235" lon="15.8444292">
        <ele>84.2</ele>
        <time>2012-11-15T19:07:59Z</time>
      </trkpt>
      <trkpt lat="60.0376352" lon="15.8443396">
        <ele>84.2</ele>
        <time>2012-11-15T19:08:00Z</time>
      </trkpt>
      <trkpt lat="60.0376515" lon="15.8442501">
        <ele>84.2</ele>
        <time>2012-11-15T19:08:01Z</time>
      </trkpt>
      <trkpt lat="60.0376662" lon="15.8441604">
        <ele>84.2</ele>
        <time>2012-11-15T19:08:02Z</time>
        <extensions><gpxtpx:TrackPointExtension><gpxtpx:hr>64</gpxtpx:hr></gpxtpx:TrackPointExtension></extensions>
      </trkpt>
      <trkpt lat="60.0376774" lon="15.8440759">
        <ele>84.2</ele>
        <time>2012-11-15T19:08:03Z</time>
        <extensions><gpxtpx:TrackPointExtension><gpxtpx:hr>64</gpxtpx:hr></gpxtpx:TrackPointExtension></extensions>
      </trkpt>
      <trkpt lat="60.0376955" lon="15.8439932">
        <ele>84.2</ele>
        <time>2012-11-15T19:08:04Z</time>
        <extensions><gpxtpx:TrackPointExtension><gpxtpx:hr>64</gpxtpx:hr></gpxtpx:TrackPointExtension></extensions>
      </trkpt>
      <trkpt lat="60.0377508" lon="15.8437537">
        <ele>84.2</ele>
        <time>2012-11-15T19:08:07Z</time>
      </trkpt>
      <trkpt lat="60.0378908" lon="15.8430207">
        <ele>84.2</ele>
        <time>2012-11-15T19:08:16Z</time>
      </trkpt>
      <trkpt lat="60.0379795" lon="15.8425925">
        <ele>85.2</ele>
        <time>2012-11-15T19:08:21Z</time>
      </trkpt>
      <trkpt lat="60.0380474" lon="15.8423623">
        <ele>85.2</ele>
        <time>2012-11-15T19:08:24Z</time>
      </trkpt>
      <trkpt lat="60.038241" lon="15.8419088">
        <ele>85.2</ele>
        <time>2012-11-15T19:08:30Z</time>
      </trkpt>
      <trkpt lat="60.0382793" lon="15.8418463">
        <ele>85.2</ele>
        <time>2012-11-15T19:08:31Z</time>
      </trkpt>
      <trkpt lat="60.0384593" lon="15.8414978">
        <ele>85.2</ele>
        <time>2012-11-15T19:08:36Z</time>
      </trkpt>
      <trkpt lat="60.0387186" lon="15.8410598">
        <ele>85.2</ele>
        <time>2012-11-15T19:08:43Z</time>
      </trkpt>
      <trkpt lat="60.0389022" lon="15.8408757">
        <ele>85.2</ele>
        <time>2012-11-15T19:08:47Z</time>
      </trkpt>
      <trkpt lat="60.0390027" lon="15.8408156">
        <ele>85.2</ele>
        <time>2012-11-15T19:08:49Z</time>
      </trkpt>
      <trkpt lat="60.0392402" lon="15.8407225">
        <ele>85.2</ele>
        <time>2012-11-15T19:08:54Z</time>
        <extensions><gpxtpx:TrackPointExtension><gpxtpx:hr>57</gpxtpx:hr></gpxtpx:TrackPointExtension></extensions>
      </trkpt>
      <trkpt lat="60.0392822" lon="15.8407094">
        <ele>85.2</ele>
        <time>2012-11-15T19:08:55Z</time>
        <extensions><gpxtpx:TrackPointExtension><gpxtpx:hr>57</gpxtpx:hr></gpxtpx:TrackPointExtension></extensions>
      </trkpt>
      <trkpt lat="60.03932" lon="15.8406916">
        <ele>85.2</ele>
        <time>2012-11-15T19:08:56Z</time>
        <extensions><gpxtpx:TrackPointExtension><gpxtpx:hr>57</gpxtpx:hr></gpxtpx:TrackPointExtension></extensions>
      </trkpt>
      <trkpt lat="60.0394612" lon="15.8406188">
        <ele>85.2</ele>
        <time>2012-11-15T19:09:01Z</time>
      </trkpt>
      <trkpt lat="60.0396036" lon="15.840553">
        <ele>86.2</ele>
        <time>2012-11-15T19:09:06Z</time>
      </trkpt>
      <trkpt lat="60.0396608" lon="15.840525">
        <ele>86.2</ele>
        <time>2012-11-15T19:09:08Z</time>
      </trkpt>
      <trkpt lat="60.0397181" lon="15.8404944">
        <ele>87.2</ele>
        <time>2012-11-15T19:09:10Z</time>
      </trkpt>
      <trkpt lat="60.0397806" lon="15.8404652">
        <ele>88.4</ele>
        <time>2012-11-15T19:09:12Z</time>
      </trkpt>
      <trkpt lat="60.039924" lon="15.840384">
        <ele>88.4</ele>
        <time>2012-11-15T19:09:17Z</time>
      </trkpt>
      <trkpt lat="60.0399495" lon="15.8403681">
        <ele>89.4</ele>
        <time>2012-11-15T19:09:18Z</time>
      </trkpt>
      <trkpt lat="60.0400412" lon="15.8403246">
        <ele>89.4</ele>
        <time>2012-11-15T19:09:21Z</time>
        <extensions><gpxtpx:TrackPointExtension><gpxtpx:hr>50</gpxtpx:hr></gpxtpx:TrackPointExtension></extensions>
      </trkpt>
      <trkpt lat="60.0400727" lon="15.8403115">
        <ele>89.4</ele>
        <time>2012-11-15T19:09:22Z</time>
        <extensions><gpxtpx:TrackPointExtension><gpxtpx:hr>50</gpxtpx:hr></gpxtpx:TrackPointExtension></extensions>
      </trkpt>
      <trkpt lat="60.0401139" lon="15.8402885">
        <ele>89.4</ele>
        <time>2012-11-15T19:09:23Z</time>
        <extensions><gpxtpx:TrackPointExtension><gpxtpx:hr>50</gpxtpx:hr></gpxtpx:TrackPointExtension></extensions>
      </trkpt>
      <trkpt lat="60.0403071" lon="15.8402024">
        <ele>89.4</ele>
        <time>2012-11-15T19:09:28Z</time>
      </trkpt>
      <trkpt lat="60.0405016" lon="15.8401747">
        <ele>89.4</ele>
        <time>2012-11-15T19:09:33Z</time>
      </trkpt>
      <trkpt lat="60.0405461" lon="15.840182">
        <ele>89.4</ele>
        <time>2012-11-15T19:09:34Z</time>
      </trkpt>
      <trkpt lat="60.0407219" lon="15.8402484">
        <ele>89.4</ele>
        <time>2012-11-15T19:09:38Z</time>
      </trkpt>
      <trkpt lat="60.0407621" lon="15.8402863">
        <ele>89.4</ele>
        <time>2012-11-15T19:09:39Z</time>
      </trkpt>
      <trkpt lat="60.0408624" lon="15.8403786">
        <ele>89.4</ele>
        <time>2012-11-15T19:09:42Z</time>
      </trkpt>
      <trkpt lat="60.0410117" lon="15.8405304">
        <ele>89.4</ele>
        <time>2012-11-15T19:09:47Z</time>
      </trkpt>
      <trkpt lat="60.0411567" lon="15.8406453">
        <ele>89.4</ele>
        <time>2012-11-15T19:09:51Z</time>
      </trkpt>
      <trkpt lat="60.0412827" lon="15.8407303">
        <ele>89.4</ele>
        <time>2012-11-15T19:09:54Z</time>
      </trkpt>
      <trkpt lat="60.0415591" lon="15.8408904">
        <ele>89.4</ele>
        <time>2012-11-15T19:10:00Z</time>
      </trkpt>
      <trkpt lat="60.041765" lon="15.8408702">
        <ele>89.4</ele>
        <time>2012-11-15T19:10:04Z</time>
      </trkpt>
      <trkpt lat="60.0419948" lon="15.8407737">
        <ele>89.4</ele>
        <time>2012-11-15T19:10:09Z</time>
      </trkpt>
      <trkpt lat="60.0422073" lon="15.8406878">
        <ele>90.6</ele>
        <time>2012-11-15T19:10:15Z</time>
      </trkpt>
      <trkpt lat="60.0422367" lon="15.8406787">
        <ele>90.6</ele>
        <time>2012-11-15T19:10:16Z</time>
      </trkpt>
      <trkpt lat="60.0423217" lon="15.840654">
        <ele>91.6</ele>
        <time>2012-11-15T19:10:19Z</time>
      </trkpt>
      <trkpt lat="60.0423456" lon="15.8406447">
        <ele>91.6</ele>
        <time>2012-11-15T19:10:20Z</time>
        <extensions><gpxtpx:TrackPointExtension><gpxtpx:hr>44</gpxtpx:hr></gpxtpx:TrackPointExtension></extensions>
      </trkpt>
      <trkpt lat="60.0423675" lon="15.8406328">
        <ele>91.6</ele>
        <time>2012-11-15T19:10:21Z</time>
        <extensions><gpxtpx:TrackPointExtension><gpxtpx:hr>44</gpxtpx:hr></gpxtpx:TrackPointExtension></extensions>
      </trkpt>
      <trkpt lat="60.0424134" lon="15.8406107">
        <ele>91.6</ele>
        <time>2012-11-15T19:10:23Z</time>
        <extensions><gpxtpx:TrackPointExtension><gpxtpx:hr>44</gpxtpx:hr></gpxtpx:TrackPointExtension></extensions>
      </trkpt>
      <trkpt lat="60.0424649" lon="15.8405922">
        <ele>92.6</ele>
        <time>2012-11-15T19:10:25Z</time>
        <extensions><gpxtpx:TrackPointExtension><gpxtpx:hr>44</gpxtpx:hr></gpxtpx:TrackPointExtension></extensions>
      </trkpt>
      <trkpt lat="60.0425683" lon="15.8405494">
        <ele>92.6</ele>
        <time>2012-11-15T19:10:29Z</time>
        <extensions><gpxtpx:TrackPointExtension><gpxtpx:hr>44</gpxtpx:hr></gpxtpx:TrackPointExtension></extensions>
      </trkpt>
      <trkpt lat="60.0426181" lon="15.8405298">
        <ele>93.6</ele>
        <time>2012-11-15T19:10:31Z</time>
        <extensions><gpxtpx:TrackPointExtension><gpxtpx:hr>44</gpxtpx:hr></gpxtpx:TrackPointExtension></extensions>
      </trkpt>
      <trkpt lat="60.0427548" lon="15.8404748">
        <ele>94.8</ele>
        <time>2012-11-15T19:10:36Z</time>
      </trkpt>
      <trkpt lat="60.0428658" lon="15.8404351">
        <ele>95.8</ele>
        <time>2012-11-15T19:10:40Z</time>
      </trkpt>
      <trkpt lat="60.0429709" lon="15.8403963">
        <ele>95.8</ele>
        <time>2012-11-15T19:10:44Z</time>
      </trkpt>
      <trkpt lat="60.0430868" lon="15.8403467">
        <ele>97</ele>
        <time>2012-11-15T19:10:49Z</time>
      </trkpt>
      <trkpt lat="60.0431385" lon="15.8403318">
        <ele>97</ele>
        <time>2012-11-15T19:10:51Z</time>
        <extensions><gpxtpx:TrackPointExtension><gpxtpx:hr>44</gpxtpx:hr></gpxtpx:TrackPointExtension></extensions>
      </trkpt>
      <trkpt lat="60.0432146" lon="15.8403107">
        <ele>98.2</ele>
        <time>2012-11-15T19:10:54Z</time>
        <extensions><gpxtpx:TrackPointExtension><gpxtpx:hr>44</gpxtpx:hr></gpxtpx:TrackPointExtension></extensions>
      </trkpt>
      <trkpt lat="60.0433413" lon="15.8402719">
        <ele>99.2</ele>
        <time>2012-11-15T19:10:59Z</time>
        <extensions><gpxtpx:TrackPointExtension><gpxtpx:hr>44</gpxtpx:hr></gpxtpx:TrackPointExtension></extensions>
      </trkpt>
      <trkpt lat="60.0433663" lon="15.8402625">
        <ele>99.2</ele>
        <time>2012-11-15T19:11:00Z</time>
        <extensions><gpxtpx:TrackPointExtension><gpxtpx:hr>44</gpxtpx:hr></gpxtpx:TrackPointExtension></extensions>
      </trkpt>
      <trkpt lat="60.0434661" lon="15.840232">
        <ele>100.4</ele>
        <time>2012-11-15T19:11:04Z</time>
      </trkpt>
      <trkpt lat="60.0435793" lon="15.8401743">
        <ele>100.4</ele>
        <time>2012-11-15T19:11:08Z</time>
      </trkpt>
      <trkpt lat="60.043718" lon="15.8400785">
        <ele>101.4</ele>
        <time>2012-11-15T19:11:13Z</time>
      </trkpt>
      <trkpt lat="60.0437961" lon="15.8400267">
        <ele>101.4</ele>
        <time>2012-11-15T19:11:16Z</time>
      </trkpt>
      <trkpt lat="60.0439375" lon="15.8399253">
        <ele>102.4</ele>
        <time>2012-11-15T19:11:21Z</time>
      </trkpt>
      <trkpt lat="60.0440119" lon="15.839848">
        <ele>103.6</ele>
        <time>2012-11-15T19:11:24Z</time>
      </trkpt>
      <trkpt lat="60.0441783" lon="15.8395886">
        <ele>103.6</ele>
        <time>2012-11-15T19:11:31Z</time>
      </trkpt>
      <trkpt lat="60.0443768" lon="15.8392727">
        <ele>104.6</ele>
        <time>2012-11-15T19:11:39Z</time>
      </trkpt>
      <trkpt lat="60.0443992" lon="15.8392364">
        <ele>104.6</ele>
        <time>2012-11-15T19:11:40Z</time>
      </trkpt>
      <trkpt lat="60.0444872" lon="15.839075">
        <ele>105.6</ele>
        <time>2012-11-15T19:11:44Z</time>
      </trkpt>
      <trkpt lat="60.0445899" lon="15.8388369">
        <ele>105.6</ele>
        <time>2012-11-15T19:11:49Z</time>
      </trkpt>
      <trkpt lat="60.0447144" lon="15.8384436">
        <ele>105.6</ele>
        <time>2012-11-15T19:11:56Z</time>
      </trkpt>
      <trkpt lat="60.044743" lon="15.8379687">
        <ele>105.6</ele>
        <time>2012-11-15T19:12:02Z</time>
      </trkpt>
      <trkpt lat="60.0447563" lon="15.8374912">
        <ele>105.6</ele>
        <time>2012-11-15T19:12:08Z</time>
      </trkpt>
      <trkpt lat="60.0447775" lon="15.8368599">
        <ele>105.6</ele>
        <time>2012-11-15T19:12:16Z</time>
      </trkpt>
      <trkpt lat="60.0447559" lon="15.8365766">
        <ele>105.6</ele>
        <time>2012-11-15T19:12:19Z</time>
      </trkpt>
      <trkpt lat="60.0447192" lon="15.8363737">
        <ele>105.6</ele>
        <time>2012-11-15T19:12:21Z</time>
        <extensions><gpxtpx:TrackPointExtension><gpxtpx:hr>44</gpxtpx:hr></gpxtpx:TrackPointExtension></extensions>
      </trkpt>
      <trkpt lat="60.0447002" lon="15.8362906">
        <ele>102.6</ele>
        <time>2012-11-15T19:12:22Z</time>
        <extensions><gpxtpx:TrackPointExtension><gpxtpx:hr>44</gpxtpx:hr></gpxtpx:TrackPointExtension></extensions>
      </trkpt>
      <trkpt lat="60.0446727" lon="15.8361499">
        <ele>101.4</ele>
        <time>2012-11-15T19:12:23Z</time>
        <extensions><gpxtpx:TrackPointExtension><gpxtpx:hr>44</gpxtpx:hr></gpxtpx:TrackPointExtension></extensions>
      </trkpt>
      <trkpt lat="60.0446197" lon="15.8358726">
        <ele>101.4</ele>
        <time>2012-11-15T19:12:25Z</time>
        <extensions><gpxtpx:TrackPointExtension><gpxtpx:hr>44</gpxtpx:hr></gpxtpx:TrackPointExtension></extensions>
      </trkpt>
      <trkpt lat="60.0445708" lon="15.835635">
        <ele>100.4</ele>
        <time>2012-11-15T19:12:27Z</time>
      </trkpt>
      <trkpt lat="60.0445278" lon="15.835436">
        <ele>99.2</ele>
        <time>2012-11-15T19:12:29Z</time>
        <extensions><gpxtpx:TrackPointExtension><gpxtpx:hr>44</gpxtpx:hr></gpxtpx:TrackPointExtension></extensions>
      </trkpt>
      <trkpt lat="60.0445012" lon="15.8353203">
        <ele>99.2</ele>
        <time>2012-11-15T19:12:30Z</time>
        <extensions><gpxtpx:TrackPointExtension><gpxtpx:hr>44</gpxtpx:hr></gpxtpx:TrackPointExtension></extensions>
      </trkpt>
      <trkpt lat="60.0444297" lon="15.8350361">
        <ele>98</ele>
        <time>2012-11-15T19:12:33Z</time>
        <extensions><gpxtpx:TrackPointExtension><gpxtpx:hr>44</gpxtpx:hr></gpxtpx:TrackPointExtension></extensions>
      </trkpt>
      <trkpt lat="60.0443693" lon="15.8347764">
        <ele>98</ele>
        <time>2012-11-15T19:12:36Z</time>
        <extensions><gpxtpx:TrackPointExtension><gpxtpx:hr>44</gpxtpx:hr></gpxtpx:TrackPointExtension></extensions>
      </trkpt>
      <trkpt lat="60.0443467" lon="15.8346919">
        <ele>98</ele>
        <time>2012-11-15T19:12:37Z</time>
        <extensions><gpxtpx:TrackPointExtension><gpxtpx:hr>44</gpxtpx:hr></gpxtpx:TrackPointExtension></extensions>
      </trkpt>
      <trkpt lat="60.0442547" lon="15.8342947">
        <ele>98</ele>
        <time>2012-11-15T19:12:41Z</time>
      </trkpt>
      <trkpt lat="60.0442282" lon="15.834196">
        <ele>98</ele>
        <time>2012-11-15T19:12:42Z</time>
      </trkpt>
      <trkpt lat="60.044175" lon="15.8339436">
        <ele>97</ele>
        <time>2012-11-15T19:12:45Z</time>
      </trkpt>
      <trkpt lat="60.0441644" lon="15.8338691">
        <ele>97</ele>
        <time>2012-11-15T19:12:46Z</time>
      </trkpt>
      <trkpt lat="60.0441658" lon="15.8337455">
        <ele>97</ele>
        <time>2012-11-15T19:12:48Z</time>
      </trkpt>
      <trkpt lat="60.0441831" lon="15.8337128">
        <ele>97</ele>
        <time>2012-11-15T19:12:49Z</time>
      </trkpt>
      <trkpt lat="60.0442615" lon="15.8337267">
        <ele>97</ele>
        <time>2012-11-15T19:12:52Z</time>
      </trkpt>
      <trkpt lat="60.0442859" lon="15.8337513">
        <ele>96</ele>
        <time>2012-11-15T19:12:53Z</time>
      </trkpt>
      <trkpt lat="60.0444398" lon="15.833916">
        <ele>96</ele>
        <time>2012-11-15T19:12:58Z</time>
      </trkpt>
      <trkpt lat="60.0447007" lon="15.8342096">
        <ele>96</ele>
        <time>2012-11-15T19:13:05Z</time>
      </trkpt>
      <trkpt lat="60.0448497" lon="15.8343669">
        <ele>96</ele>
        <time>2012-11-15T19:13:09Z</time>
      </trkpt>
      <trkpt lat="60.0448834" lon="15.8343998">
        <ele>96</ele>
        <time>2012-11-15T19:13:10Z</time>
      </trkpt>
      <trkpt lat="60.0449907" lon="15.8345109">
        <ele>96</ele>
        <time>2012-11-15T19:13:13Z</time>
      </trkpt>
      <trkpt lat="60.0450884" lon="15.8346091">
        <ele>96</ele>
        <time>2012-11-15T19:13:16Z</time>
      </trkpt>
      <trkpt lat="60.0452175" lon="15.8347302">
        <ele>96</ele>
        <time>2012-11-15T19:13:20Z</time>
      </trkpt>
      <trkpt lat="60.0454767" lon="15.8349383">
        <ele>96</ele>
        <time>2012-11-15T19:13:27Z</time>
      </trkpt>
      <trkpt lat="60.0457146" lon="15.8351241">
        <ele>96</ele>
        <time>2012-11-15T19:13:33Z</time>
      </trkpt>
      <trkpt lat="60.0460065" lon="15.835362">
        <ele>96</ele>
        <time>2012-11-15T19:13:40Z</time>
      </trkpt>
      <trkpt lat="60.046253" lon="15.8355364">
        <ele>99</ele>
        <time>2012-11-15T19:13:46Z</time>
      </trkpt>
      <trkpt lat="60.0463305" lon="15.8355885">
        <ele>99</ele>
        <time>2012-11-15T19:13:48Z</time>
      </trkpt>
      <trkpt lat="60.0466716" lon="15.8357393">
        <ele>99</ele>
        <time>2012-11-15T19:13:56Z</time>
      </trkpt>
      <trkpt lat="60.0468574" lon="15.8357868">
        <ele>99</ele>
        <time>2012-11-15T19:14:00Z</time>
      </trkpt>
      <trkpt lat="60.0470894" lon="15.8358572">
        <ele>99</ele>
        <time>2012-11-15T19:14:05Z</time>
      </trkpt>
      <trkpt lat="60.0474565" lon="15.8359713">
        <ele>99</ele>
        <time>2012-11-15T19:14:13Z</time>
      </trkpt>
      <trkpt lat="60.0475596" lon="15.8360209">
        <ele>99</ele>
        <time>2012-11-15T19:14:15Z</time>
      </trkpt>
      <trkpt lat="60.0476477" lon="15.8360988">
        <ele>100</ele>
        <time>2012-11-15T19:14:17Z</time>
      </trkpt>
      <trkpt lat="60.047729" lon="15.8361892">
        <ele>100</ele>
        <time>2012-11-15T19:14:19Z</time>
      </trkpt>
      <trkpt lat="60.0478751" lon="15.8363841">
        <ele>100</ele>
        <time>2012-11-15T19:14:23Z</time>
      </trkpt>
      <trkpt lat="60.048168" lon="15.8368268">
        <ele>101</ele>
        <time>2012-11-15T19:14:31Z</time>
      </trkpt>
      <trkpt lat="60.0482036" lon="15.8368803">
        <ele>101</ele>
        <time>2012-11-15T19:14:32Z</time>
      </trkpt>
      <trkpt lat="60.0483347" lon="15.8370813">
        <ele>101</ele>
        <time>2012-11-15T19:14:36Z</time>
      </trkpt>
      <trkpt lat="60.048403" lon="15.8371736">
        <ele>102.2</ele>
        <time>2012-11-15T19:14:38Z</time>
      </trkpt>
      <trkpt lat="60.0484366" lon="15.8372209">
        <ele>102.2</ele>
        <time>2012-11-15T19:14:39Z</time>
      </trkpt>
      <trkpt lat="60.048647" lon="15.8373549">
        <ele>102.2</ele>
        <time>2012-11-15T19:14:45Z</time>
      </trkpt>
      <trkpt lat="60.0487489" lon="15.837238">
        <ele>102.2</ele>
        <time>2012-11-15T19:14:49Z</time>
        <extensions><gpxtpx:TrackPointExtension><gpxtpx:hr>44</gpxtpx:hr></gpxtpx:TrackPointExtension></extensions>
      </trkpt>
      <trkpt lat="60.0487707" lon="15.8372086">
        <ele>102.2</ele>
        <time>2012-11-15T19:14:53Z</time>
        <extensions><gpxtpx:TrackPointExtension><gpxtpx:hr>44</gpxtpx:hr></gpxtpx:TrackPointExtension></extensions>
      </trkpt>
      <trkpt lat="60.0488123" lon="15.8371314">
        <ele>102.2</ele>
        <time>2012-11-15T19:15:00Z</time>
        <extensions><gpxtpx:TrackPointExtension><gpxtpx:hr>44</gpxtpx:hr></gpxtpx:TrackPointExtension></extensions>
      </trkpt>
      <trkpt lat="60.0488493" lon="15.8370563">
        <ele>103.2</ele>
        <time>2012-11-15T19:15:02Z</time>
        <extensions><gpxtpx:TrackPointExtension><gpxtpx:hr>44</gpxtpx:hr></gpxtpx:TrackPointExtension></extensions>
      </trkpt>
      <trkpt lat="60.0488898" lon="15.8369082">
        <ele>103.2</ele>
        <time>2012-11-15T19:15:05Z</time>
      </trkpt>
      <trkpt lat="60.048986" lon="15.8364998">
        <ele>103.2</ele>
        <time>2012-11-15T19:15:11Z</time>
      </trkpt>
      <trkpt lat="60.0491598" lon="15.8358837">
        <ele>103.2</ele>
        <time>2012-11-15T19:15:19Z</time>
      </trkpt>
      <trkpt lat="60.0491989" lon="15.835722">
        <ele>103.2</ele>
        <time>2012-11-15T19:15:21Z</time>
      </trkpt>
      <trkpt lat="60.049271" lon="15.8354859">
        <ele>103.2</ele>
        <time>2012-11-15T19:15:24Z</time>
      </trkpt>
      <trkpt lat="60.0494978" lon="15.8347549">
        <ele>103.2</ele>
        <time>2012-11-15T19:15:33Z</time>
      </trkpt>
      <trkpt lat="60.0497506" lon="15.8339663">
        <ele>103.2</ele>
        <time>2012-11-15T19:15:42Z</time>
      </trkpt>
      <trkpt lat="60.0498639" lon="15.8333997">
        <ele>103.2</ele>
        <time>2012-11-15T19:15:48Z</time>
      </trkpt>
      <trkpt lat="60.0499237" lon="15.8326171">
        <ele>103.2</ele>
        <time>2012-11-15T19:15:56Z</time>
      </trkpt>
      <trkpt lat="60.0499949" lon="15.8317151">
        <ele>103.2</ele>
        <time>2012-11-15T19:16:05Z</time>
      </trkpt>
      <trkpt lat="60.0500786" lon="15.8308751">
        <ele>103.2</ele>
        <time>2012-11-15T19:16:14Z</time>
      </trkpt>
      <trkpt lat="60.0501735" lon="15.8300208">
        <ele>103.2</ele>
        <time>2012-11-15T19:16:22Z</time>
      </trkpt>
      <trkpt lat="60.0501987" lon="15.8297898">
        <ele>100</ele>
        <time>2012-11-15T19:16:24Z</time>
      </trkpt>
      <trkpt lat="60.0502668" lon="15.8291256">
        <ele>100</ele>
        <time>2012-11-15T19:16:30Z</time>
      </trkpt>
      <trkpt lat="60.0503188" lon="15.8284073">
        <ele>100</ele>
        <time>2012-11-15T19:16:37Z</time>
      </trkpt>
      <trkpt lat="60.0503603" lon="15.8279627">
        <ele>100</ele>
        <time>2012-11-15T19:16:43Z</time>
      </trkpt>
      <trkpt lat="60.0503776" lon="15.8278214">
        <ele>103.2</ele>
        <time>2012-11-15T19:16:45Z</time>
      </trkpt>
      <trkpt lat="60.0504028" lon="15.827614">
        <ele>103.2</ele>
        <time>2012-11-15T19:16:48Z</time>
      </trkpt>
      <trkpt lat="60.0504149" lon="15.8275474">
        <ele>104.4</ele>
        <time>2012-11-15T19:16:49Z</time>
      </trkpt>
      <trkpt lat="60.0504602" lon="15.827284">
        <ele>104.4</ele>
        <time>2012-11-15T19:16:53Z</time>
        <extensions><gpxtpx:TrackPointExtension><gpxtpx:hr>44</gpxtpx:hr></gpxtpx:TrackPointExtension></extensions>
      </trkpt>
      <trkpt lat="60.0504743" lon="15.8272126">
        <ele>105.4</ele>
        <time>2012-11-15T19:16:54Z</time>
        <extensions><gpxtpx:TrackPointExtension><gpxtpx:hr>44</gpxtpx:hr></gpxtpx:TrackPointExtension></extensions>
      </trkpt>
      <trkpt lat="60.0505796" lon="15.8267916">
        <ele>105.4</ele>
        <time>2012-11-15T19:17:00Z</time>
      </trkpt>
      <trkpt lat="60.0506643" lon="15.8265361">
        <ele>106.6</ele>
        <time>2012-11-15T19:17:04Z</time>
      </trkpt>
      <trkpt lat="60.0507651" lon="15.8263197">
        <ele>106.6</ele>
        <time>2012-11-15T19:17:08Z</time>
      </trkpt>
      <trkpt lat="60.0508509" lon="15.8261739">
        <ele>107.6</ele>
        <time>2012-11-15T19:17:11Z</time>
      </trkpt>
      <trkpt lat="60.051051" lon="15.8259227">
        <ele>107.6</ele>
        <time>2012-11-15T19:17:17Z</time>
      </trkpt>
      <trkpt lat="60.0512633" lon="15.8257089">
        <ele>108.8</ele>
        <time>2012-11-15T19:17:23Z</time>
      </trkpt>
      <trkpt lat="60.0513727" lon="15.8256021">
        <ele>108.8</ele>
        <time>2012-11-15T19:17:26Z</time>
      </trkpt>
      <trkpt lat="60.0517613" lon="15.8252441">
        <ele>108.8</ele>
        <time>2012-11-15T19:17:35Z</time>
      </trkpt>
      <trkpt lat="60.0520922" lon="15.8249385">
        <ele>105.4</ele>
        <time>2012-11-15T19:17:41Z</time>
      </trkpt>
      <trkpt lat="60.0522051" lon="15.8248329">
        <ele>105.4</ele>
        <time>2012-11-15T19:17:43Z</time>
      </trkpt>
      <trkpt lat="60.0523921" lon="15.8246585">
        <ele>104.4</ele>
        <time>2012-11-15T19:17:46Z</time>
      </trkpt>
      <trkpt lat="60.0526393" lon="15.8244607">
        <ele>103.4</ele>
        <time>2012-11-15T19:17:50Z</time>
      </trkpt>
      <trkpt lat="60.0526966" lon="15.8244134">
        <ele>103.4</ele>
        <time>2012-11-15T19:17:51Z</time>
      </trkpt>
      <trkpt lat="60.0528136" lon="15.8243156">
        <ele>102.4</ele>
        <time>2012-11-15T19:17:53Z</time>
      </trkpt>
      <trkpt lat="60.0529538" lon="15.8241596">
        <ele>102.4</ele>
        <time>2012-11-15T19:17:55Z</time>
      </trkpt>
      <trkpt lat="60.0530611" lon="15.8239867">
        <ele>102.4</ele>
        <time>2012-11-15T19:17:57Z</time>
      </trkpt>
      <trkpt lat="60.0531016" lon="15.8239021">
        <ele>101.2</ele>
        <time>2012-11-15T19:17:58Z</time>
      </trkpt>
      <trkpt lat="60.0532099" lon="15.823549">
        <ele>101.2</ele>
        <time>2012-11-15T19:18:01Z</time>
      </trkpt>
      <trkpt lat="60.053256" lon="15.8233074">
        <ele>101.2</ele>
        <time>2012-11-15T19:18:03Z</time>
      </trkpt>
      <trkpt lat="60.0532793" lon="15.8231742">
        <ele>100.2</ele>
        <time>2012-11-15T19:18:04Z</time>
      </trkpt>
      <trkpt lat="60.053335" lon="15.8227635">
        <ele>100.2</ele>
        <time>2012-11-15T19:18:07Z</time>
      </trkpt>
      <trkpt lat="60.0533647" lon="15.8225075">
        <ele>99.2</ele>
        <time>2012-11-15T19:18:09Z</time>
      </trkpt>
      <trkpt lat="60.0534451" lon="15.8217539">
        <ele>99.2</ele>
        <time>2012-11-15T19:18:15Z</time>
      </trkpt>
      <trkpt lat="60.0534906" lon="15.8212746">
        <ele>99.2</ele>
        <time>2012-11-15T19:18:19Z</time>
      </trkpt>
      <trkpt lat="60.05352" lon="15.8209427">
        <ele>99.2</ele>
        <time>2012-11-15T19:18:22Z</time>
        <extensions><gpxtpx:TrackPointExtension><gpxtpx:hr>44</gpxtpx:hr></gpxtpx:TrackPointExtension></extensions>
      </trkpt>
      <trkpt lat="60.0535999" lon="15.8200156">
        <ele>99.2</ele>
        <time>2012-11-15T19:18:30Z</time>
      </trkpt>
      <trkpt lat="60.0536506" lon="15.8192581">
        <ele>99.2</ele>
        <time>2012-11-15T19:18:37Z</time>
      </trkpt>
      <trkpt lat="60.0536835" lon="15.8185366">
        <ele>98.2</ele>
        <time>2012-11-15T19:18:43Z</time>
      </trkpt>
      <trkpt lat="60.0536862" lon="15.8184029">
        <ele>98.2</ele>
        <time>2012-11-15T19:18:44Z</time>
      </trkpt>
      <trkpt lat="60.0536808" lon="15.8177242">
        <ele>97</ele>
        <time>2012-11-15T19:18:49Z</time>
      </trkpt>
      <trkpt lat="60.0536689" lon="15.8174611">
        <ele>97</ele>
        <time>2012-11-15T19:18:51Z</time>
      </trkpt>
      <trkpt lat="60.0536716" lon="15.8168273">
        <ele>96</ele>
        <time>2012-11-15T19:18:56Z</time>
      </trkpt>
      <trkpt lat="60.0537138" lon="15.8159109">
        <ele>96</ele>
        <time>2012-11-15T19:19:03Z</time>
      </trkpt>
      <trkpt lat="60.0537296" lon="15.8156454">
        <ele>95</ele>
        <time>2012-11-15T19:19:05Z</time>
      </trkpt>
      <trkpt lat="60.0537825" lon="15.8148668">
        <ele>95</ele>
        <time>2012-11-15T19:19:11Z</time>
      </trkpt>
      <trkpt lat="60.053817" lon="15.8142208">
        <ele>94</ele>
        <time>2012-11-15T19:19:16Z</time>
      </trkpt>
      <trkpt lat="60.0538303" lon="15.8139754">
        <ele>94</ele>
        <time>2012-11-15T19:19:18Z</time>
      </trkpt>
      <trkpt lat="60.053831" lon="15.8130998">
        <ele>94</ele>
        <time>2012-11-15T19:19:25Z</time>
      </trkpt>
      <trkpt lat="60.0537636" lon="15.8122801">
        <ele>94</ele>
        <time>2012-11-15T19:19:32Z</time>
      </trkpt>
      <trkpt lat="60.0536689" lon="15.8113557">
        <ele>93</ele>
        <time>2012-11-15T19:19:40Z</time>
      </trkpt>
      <trkpt lat="60.0536671" lon="15.8109575">
        <ele>91.8</ele>
        <time>2012-11-15T19:19:43Z</time>
      </trkpt>
      <trkpt lat="60.053683" lon="15.810669">
        <ele>90.8</ele>
        <time>2012-11-15T19:19:45Z</time>
      </trkpt>
      <trkpt lat="60.0537286" lon="15.8102311">
        <ele>89.6</ele>
        <time>2012-11-15T19:19:48Z</time>
      </trkpt>
      <trkpt lat="60.0537839" lon="15.8097614">
        <ele>88.6</ele>
        <time>2012-11-15T19:19:51Z</time>
      </trkpt>
      <trkpt lat="60.0538792" lon="15.8093218">
        <ele>87.6</ele>
        <time>2012-11-15T19:19:54Z</time>
      </trkpt>
      <trkpt lat="60.05396" lon="15.8090457">
        <ele>87.6</ele>
        <time>2012-11-15T19:19:56Z</time>
        <extensions><gpxtpx:TrackPointExtension><gpxtpx:hr>44</gpxtpx:hr></gpxtpx:TrackPointExtension></extensions>
      </trkpt>
      <trkpt lat="60.054154" lon="15.8085477">
        <ele>87.6</ele>
        <time>2012-11-15T19:20:00Z</time>
        <extensions><gpxtpx:TrackPointExtension><gpxtpx:hr>44</gpxtpx:hr></gpxtpx:TrackPointExtension></extensions>
      </trkpt>
      <trkpt lat="60.0542052" lon="15.8084348">
        <ele>86.6</ele>
        <time>2012-11-15T19:20:01Z</time>
      </trkpt>
      <trkpt lat="60.0542573" lon="15.8083245">
        <ele>86.6</ele>
        <time>2012-11-15T19:20:02Z</time>
      </trkpt>
      <trkpt lat="60.054477" lon="15.807874">
        <ele>85.4</ele>
        <time>2012-11-15T19:20:06Z</time>
      </trkpt>
      <trkpt lat="60.0545897" lon="15.8076438">
        <ele>84.2</ele>
        <time>2012-11-15T19:20:08Z</time>
      </trkpt>
      <trkpt lat="60.0547535" lon="15.8073003">
        <ele>84.2</ele>
        <time>2012-11-15T19:20:11Z</time>
      </trkpt>
      <trkpt lat="60.0551244" lon="15.8065054">
        <ele>84.2</ele>
        <time>2012-11-15T19:20:19Z</time>
      </trkpt>
      <trkpt lat="60.0555148" lon="15.8056798">
        <ele>84.2</ele>
        <time>2012-11-15T19:20:28Z</time>
      </trkpt>
      <trkpt lat="60.0556053" lon="15.8054837">
        <ele>84.2</ele>
        <time>2012-11-15T19:20:30Z</time>
      </trkpt>
      <trkpt lat="60.0559875" lon="15.8046525">
        <ele>84.2</ele>
        <time>2012-11-15T19:20:40Z</time>
      </trkpt>
      <trkpt lat="60.0562076" lon="15.8040253">
        <ele>84.2</ele>
        <time>2012-11-15T19:20:47Z</time>
      </trkpt>
      <trkpt lat="60.0562948" lon="15.8034484">
        <ele>83.2</ele>
        <time>2012-11-15T19:20:52Z</time>
      </trkpt>
      <trkpt lat="60.0563177" lon="15.8031545">
        <ele>82</ele>
        <time>2012-11-15T19:20:54Z</time>
      </trkpt>
      <trkpt lat="60.0563212" lon="15.8028455">
        <ele>81</ele>
        <time>2012-11-15T19:20:56Z</time>
      </trkpt>
      <trkpt lat="60.0563223" lon="15.8025376">
        <ele>79.8</ele>
        <time>2012-11-15T19:20:58Z</time>
      </trkpt>
      <trkpt lat="60.0563356" lon="15.8022295">
        <ele>79.8</ele>
        <time>2012-11-15T19:21:00Z</time>
      </trkpt>
      <trkpt lat="60.0563433" lon="15.8020534">
        <ele>78.8</ele>
        <time>2012-11-15T19:21:01Z</time>
      </trkpt>
      <trkpt lat="60.056376" lon="15.8015683">
        <ele>77.8</ele>
        <time>2012-11-15T19:21:04Z</time>
      </trkpt>
      <trkpt lat="60.0564373" lon="15.8010888">
        <ele>77.8</ele>
        <time>2012-11-15T19:21:07Z</time>
      </trkpt>
      <trkpt lat="60.0565811" lon="15.800044">
        <ele>77.8</ele>
        <time>2012-11-15T19:21:14Z</time>
      </trkpt>
      <trkpt lat="60.0566063" lon="15.7993182">
        <ele>76.6</ele>
        <time>2012-11-15T19:21:19Z</time>
      </trkpt>
      <trkpt lat="60.0566121" lon="15.7990185">
        <ele>76.6</ele>
        <time>2012-11-15T19:21:21Z</time>
      </trkpt>
      <trkpt lat="60.0566177" lon="15.7988683">
        <ele>75.4</ele>
        <time>2012-11-15T19:21:22Z</time>
      </trkpt>
      <trkpt lat="60.0566715" lon="15.798383">
        <ele>74.4</ele>
        <time>2012-11-15T19:21:25Z</time>
      </trkpt>
      <trkpt lat="60.0566972" lon="15.798229">
        <ele>74.4</ele>
        <time>2012-11-15T19:21:26Z</time>
      </trkpt>
      <trkpt lat="60.0567298" lon="15.7980842">
        <ele>74.4</ele>
        <time>2012-11-15T19:21:27Z</time>
      </trkpt>
      <trkpt lat="60.0568444" lon="15.7977259">
        <ele>74.4</ele>
        <time>2012-11-15T19:21:30Z</time>
      </trkpt>
      <trkpt lat="60.0568885" lon="15.7976157">
        <ele>74.4</ele>
        <time>2012-11-15T19:21:31Z</time>
      </trkpt>
      <trkpt lat="60.0570298" lon="15.7973416">
        <ele>74.4</ele>
        <time>2012-11-15T19:21:34Z</time>
      </trkpt>
      <trkpt lat="60.0570842" lon="15.7972582">
        <ele>74.4</ele>
        <time>2012-11-15T19:21:35Z</time>
      </trkpt>
      <trkpt lat="60.0572488" lon="15.7970787">
        <ele>74.4</ele>
        <time>2012-11-15T19:21:38Z</time>
      </trkpt>
      <trkpt lat="60.0573122" lon="15.7970299">
        <ele>74.4</ele>
        <time>2012-11-15T19:21:39Z</time>
      </trkpt>
      <trkpt lat="60.0574405" lon="15.7969505">
        <ele>73.2</ele>
        <time>2012-11-15T19:21:41Z</time>
      </trkpt>
      <trkpt lat="60.0575598" lon="15.7968788">
        <ele>73.2</ele>
        <time>2012-11-15T19:21:43Z</time>
      </trkpt>
      <trkpt lat="60.0576294" lon="15.7968436">
        <ele>72.2</ele>
        <time>2012-11-15T19:21:44Z</time>
      </trkpt>
      <trkpt lat="60.057829" lon="15.796759">
        <ele>71.2</ele>
        <time>2012-11-15T19:21:47Z</time>
      </trkpt>
      <trkpt lat="60.0579719" lon="15.7967191">
        <ele>70</ele>
        <time>2012-11-15T19:21:49Z</time>
      </trkpt>
      <trkpt lat="60.0580449" lon="15.7967087">
        <ele>70</ele>
        <time>2012-11-15T19:21:50Z</time>
      </trkpt>
      <trkpt lat="60.0581974" lon="15.7967179">
        <ele>68.8</ele>
        <time>2012-11-15T19:21:52Z</time>
      </trkpt>
      <trkpt lat="60.0584283" lon="15.7967901">
        <ele>67.6</ele>
        <time>2012-11-15T19:21:55Z</time>
      </trkpt>
      <trkpt lat="60.0585861" lon="15.7968272">
        <ele>66.6</ele>
        <time>2012-11-15T19:21:57Z</time>
      </trkpt>
      <trkpt lat="60.0586584" lon="15.7968248">
        <ele>66.6</ele>
        <time>2012-11-15T19:21:58Z</time>
      </trkpt>
      <trkpt lat="60.0587519" lon="15.7968013">
        <ele>65.6</ele>
        <time>2012-11-15T19:21:59Z</time>
      </trkpt>
      <trkpt lat="60.0588242" lon="15.7967647">
        <ele>65.6</ele>
        <time>2012-11-15T19:22:00Z</time>
      </trkpt>
      <trkpt lat="60.0588987" lon="15.7967003">
        <ele>64.4</ele>
        <time>2012-11-15T19:22:01Z</time>
      </trkpt>
      <trkpt lat="60.0590237" lon="15.7965178">
        <ele>64.4</ele>
        <time>2012-11-15T19:22:03Z</time>
      </trkpt>
      <trkpt lat="60.0590702" lon="15.7964156">
        <ele>63.2</ele>
        <time>2012-11-15T19:22:04Z</time>
      </trkpt>
      <trkpt lat="60.0591593" lon="15.7961336">
        <ele>63.2</ele>
        <time>2012-11-15T19:22:06Z</time>
      </trkpt>
      <trkpt lat="60.0592503" lon="15.7955289">
        <ele>62.2</ele>
        <time>2012-11-15T19:22:10Z</time>
      </trkpt>
      <trkpt lat="60.0593719" lon="15.7945227">
        <ele>62.2</ele>
        <time>2012-11-15T19:22:17Z</time>
      </trkpt>
      <trkpt lat="60.0594537" lon="15.7937631">
        <ele>62.2</ele>
        <time>2012-11-15T19:22:23Z</time>
      </trkpt>
      <trkpt lat="60.0595487" lon="15.7929811">
        <ele>62.2</ele>
        <time>2012-11-15T19:22:30Z</time>
      </trkpt>
      <trkpt lat="60.0596392" lon="15.792359">
        <ele>62.2</ele>
        <time>2012-11-15T19:22:37Z</time>
      </trkpt>
      <trkpt lat="60.059724" lon="15.791653">
        <ele>62.2</ele>
        <time>2012-11-15T19:22:44Z</time>
      </trkpt>
      <trkpt lat="60.0598508" lon="15.7906952">
        <ele>62.2</ele>
        <time>2012-11-15T19:22:52Z</time>
      </trkpt>
      <trkpt lat="60.0599614" lon="15.7897458">
        <ele>62.2</ele>
        <time>2012-11-15T19:23:00Z</time>
      </trkpt>
      <trkpt lat="60.0600675" lon="15.7888481">
        <ele>62.2</ele>
        <time>2012-11-15T19:23:08Z</time>
      </trkpt>
      <trkpt lat="60.0601795" lon="15.787935">
        <ele>62.2</ele>
        <time>2012-11-15T19:23:16Z</time>
      </trkpt>
      <trkpt lat="60.0602087" lon="15.7877201">
        <ele>62.2</ele>
        <time>2012-11-15T19:23:18Z</time>
      </trkpt>
      <trkpt lat="60.060246" lon="15.7874153">
        <ele>62.2</ele>
        <time>2012-11-15T19:23:21Z</time>
      </trkpt>
      <trkpt lat="60.0602523" lon="15.7873218">
        <ele>62.2</ele>
        <time>2012-11-15T19:23:22Z</time>
      </trkpt>
      <trkpt lat="60.060262" lon="15.7869862">
        <ele>62.2</ele>
        <time>2012-11-15T19:23:25Z</time>
      </trkpt>
      <trkpt lat="60.0602552" lon="15.7868758">
        <ele>62.2</ele>
        <time>2012-11-15T19:23:26Z</time>
      </trkpt>
      <trkpt lat="60.0601576" lon="15.7863339">
        <ele>62.2</ele>
        <time>2012-11-15T19:23:31Z</time>
      </trkpt>
      <trkpt lat="60.0599212" lon="15.785503">
        <ele>62.2</ele>
        <time>2012-11-15T19:23:39Z</time>
      </trkpt>
      <trkpt lat="60.0596405" lon="15.7845308">
        <ele>62.2</ele>
        <time>2012-11-15T19:23:48Z</time>
      </trkpt>
      <trkpt lat="60.059608" lon="15.7844106">
        <ele>61</ele>
        <time>2012-11-15T19:23:49Z</time>
      </trkpt>
      <trkpt lat="60.0595754" lon="15.7842901">
        <ele>61</ele>
        <time>2012-11-15T19:23:50Z</time>
      </trkpt>
      <trkpt lat="60.0595137" lon="15.7840361">
        <ele>60</ele>
        <time>2012-11-15T19:23:52Z</time>
      </trkpt>
      <trkpt lat="60.0594263" lon="15.7836219">
        <ele>59</ele>
        <time>2012-11-15T19:23:55Z</time>
      </trkpt>
      <trkpt lat="60.0593962" lon="15.7834797">
        <ele>59</ele>
        <time>2012-11-15T19:23:56Z</time>
      </trkpt>
      <trkpt lat="60.0593002" lon="15.7829702">
        <ele>59</ele>
        <time>2012-11-15T19:24:00Z</time>
      </trkpt>
      <trkpt lat="60.0592072" lon="15.7825003">
        <ele>59</ele>
        <time>2012-11-15T19:24:04Z</time>
      </trkpt>
      <trkpt lat="60.0589592" lon="15.7815571">
        <ele>59</ele>
        <time>2012-11-15T19:24:13Z</time>
      </trkpt>
      <trkpt lat="60.058734" lon="15.781008">
        <ele>59</ele>
        <time>2012-11-15T19:24:19Z</time>
      </trkpt>
      <trkpt lat="60.0586959" lon="15.7809223">
        <ele>59</ele>
        <time>2012-11-15T19:24:20Z</time>
      </trkpt>
      <trkpt lat="60.0584618" lon="15.7804574">
        <ele>59</ele>
        <time>2012-11-15T19:24:26Z</time>
      </trkpt>
      <trkpt lat="60.0583408" lon="15.7802328">
        <ele>59</ele>
        <time>2012-11-15T19:24:29Z</time>
      </trkpt>
      <trkpt lat="60.0582693" lon="15.7800884">
        <ele>59</ele>
        <time>2012-11-15T19:24:31Z</time>
      </trkpt>
      <trkpt lat="60.0582102" lon="15.7799434">
        <ele>59</ele>
        <time>2012-11-15T19:24:33Z</time>
      </trkpt>
      <trkpt lat="60.0581087" lon="15.779711">
        <ele>59</ele>
        <time>2012-11-15T19:24:36Z</time>
      </trkpt>
      <trkpt lat="60.0580782" lon="15.7796331">
        <ele>59</ele>
        <time>2012-11-15T19:24:37Z</time>
      </trkpt>
      <trkpt lat="60.0580156" lon="15.779481">
        <ele>59</ele>
        <time>2012-11-15T19:24:39Z</time>
      </trkpt>
      <trkpt lat="60.0579288" lon="15.7792595">
        <ele>62.2</ele>
        <time>2012-11-15T19:24:42Z</time>
      </trkpt>
      <trkpt lat="60.0578995" lon="15.7791978">
        <ele>62.2</ele>
        <time>2012-11-15T19:24:43Z</time>
      </trkpt>
      <trkpt lat="60.0577311" lon="15.7788731">
        <ele>63.2</ele>
        <time>2012-11-15T19:24:48Z</time>
      </trkpt>
      <trkpt lat="60.0576545" lon="15.7787517">
        <ele>63.2</ele>
        <time>2012-11-15T19:24:50Z</time>
      </trkpt>
      <trkpt lat="60.0575007" lon="15.7785453">
        <ele>64.4</ele>
        <time>2012-11-15T19:24:54Z</time>
      </trkpt>
      <trkpt lat="60.0574252" lon="15.7784518">
        <ele>64.4</ele>
        <time>2012-11-15T19:24:56Z</time>
      </trkpt>
      <trkpt lat="60.0572708" lon="15.7782672">
        <ele>64.4</ele>
        <time>2012-11-15T19:25:00Z</time>
      </trkpt>
      <trkpt lat="60.0571908" lon="15.7781698">
        <ele>65.4</ele>
        <time>2012-11-15T19:25:02Z</time>
      </trkpt>
      <trkpt lat="60.0570753" lon="15.7780329">
        <ele>65.4</ele>
        <time>2012-11-15T19:25:05Z</time>
      </trkpt>
      <trkpt lat="60.0567289" lon="15.7777043">
        <ele>65.4</ele>
        <time>2012-11-15T19:25:13Z</time>
      </trkpt>
      <trkpt lat="60.0564165" lon="15.7775325">
        <ele>65.4</ele>
        <time>2012-11-15T19:25:19Z</time>
      </trkpt>
      <trkpt lat="60.0560507" lon="15.7773451">
        <ele>65.4</ele>
        <time>2012-11-15T19:25:26Z</time>
      </trkpt>
      <trkpt lat="60.0556046" lon="15.7770466">
        <ele>65.4</ele>
        <time>2012-11-15T19:25:35Z</time>
      </trkpt>
      <trkpt lat="60.0552552" lon="15.7766417">
        <ele>65.4</ele>
        <time>2012-11-15T19:25:43Z</time>
      </trkpt>
      <trkpt lat="60.0549583" lon="15.7761602">
        <ele>65.4</ele>
        <time>2012-11-15T19:25:50Z</time>
      </trkpt>
      <trkpt lat="60.0546324" lon="15.7755676">
        <ele>65.4</ele>
        <time>2012-11-15T19:25:58Z</time>
      </trkpt>
      <trkpt lat="60.0545369" lon="15.7754203">
        <ele>65.4</ele>
        <time>2012-11-15T19:26:00Z</time>
      </trkpt>
      <trkpt lat="60.0543034" lon="15.775061">
        <ele>65.4</ele>
        <time>2012-11-15T19:26:05Z</time>
      </trkpt>
      <trkpt lat="60.0540768" lon="15.7746721">
        <ele>62.4</ele>
        <time>2012-11-15T19:26:10Z</time>
      </trkpt>
      <trkpt lat="60.0538948" lon="15.7743618">
        <ele>62.4</ele>
        <time>2012-11-15T19:26:14Z</time>
      </trkpt>
      <trkpt lat="60.0538151" lon="15.7742374">
        <ele>61</ele>
        <time>2012-11-15T19:26:16Z</time>
      </trkpt>
      <trkpt lat="60.0537008" lon="15.774085">
        <ele>59.8</ele>
        <time>2012-11-15T19:26:19Z</time>
        <extensions><gpxtpx:TrackPointExtension><gpxtpx:hr>44</gpxtpx:hr></gpxtpx:TrackPointExtension></extensions>
      </trkpt>
      <trkpt lat="60.0536619" lon="15.7740362">
        <ele>59.8</ele>
        <time>2012-11-15T19:26:20Z</time>
        <extensions><gpxtpx:TrackPointExtension><gpxtpx:hr>44</gpxtpx:hr></gpxtpx:TrackPointExtension></extensions>
      </trkpt>
      <trkpt lat="60.0536228" lon="15.7739962">
        <ele>59.8</ele>
        <time>2012-11-15T19:26:21Z</time>
        <extensions><gpxtpx:TrackPointExtension><gpxtpx:hr>44</gpxtpx:hr></gpxtpx:TrackPointExtension></extensions>
      </trkpt>
      <trkpt lat="60.0535836" lon="15.7739597">
        <ele>58.8</ele>
        <time>2012-11-15T19:26:22Z</time>
        <extensions><gpxtpx:TrackPointExtension><gpxtpx:hr>44</gpxtpx:hr></gpxtpx:TrackPointExtension></extensions>
      </trkpt>
      <trkpt lat="60.0534045" lon="15.7738288">
        <ele>58.8</ele>
        <time>2012-11-15T19:26:26Z</time>
      </trkpt>
      <trkpt lat="60.0530607" lon="15.7736077">
        <ele>57.2</ele>
        <time>2012-11-15T19:26:33Z</time>
        <extensions><gpxtpx:TrackPointExtension><gpxtpx:hr>44</gpxtpx:hr></gpxtpx:TrackPointExtension></extensions>
      </trkpt>
      <trkpt lat="60.0526168" lon="15.7733218">
        <ele>57.2</ele>
        <time>2012-11-15T19:26:41Z</time>
        <extensions><gpxtpx:TrackPointExtension><gpxtpx:hr>44</gpxtpx:hr></gpxtpx:TrackPointExtension></extensions>
      </trkpt>
      <trkpt lat="60.0522991" lon="15.773149">
        <ele>56.2</ele>
        <time>2012-11-15T19:26:47Z</time>
      </trkpt>
      <trkpt lat="60.0521453" lon="15.7730731">
        <ele>56.2</ele>
        <time>2012-11-15T19:26:50Z</time>
      </trkpt>
      <trkpt lat="60.0518578" lon="15.7729278">
        <ele>55.2</ele>
        <time>2012-11-15T19:26:55Z</time>
      </trkpt>
      <trkpt lat="60.0517357" lon="15.7728431">
        <ele>55.2</ele>
        <time>2012-11-15T19:26:57Z</time>
      </trkpt>
      <trkpt lat="60.0516864" lon="15.7727984">
        <ele>54</ele>
        <time>2012-11-15T19:26:58Z</time>
      </trkpt>
      <trkpt lat="60.0515683" lon="15.7726684">
        <ele>54</ele>
        <time>2012-11-15T19:27:00Z</time>
      </trkpt>
      <trkpt lat="60.0515196" lon="15.7725968">
        <ele>54</ele>
        <time>2012-11-15T19:27:01Z</time>
      </trkpt>
      <trkpt lat="60.0514713" lon="15.7725173">
        <ele>53</ele>
        <time>2012-11-15T19:27:02Z</time>
      </trkpt>
      <trkpt lat="60.0514311" lon="15.7724357">
        <ele>53</ele>
        <time>2012-11-15T19:27:03Z</time>
      </trkpt>
      <trkpt lat="60.0512801" lon="15.7720113">
        <ele>51.8</ele>
        <time>2012-11-15T19:27:07Z</time>
      </trkpt>
      <trkpt lat="60.0512505" lon="15.7718997">
        <ele>51.8</ele>
        <time>2012-11-15T19:27:08Z</time>
      </trkpt>
      <trkpt lat="60.0510473" lon="15.7710824">
        <ele>51.8</ele>
        <time>2012-11-15T19:27:15Z</time>
      </trkpt>
      <trkpt lat="60.050915" lon="15.7706253">
        <ele>50.2</ele>
        <time>2012-11-15T19:27:19Z</time>
      </trkpt>
      <trkpt lat="60.0508317" lon="15.7703971">
        <ele>49.2</ele>
        <time>2012-11-15T19:27:21Z</time>
      </trkpt>
      <trkpt lat="60.050789" lon="15.7702921">
        <ele>49.2</ele>
        <time>2012-11-15T19:27:22Z</time>
      </trkpt>
      <trkpt lat="60.0507439" lon="15.7701912">
        <ele>48.2</ele>
        <time>2012-11-15T19:27:23Z</time>
      </trkpt>
      <trkpt lat="60.0505905" lon="15.7698679">
        <ele>47</ele>
        <time>2012-11-15T19:27:26Z</time>
      </trkpt>
      <trkpt lat="60.0505298" lon="15.7697379">
        <ele>45.6</ele>
        <time>2012-11-15T19:27:27Z</time>
      </trkpt>
      <trkpt lat="60.0504102" lon="15.7694946">
        <ele>45.6</ele>
        <time>2012-11-15T19:27:29Z</time>
      </trkpt>
      <trkpt lat="60.0503043" lon="15.7692852">
        <ele>44.6</ele>
        <time>2012-11-15T19:27:31Z</time>
      </trkpt>
      <trkpt lat="60.0499936" lon="15.7686304">
        <ele>44.6</ele>
        <time>2012-11-15T19:27:37Z</time>
      </trkpt>
      <trkpt lat="60.0498332" lon="15.7680934">
        <ele>44.6</ele>
        <time>2012-11-15T19:27:42Z</time>
      </trkpt>
      <trkpt lat="60.0497401" lon="15.7674608">
        <ele>44.6</ele>
        <time>2012-11-15T19:27:48Z</time>
      </trkpt>
      <trkpt lat="60.0496465" lon="15.7667736">
        <ele>44.6</ele>
        <time>2012-11-15T19:27:55Z</time>
      </trkpt>
      <trkpt lat="60.0495963" lon="15.766389">
        <ele>47.6</ele>
        <time>2012-11-15T19:28:00Z</time>
      </trkpt>
      <trkpt lat="60.0495868" lon="15.7663155">
        <ele>47.6</ele>
        <time>2012-11-15T19:28:01Z</time>
      </trkpt>
      <trkpt lat="60.0495462" lon="15.7660081">
        <ele>47.6</ele>
        <time>2012-11-15T19:28:05Z</time>
      </trkpt>
      <trkpt lat="60.0495383" lon="15.7659248">
        <ele>47.6</ele>
        <time>2012-11-15T19:28:06Z</time>
      </trkpt>
      <trkpt lat="60.0494506" lon="15.7653022">
        <ele>47.6</ele>
        <time>2012-11-15T19:28:13Z</time>
      </trkpt>
      <trkpt lat="60.0493239" lon="15.7647404">
        <ele>47.6</ele>
        <time>2012-11-15T19:28:19Z</time>
      </trkpt>
      <trkpt lat="60.0492938" lon="15.7646479">
        <ele>47.6</ele>
        <time>2012-11-15T19:28:20Z</time>
      </trkpt>
      <trkpt lat="60.0490738" lon="15.7641112">
        <ele>47.6</ele>
        <time>2012-11-15T19:28:27Z</time>
      </trkpt>
      <trkpt lat="60.0489444" lon="15.7638176">
        <ele>47.6</ele>
        <time>2012-11-15T19:28:31Z</time>
      </trkpt>
      <trkpt lat="60.0488864" lon="15.7636782">
        <ele>47.6</ele>
        <time>2012-11-15T19:28:33Z</time>
      </trkpt>
      <trkpt lat="60.0487923" lon="15.7635383">
        <ele>47.6</ele>
        <time>2012-11-15T19:28:37Z</time>
      </trkpt>
      <trkpt lat="60.0487064" lon="15.7635605">
        <ele>47.6</ele>
        <time>2012-11-15T19:28:41Z</time>
        <extensions><gpxtpx:TrackPointExtension><gpxtpx:hr>44</gpxtpx:hr></gpxtpx:TrackPointExtension></extensions>
      </trkpt>
      <trkpt lat="60.0485643" lon="15.763496">
        <ele>47.6</ele>
        <time>2012-11-15T19:28:46Z</time>
        <extensions><gpxtpx:TrackPointExtension><gpxtpx:hr>44</gpxtpx:hr></gpxtpx:TrackPointExtension></extensions>
      </trkpt>
      <trkpt lat="60.0485022" lon="15.7634945">
        <ele>48.6</ele>
        <time>2012-11-15T19:28:48Z</time>
        <extensions><gpxtpx:TrackPointExtension><gpxtpx:hr>44</gpxtpx:hr></gpxtpx:TrackPointExtension></extensions>
      </trkpt>
      <trkpt lat="60.048375" lon="15.7635396">
        <ele>48.6</ele>
        <time>2012-11-15T19:28:51Z</time>
      </trkpt>
      <trkpt lat="60.0482779" lon="15.7635827">
        <ele>48.6</ele>
        <time>2012-11-15T19:28:53Z</time>
      </trkpt>
      <trkpt lat="60.0481595" lon="15.7636078">
        <ele>48.6</ele>
        <time>2012-11-15T19:28:55Z</time>
      </trkpt>
      <trkpt lat="60.0480964" lon="15.7635999">
        <ele>48.6</ele>
        <time>2012-11-15T19:28:56Z</time>
      </trkpt>
      <trkpt lat="60.0478447" lon="15.7635361">
        <ele>48.6</ele>
        <time>2012-11-15T19:29:00Z</time>
      </trkpt>
      <trkpt lat="60.0477821" lon="15.7635254">
        <ele>45.6</ele>
        <time>2012-11-15T19:29:01Z</time>
      </trkpt>
      <trkpt lat="60.0477176" lon="15.7635161">
        <ele>45.6</ele>
        <time>2012-11-15T19:29:02Z</time>
      </trkpt>
      <trkpt lat="60.0475944" lon="15.7635027">
        <ele>44.6</ele>
        <time>2012-11-15T19:29:04Z</time>
      </trkpt>
      <trkpt lat="60.047344" lon="15.7635011">
        <ele>43.4</ele>
        <time>2012-11-15T19:29:08Z</time>
      </trkpt>
      <trkpt lat="60.0472148" lon="15.7634814">
        <ele>43.4</ele>
        <time>2012-11-15T19:29:10Z</time>
      </trkpt>
      <trkpt lat="60.0470113" lon="15.7634472">
        <ele>42.4</ele>
        <time>2012-11-15T19:29:13Z</time>
      </trkpt>
      <trkpt lat="60.0467467" lon="15.7633781">
        <ele>42.4</ele>
        <time>2012-11-15T19:29:17Z</time>
      </trkpt>
      <trkpt lat="60.0462187" lon="15.7632502">
        <ele>42.4</ele>
        <time>2012-11-15T19:29:26Z</time>
        <extensions><gpxtpx:TrackPointExtension><gpxtpx:hr>44</gpxtpx:hr></gpxtpx:TrackPointExtension></extensions>
      </trkpt>
      <trkpt lat="60.046163" lon="15.7632335">
        <ele>42.4</ele>
        <time>2012-11-15T19:29:27Z</time>
        <extensions><gpxtpx:TrackPointExtension><gpxtpx:hr>70</gpxtpx:hr></gpxtpx:TrackPointExtension></extensions>
      </trkpt>
      <trkpt lat="60.0461132" lon="15.7632195">
        <ele>42.4</ele>
        <time>2012-11-15T19:29:28Z</time>
        <extensions><gpxtpx:TrackPointExtension><gpxtpx:hr>70</gpxtpx:hr></gpxtpx:TrackPointExtension></extensions>
      </trkpt>
      <trkpt lat="60.0457976" lon="15.763111">
        <ele>42.4</ele>
        <time>2012-11-15T19:29:34Z</time>
      </trkpt>
      <trkpt lat="60.045687" lon="15.7630636">
        <ele>41.2</ele>
        <time>2012-11-15T19:29:36Z</time>
      </trkpt>
      <trkpt lat="60.0455719" lon="15.7630187">
        <ele>40.2</ele>
        <time>2012-11-15T19:29:38Z</time>
      </trkpt>
      <trkpt lat="60.045455" lon="15.7629714">
        <ele>40.2</ele>
        <time>2012-11-15T19:29:40Z</time>
        <extensions><gpxtpx:TrackPointExtension><gpxtpx:hr>70</gpxtpx:hr></gpxtpx:TrackPointExtension></extensions>
      </trkpt>
      <trkpt lat="60.0453889" lon="15.7629492">
        <ele>39</ele>
        <time>2012-11-15T19:29:41Z</time>
        <extensions><gpxtpx:TrackPointExtension><gpxtpx:hr>70</gpxtpx:hr></gpxtpx:TrackPointExtension></extensions>
      </trkpt>
      <trkpt lat="60.045332" lon="15.762919">
        <ele>39</ele>
        <time>2012-11-15T19:29:42Z</time>
        <extensions><gpxtpx:TrackPointExtension><gpxtpx:hr>70</gpxtpx:hr></gpxtpx:TrackPointExtension></extensions>
      </trkpt>
      <trkpt lat="60.0451651" lon="15.7628019">
        <ele>39</ele>
        <time>2012-11-15T19:29:45Z</time>
      </trkpt>
      <trkpt lat="60.0450978" lon="15.7627514">
        <ele>38</ele>
        <time>2012-11-15T19:29:46Z</time>
      </trkpt>
      <trkpt lat="60.0449151" lon="15.7626229">
        <ele>37</ele>
        <time>2012-11-15T19:29:49Z</time>
      </trkpt>
      <trkpt lat="60.0448379" lon="15.7625903">
        <ele>37</ele>
        <time>2012-11-15T19:29:50Z</time>
      </trkpt>
      <trkpt lat="60.0447064" lon="15.7625593">
        <ele>36</ele>
        <time>2012-11-15T19:29:52Z</time>
      </trkpt>
      <trkpt lat="60.0445073" lon="15.7625154">
        <ele>34.6</ele>
        <time>2012-11-15T19:29:55Z</time>
      </trkpt>
      <trkpt lat="60.0444535" lon="15.7624727">
        <ele>34.6</ele>
        <time>2012-11-15T19:29:56Z</time>
      </trkpt>
      <trkpt lat="60.0443974" lon="15.7624134">
        <ele>33.4</ele>
        <time>2012-11-15T19:29:57Z</time>
      </trkpt>
      <trkpt lat="60.0442187" lon="15.7622105">
        <ele>31.8</ele>
        <time>2012-11-15T19:30:00Z</time>
      </trkpt>
      <trkpt lat="60.0441509" lon="15.7621264">
        <ele>30.6</ele>
        <time>2012-11-15T19:30:01Z</time>
      </trkpt>
      <trkpt lat="60.0437767" lon="15.7616753">
        <ele>29.6</ele>
        <time>2012-11-15T19:30:07Z</time>
        <extensions><gpxtpx:TrackPointExtension><gpxtpx:hr>70</gpxtpx:hr></gpxtpx:TrackPointExtension></extensions>
      </trkpt>
      <trkpt lat="60.0437115" lon="15.761651">
        <ele>29.6</ele>
        <time>2012-11-15T19:30:08Z</time>
        <extensions><gpxtpx:TrackPointExtension><gpxtpx:hr>70</gpxtpx:hr></gpxtpx:TrackPointExtension></extensions>
      </trkpt>
      <trkpt lat="60.0435102" lon="15.761744">
        <ele>29.6</ele>
        <time>2012-11-15T19:30:11Z</time>
      </trkpt>
      <trkpt lat="60.0434487" lon="15.7617958">
        <ele>29.6</ele>
        <time>2012-11-15T19:30:12Z</time>
      </trkpt>
      <trkpt lat="60.0431553" lon="15.7619599">
        <ele>29.6</ele>
        <time>2012-11-15T19:30:17Z</time>
      </trkpt>
      <trkpt lat="60.0431076" lon="15.7619575">
        <ele>29.6</ele>
        <time>2012-11-15T19:30:18Z</time>
      </trkpt>
      <trkpt lat="60.0430031" lon="15.7619667">
        <ele>29.6</ele>
        <time>2012-11-15T19:30:20Z</time>
      </trkpt>
      <trkpt lat="60.0429535" lon="15.7619695">
        <ele>29.6</ele>
        <time>2012-11-15T19:30:21Z</time>
      </trkpt>
      <trkpt lat="60.0427399" lon="15.761989">
        <ele>29.6</ele>
        <time>2012-11-15T19:30:25Z</time>
      </trkpt>
      <trkpt lat="60.0426381" lon="15.761981">
        <ele>29.6</ele>
        <time>2012-11-15T19:30:27Z</time>
      </trkpt>
      <trkpt lat="60.042438" lon="15.7619437">
        <ele>29.6</ele>
        <time>2012-11-15T19:30:31Z</time>
      </trkpt>
      <trkpt lat="60.0423421" lon="15.7618915">
        <ele>29.6</ele>
        <time>2012-11-15T19:30:33Z</time>
      </trkpt>
      <trkpt lat="60.0421976" lon="15.7617646">
        <ele>29.6</ele>
        <time>2012-11-15T19:30:36Z</time>
      </trkpt>
      <trkpt lat="60.04206" lon="15.7615845">
        <ele>29.6</ele>
        <time>2012-11-15T19:30:39Z</time>
      </trkpt>
      <trkpt lat="60.0420184" lon="15.7615253">
        <ele>28.6</ele>
        <time>2012-11-15T19:30:40Z</time>
      </trkpt>
      <trkpt lat="60.0417976" lon="15.7613047">
        <ele>28.6</ele>
        <time>2012-11-15T19:30:44Z</time>
      </trkpt>
      <trkpt lat="60.0417431" lon="15.7612877">
        <ele>27.4</ele>
        <time>2012-11-15T19:30:45Z</time>
      </trkpt>
      <trkpt lat="60.0416146" lon="15.7613148">
        <ele>26.4</ele>
        <time>2012-11-15T19:30:47Z</time>
      </trkpt>
      <trkpt lat="60.0415553" lon="15.7613499">
        <ele>26.4</ele>
        <time>2012-11-15T19:30:48Z</time>
      </trkpt>
      <trkpt lat="60.0414308" lon="15.7614629">
        <ele>26.4</ele>
        <time>2012-11-15T19:30:50Z</time>
      </trkpt>
      <trkpt lat="60.0413432" lon="15.7615523">
        <ele>26.4</ele>
        <time>2012-11-15T19:30:52Z</time>
        <extensions><gpxtpx:TrackPointExtension><gpxtpx:hr>70</gpxtpx:hr></gpxtpx:TrackPointExtension></extensions>
      </trkpt>
      <trkpt lat="60.0412065" lon="15.7616834">
        <ele>26.4</ele>
        <time>2012-11-15T19:30:54Z</time>
        <extensions><gpxtpx:TrackPointExtension><gpxtpx:hr>70</gpxtpx:hr></gpxtpx:TrackPointExtension></extensions>
      </trkpt>
      <trkpt lat="60.040989" lon="15.7617787">
        <ele>26.4</ele>
        <time>2012-11-15T19:30:58Z</time>
      </trkpt>
      <trkpt lat="60.0408663" lon="15.7617781">
        <ele>26.4</ele>
        <time>2012-11-15T19:31:00Z</time>
      </trkpt>
      <trkpt lat="60.0408125" lon="15.7617678">
        <ele>25.2</ele>
        <time>2012-11-15T19:31:01Z</time>
      </trkpt>
      <trkpt lat="60.0406628" lon="15.7617217">
        <ele>25.2</ele>
        <time>2012-11-15T19:31:04Z</time>
      </trkpt>
      <trkpt lat="60.0402796" lon="15.7614888">
        <ele>25.2</ele>
        <time>2012-11-15T19:31:12Z</time>
      </trkpt>
      <trkpt lat="60.0401764" lon="15.7613997">
        <ele>25.2</ele>
        <time>2012-11-15T19:31:16Z</time>
        <extensions><gpxtpx:TrackPointExtension><gpxtpx:hr>70</gpxtpx:hr></gpxtpx:TrackPointExtension></extensions>
      </trkpt>
      <trkpt lat="60.0401562" lon="15.7613826">
        <ele>25.2</ele>
        <time>2012-11-15T19:31:18Z</time>
        <extensions><gpxtpx:TrackPointExtension><gpxtpx:hr>73</gpxtpx:hr></gpxtpx:TrackPointExtension></extensions>
      </trkpt>
      <trkpt lat="60.0401528" lon="15.7613819">
        <ele>25.2</ele>
        <time>2012-11-15T19:31:20Z</time>
        <extensions><gpxtpx:TrackPointExtension><gpxtpx:hr>73</gpxtpx:hr></gpxtpx:TrackPointExtension></extensions>
      </trkpt>
      <trkpt lat="60.0401488" lon="15.7613871">
        <ele>25.2</ele>
        <time>2012-11-15T19:31:27Z</time>
      </trkpt>
      <trkpt lat="60.040147" lon="15.7613881">
        <ele>25.2</ele>
        <time>2012-11-15T19:31:36Z</time>
      </trkpt>
      <trkpt lat="60.0401441" lon="15.7613903">
        <ele>25.2</ele>
        <time>2012-11-15T19:31:52Z</time>
      </trkpt>
      <trkpt lat="60.0401463" lon="15.7613882">
        <ele>25.2</ele>
        <time>2012-11-15T19:31:59Z</time>
      </trkpt>
      <trkpt lat="60.0389833" lon="15.7602086">
        <ele>24.2</ele>
        <time>2012-11-15T19:33:51Z</time>
      </trkpt>
      <trkpt lat="60.0389479" lon="15.7602108">
        <ele>24.2</ele>
        <time>2012-11-15T19:33:52Z</time>
      </trkpt>
      <trkpt lat="60.0387864" lon="15.7602704">
        <ele>24.2</ele>
        <time>2012-11-15T19:33:56Z</time>
      </trkpt>
      <trkpt lat="60.0387464" lon="15.7602916">
        <ele>24.2</ele>
        <time>2012-11-15T19:33:57Z</time>
      </trkpt>
      <trkpt lat="60.0386324" lon="15.7603628">
        <ele>24.2</ele>
        <time>2012-11-15T19:34:00Z</time>
      </trkpt>
      <trkpt lat="60.0385248" lon="15.7604228">
        <ele>24.2</ele>
        <time>2012-11-15T19:34:03Z</time>
        <extensions><gpxtpx:TrackPointExtension><gpxtpx:hr>67</gpxtpx:hr></gpxtpx:TrackPointExtension></extensions>
      </trkpt>
      <trkpt lat="60.0384933" lon="15.760436">
        <ele>24.2</ele>
        <time>2012-11-15T19:34:04Z</time>
        <extensions><gpxtpx:TrackPointExtension><gpxtpx:hr>67</gpxtpx:hr></gpxtpx:TrackPointExtension></extensions>
      </trkpt>
      <trkpt lat="60.0384549" lon="15.7604502">
        <ele>24.2</ele>
        <time>2012-11-15T19:34:05Z</time>
        <extensions><gpxtpx:TrackPointExtension><gpxtpx:hr>67</gpxtpx:hr></gpxtpx:TrackPointExtension></extensions>
      </trkpt>
      <trkpt lat="60.0381958" lon="15.7604505">
        <ele>24.2</ele>
        <time>2012-11-15T19:34:12Z</time>
        <extensions><gpxtpx:TrackPointExtension><gpxtpx:hr>69</gpxtpx:hr></gpxtpx:TrackPointExtension></extensions>
      </trkpt>
      <trkpt lat="60.0380142" lon="15.7604277">
        <ele>24.2</ele>
        <time>2012-11-15T19:34:16Z</time>
        <extensions><gpxtpx:TrackPointExtension><gpxtpx:hr>69</gpxtpx:hr></gpxtpx:TrackPointExtension></extensions>
      </trkpt>
      <trkpt lat="60.0379168" lon="15.7604561">
        <ele>24.2</ele>
        <time>2012-11-15T19:34:18Z</time>
        <extensions><gpxtpx:TrackPointExtension><gpxtpx:hr>69</gpxtpx:hr></gpxtpx:TrackPointExtension></extensions>
      </trkpt>
      <trkpt lat="60.0377345" lon="15.7605427">
        <ele>24.2</ele>
        <time>2012-11-15T19:34:22Z</time>
        <extensions><gpxtpx:TrackPointExtension><gpxtpx:hr>69</gpxtpx:hr></gpxtpx:TrackPointExtension></extensions>
      </trkpt>
      <trkpt lat="60.0376037" lon="15.7606077">
        <ele>24.2</ele>
        <time>2012-11-15T19:34:25Z</time>
        <extensions><gpxtpx:TrackPointExtension><gpxtpx:hr>69</gpxtpx:hr></gpxtpx:TrackPointExtension></extensions>
      </trkpt>
      <trkpt lat="60.0375611" lon="15.7606155">
        <ele>24.2</ele>
        <time>2012-11-15T19:34:26Z</time>
      </trkpt>
      <trkpt lat="60.0373996" lon="15.7605782">
        <ele>24.2</ele>
        <time>2012-11-15T19:34:30Z</time>
      </trkpt>
      <trkpt lat="60.0373633" lon="15.7605671">
        <ele>24.2</ele>
        <time>2012-11-15T19:34:31Z</time>
      </trkpt>
      <trkpt lat="60.0373295" lon="15.760555">
        <ele>27.2</ele>
        <time>2012-11-15T19:34:32Z</time>
      </trkpt>
      <trkpt lat="60.0371543" lon="15.7604708">
        <ele>27.2</ele>
        <time>2012-11-15T19:34:37Z</time>
      </trkpt>
      <trkpt lat="60.0369418" lon="15.760386">
        <ele>28.4</ele>
        <time>2012-11-15T19:34:43Z</time>
      </trkpt>
      <trkpt lat="60.0369078" lon="15.7603727">
        <ele>28.4</ele>
        <time>2012-11-15T19:34:44Z</time>
      </trkpt>
      <trkpt lat="60.0367755" lon="15.7603082">
        <ele>29.4</ele>
        <time>2012-11-15T19:34:48Z</time>
      </trkpt>
      <trkpt lat="60.0366776" lon="15.7602612">
        <ele>30.6</ele>
        <time>2012-11-15T19:34:51Z</time>
      </trkpt>
      <trkpt lat="60.036482" lon="15.7601744">
        <ele>30.6</ele>
        <time>2012-11-15T19:34:57Z</time>
      </trkpt>
      <trkpt lat="60.0362355" lon="15.7600133">
        <ele>30.6</ele>
        <time>2012-11-15T19:35:04Z</time>
      </trkpt>
      <trkpt lat="60.0359866" lon="15.7598872">
        <ele>30.6</ele>
        <time>2012-11-15T19:35:10Z</time>
      </trkpt>
      <trkpt lat="60.035847" lon="15.759895">
        <ele>30.6</ele>
        <time>2012-11-15T19:35:13Z</time>
      </trkpt>
      <trkpt lat="60.0357409" lon="15.7599544">
        <ele>30.6</ele>
        <time>2012-11-15T19:35:15Z</time>
      </trkpt>
      <trkpt lat="60.0356468" lon="15.7600332">
        <ele>30.6</ele>
        <time>2012-11-15T19:35:17Z</time>
      </trkpt>
      <trkpt lat="60.0356058" lon="15.7600817">
        <ele>30.6</ele>
        <time>2012-11-15T19:35:18Z</time>
      </trkpt>
      <trkpt lat="60.03552" lon="15.7602047">
        <ele>30.6</ele>
        <time>2012-11-15T19:35:20Z</time>
      </trkpt>
      <trkpt lat="60.0353688" lon="15.7605883">
        <ele>30.6</ele>
        <time>2012-11-15T19:35:25Z</time>
      </trkpt>
      <trkpt lat="60.0353214" lon="15.7608635">
        <ele>27.6</ele>
        <time>2012-11-15T19:35:28Z</time>
      </trkpt>
      <trkpt lat="60.0353" lon="15.760988">
        <ele>26.4</ele>
        <time>2012-11-15T19:35:29Z</time>
      </trkpt>
      <trkpt lat="60.0352768" lon="15.7610989">
        <ele>26.4</ele>
        <time>2012-11-15T19:35:30Z</time>
      </trkpt>
      <trkpt lat="60.0351938" lon="15.761393">
        <ele>26.4</ele>
        <time>2012-11-15T19:35:33Z</time>
      </trkpt>
      <trkpt lat="60.0351264" lon="15.7615554">
        <ele>25.4</ele>
        <time>2012-11-15T19:35:35Z</time>
      </trkpt>
      <trkpt lat="60.034902" lon="15.7619218">
        <ele>25.4</ele>
        <time>2012-11-15T19:35:41Z</time>
        <extensions><gpxtpx:TrackPointExtension><gpxtpx:hr>69</gpxtpx:hr></gpxtpx:TrackPointExtension></extensions>
      </trkpt>
      <trkpt lat="60.0347056" lon="15.7622028">
        <ele>24.4</ele>
        <time>2012-11-15T19:35:46Z</time>
      </trkpt>
      <trkpt lat="60.0346191" lon="15.7623054">
        <ele>24.4</ele>
        <time>2012-11-15T19:35:48Z</time>
      </trkpt>
      <trkpt lat="60.0343989" lon="15.7625072">
        <ele>24.4</ele>
        <time>2012-11-15T19:35:53Z</time>
      </trkpt>
      <trkpt lat="60.0343507" lon="15.7625389">
        <ele>24.4</ele>
        <time>2012-11-15T19:35:54Z</time>
      </trkpt>
      <trkpt lat="60.0342601" lon="15.7626085">
        <ele>23.4</ele>
        <time>2012-11-15T19:35:56Z</time>
      </trkpt>
      <trkpt lat="60.0340797" lon="15.7627866">
        <ele>23.4</ele>
        <time>2012-11-15T19:36:00Z</time>
      </trkpt>
      <trkpt lat="60.033888" lon="15.7630913">
        <ele>23.4</ele>
        <time>2012-11-15T19:36:05Z</time>
      </trkpt>
      <trkpt lat="60.0337077" lon="15.7634004">
        <ele>23.4</ele>
        <time>2012-11-15T19:36:11Z</time>
      </trkpt>
      <trkpt lat="60.0335054" lon="15.7636291">
        <ele>23.4</ele>
        <time>2012-11-15T19:36:17Z</time>
      </trkpt>
      <trkpt lat="60.0332497" lon="15.7637687">
        <ele>23.4</ele>
        <time>2012-11-15T19:36:23Z</time>
      </trkpt>
      <trkpt lat="60.0331998" lon="15.763802">
        <ele>23.4</ele>
        <time>2012-11-15T19:36:24Z</time>
      </trkpt>
      <trkpt lat="60.0330469" lon="15.7639437">
        <ele>22.2</ele>
        <time>2012-11-15T19:36:27Z</time>
      </trkpt>
      <trkpt lat="60.0330037" lon="15.7639955">
        <ele>22.2</ele>
        <time>2012-11-15T19:36:28Z</time>
      </trkpt>
      <trkpt lat="60.032865" lon="15.7641865">
        <ele>21.2</ele>
        <time>2012-11-15T19:36:31Z</time>
      </trkpt>
      <trkpt lat="60.0327335" lon="15.7643177">
        <ele>21.2</ele>
        <time>2012-11-15T19:36:34Z</time>
      </trkpt>
      <trkpt lat="60.0326365" lon="15.7643829">
        <ele>21.2</ele>
        <time>2012-11-15T19:36:36Z</time>
      </trkpt>
      <trkpt lat="60.0325348" lon="15.7644297">
        <ele>21.2</ele>
        <time>2012-11-15T19:36:38Z</time>
      </trkpt>
      <trkpt lat="60.0324359" lon="15.7644476">
        <ele>21.2</ele>
        <time>2012-11-15T19:36:40Z</time>
      </trkpt>
      <trkpt lat="60.0322985" lon="15.7644482">
        <ele>21.2</ele>
        <time>2012-11-15T19:36:43Z</time>
      </trkpt>
      <trkpt lat="60.0322532" lon="15.7644421">
        <ele>21.2</ele>
        <time>2012-11-15T19:36:44Z</time>
      </trkpt>
      <trkpt lat="60.0322086" lon="15.7644398">
        <ele>20.2</ele>
        <time>2012-11-15T19:36:45Z</time>
      </trkpt>
      <trkpt lat="60.0320056" lon="15.7644719">
        <ele>20.2</ele>
        <time>2012-11-15T19:36:50Z</time>
        <extensions><gpxtpx:TrackPointExtension><gpxtpx:hr>69</gpxtpx:hr></gpxtpx:TrackPointExtension></extensions>
      </trkpt>
      <trkpt lat="60.0317505" lon="15.7646787">
        <ele>20.2</ele>
        <time>2012-11-15T19:36:56Z</time>
      </trkpt>
      <trkpt lat="60.0314878" lon="15.7649841">
        <ele>20.2</ele>
        <time>2012-11-15T19:37:03Z</time>
      </trkpt>
      <trkpt lat="60.0313647" lon="15.7651112">
        <ele>20.2</ele>
        <time>2012-11-15T19:37:06Z</time>
      </trkpt>
      <trkpt lat="60.0313185" lon="15.7651521">
        <ele>19.2</ele>
        <time>2012-11-15T19:37:07Z</time>
      </trkpt>
      <trkpt lat="60.0312765" lon="15.7651828">
        <ele>19.2</ele>
        <time>2012-11-15T19:37:08Z</time>
      </trkpt>
      <trkpt lat="60.0312252" lon="15.7652085">
        <ele>18</ele>
        <time>2012-11-15T19:37:09Z</time>
      </trkpt>
      <trkpt lat="60.0310645" lon="15.7651712">
        <ele>18</ele>
        <time>2012-11-15T19:37:12Z</time>
        <extensions><gpxtpx:TrackPointExtension><gpxtpx:hr>69</gpxtpx:hr></gpxtpx:TrackPointExtension></extensions>
      </trkpt>
      <trkpt lat="60.0309818" lon="15.7650735">
        <ele>17</ele>
        <time>2012-11-15T19:37:14Z</time>
        <extensions><gpxtpx:TrackPointExtension><gpxtpx:hr>69</gpxtpx:hr></gpxtpx:TrackPointExtension></extensions>
      </trkpt>
      <trkpt lat="60.0309427" lon="15.7650335">
        <ele>17</ele>
        <time>2012-11-15T19:37:15Z</time>
        <extensions><gpxtpx:TrackPointExtension><gpxtpx:hr>62</gpxtpx:hr></gpxtpx:TrackPointExtension></extensions>
      </trkpt>
      <trkpt lat="60.0309053" lon="15.765">
        <ele>17</ele>
        <time>2012-11-15T19:37:16Z</time>
        <extensions><gpxtpx:TrackPointExtension><gpxtpx:hr>62</gpxtpx:hr></gpxtpx:TrackPointExtension></extensions>
      </trkpt>
      <trkpt lat="60.030784" lon="15.7649">
        <ele>17</ele>
        <time>2012-11-15T19:37:19Z</time>
        <extensions><gpxtpx:TrackPointExtension><gpxtpx:hr>59</gpxtpx:hr></gpxtpx:TrackPointExtension></extensions>
      </trkpt>
      <trkpt lat="60.0307066" lon="15.7647981">
        <ele>17</ele>
        <time>2012-11-15T19:37:21Z</time>
        <extensions><gpxtpx:TrackPointExtension><gpxtpx:hr>58</gpxtpx:hr></gpxtpx:TrackPointExtension></extensions>
      </trkpt>
      <trkpt lat="60.0305985" lon="15.7645874">
        <ele>17</ele>
        <time>2012-11-15T19:37:24Z</time>
        <extensions><gpxtpx:TrackPointExtension><gpxtpx:hr>58</gpxtpx:hr></gpxtpx:TrackPointExtension></extensions>
      </trkpt>
      <trkpt lat="60.0305641" lon="15.7645126">
        <ele>17</ele>
        <time>2012-11-15T19:37:25Z</time>
        <extensions><gpxtpx:TrackPointExtension><gpxtpx:hr>58</gpxtpx:hr></gpxtpx:TrackPointExtension></extensions>
      </trkpt>
      <trkpt lat="60.0305391" lon="15.7644269">
        <ele>17</ele>
        <time>2012-11-15T19:37:26Z</time>
        <extensions><gpxtpx:TrackPointExtension><gpxtpx:hr>58</gpxtpx:hr></gpxtpx:TrackPointExtension></extensions>
      </trkpt>
      <trkpt lat="60.0304479" lon="15.7641947">
        <ele>17</ele>
        <time>2012-11-15T19:37:29Z</time>
        <extensions><gpxtpx:TrackPointExtension><gpxtpx:hr>57</gpxtpx:hr></gpxtpx:TrackPointExtension></extensions>
      </trkpt>
      <trkpt lat="60.0302102" lon="15.7638017">
        <ele>17</ele>
        <time>2012-11-15T19:37:36Z</time>
      </trkpt>
      <trkpt lat="60.0300721" lon="15.7636699">
        <ele>20</ele>
        <time>2012-11-15T19:37:40Z</time>
        <extensions><gpxtpx:TrackPointExtension><gpxtpx:hr>57</gpxtpx:hr></gpxtpx:TrackPointExtension></extensions>
      </trkpt>
      <trkpt lat="60.0300019" lon="15.7636229">
        <ele>20</ele>
        <time>2012-11-15T19:37:42Z</time>
        <extensions><gpxtpx:TrackPointExtension><gpxtpx:hr>57</gpxtpx:hr></gpxtpx:TrackPointExtension></extensions>
      </trkpt>
      <trkpt lat="60.0299729" lon="15.7636014">
        <ele>21.2</ele>
        <time>2012-11-15T19:37:43Z</time>
        <extensions><gpxtpx:TrackPointExtension><gpxtpx:hr>57</gpxtpx:hr></gpxtpx:TrackPointExtension></extensions>
      </trkpt>
      <trkpt lat="60.0298394" lon="15.7635466">
        <ele>22.2</ele>
        <time>2012-11-15T19:37:47Z</time>
      </trkpt>
      <trkpt lat="60.0298078" lon="15.7635344">
        <ele>22.2</ele>
        <time>2012-11-15T19:37:48Z</time>
        <extensions><gpxtpx:TrackPointExtension><gpxtpx:hr>57</gpxtpx:hr></gpxtpx:TrackPointExtension></extensions>
      </trkpt>
      <trkpt lat="60.0297796" lon="15.7635189">
        <ele>23.4</ele>
        <time>2012-11-15T19:37:49Z</time>
        <extensions><gpxtpx:TrackPointExtension><gpxtpx:hr>57</gpxtpx:hr></gpxtpx:TrackPointExtension></extensions>
      </trkpt>
      <trkpt lat="60.0296656" lon="15.7634449">
        <ele>23.4</ele>
        <time>2012-11-15T19:37:53Z</time>
      </trkpt>
      <trkpt lat="60.0295437" lon="15.763365">
        <ele>24.4</ele>
        <time>2012-11-15T19:37:57Z</time>
      </trkpt>
      <trkpt lat="60.029472" lon="15.7633156">
        <ele>24.4</ele>
        <time>2012-11-15T19:38:00Z</time>
        <extensions><gpxtpx:TrackPointExtension><gpxtpx:hr>57</gpxtpx:hr></gpxtpx:TrackPointExtension></extensions>
      </trkpt>
      <trkpt lat="60.0294294" lon="15.763287">
        <ele>25.6</ele>
        <time>2012-11-15T19:38:02Z</time>
        <extensions><gpxtpx:TrackPointExtension><gpxtpx:hr>57</gpxtpx:hr></gpxtpx:TrackPointExtension></extensions>
      </trkpt>
      <trkpt lat="60.029373" lon="15.7632545">
        <ele>26.6</ele>
        <time>2012-11-15T19:38:05Z</time>
        <extensions><gpxtpx:TrackPointExtension><gpxtpx:hr>54</gpxtpx:hr></gpxtpx:TrackPointExtension></extensions>
      </trkpt>
      <trkpt lat="60.0293348" lon="15.7632367">
        <ele>26.6</ele>
        <time>2012-11-15T19:38:07Z</time>
        <extensions><gpxtpx:TrackPointExtension><gpxtpx:hr>54</gpxtpx:hr></gpxtpx:TrackPointExtension></extensions>
      </trkpt>
      <trkpt lat="60.029297" lon="15.7632271">
        <ele>27.8</ele>
        <time>2012-11-15T19:38:09Z</time>
        <extensions><gpxtpx:TrackPointExtension><gpxtpx:hr>54</gpxtpx:hr></gpxtpx:TrackPointExtension></extensions>
      </trkpt>
      <trkpt lat="60.0292182" lon="15.763206">
        <ele>29</ele>
        <time>2012-11-15T19:38:13Z</time>
        <extensions><gpxtpx:TrackPointExtension><gpxtpx:hr>54</gpxtpx:hr></gpxtpx:TrackPointExtension></extensions>
      </trkpt>
      <trkpt lat="60.0291774" lon="15.7631968">
        <ele>29</ele>
        <time>2012-11-15T19:38:15Z</time>
        <extensions><gpxtpx:TrackPointExtension><gpxtpx:hr>60</gpxtpx:hr></gpxtpx:TrackPointExtension></extensions>
      </trkpt>
      <trkpt lat="60.029156" lon="15.7631882">
        <ele>29</ele>
        <time>2012-11-15T19:38:16Z</time>
        <extensions><gpxtpx:TrackPointExtension><gpxtpx:hr>60</gpxtpx:hr></gpxtpx:TrackPointExtension></extensions>
      </trkpt>
      <trkpt lat="60.0291212" lon="15.7631767">
        <ele>30.2</ele>
        <time>2012-11-15T19:38:18Z</time>
        <extensions><gpxtpx:TrackPointExtension><gpxtpx:hr>60</gpxtpx:hr></gpxtpx:TrackPointExtension></extensions>
      </trkpt>
      <trkpt lat="60.0290994" lon="15.7631649">
        <ele>30.2</ele>
        <time>2012-11-15T19:38:19Z</time>
        <extensions><gpxtpx:TrackPointExtension><gpxtpx:hr>60</gpxtpx:hr></gpxtpx:TrackPointExtension></extensions>
      </trkpt>
      <trkpt lat="60.0290253" lon="15.7631349">
        <ele>30.2</ele>
        <time>2012-11-15T19:38:23Z</time>
        <extensions><gpxtpx:TrackPointExtension><gpxtpx:hr>60</gpxtpx:hr></gpxtpx:TrackPointExtension></extensions>
      </trkpt>
      <trkpt lat="60.0290054" lon="15.7631327">
        <ele>31.2</ele>
        <time>2012-11-15T19:38:24Z</time>
        <extensions><gpxtpx:TrackPointExtension><gpxtpx:hr>60</gpxtpx:hr></gpxtpx:TrackPointExtension></extensions>
      </trkpt>
      <trkpt lat="60.0289249" lon="15.7631103">
        <ele>31.2</ele>
        <time>2012-11-15T19:38:28Z</time>
        <extensions><gpxtpx:TrackPointExtension><gpxtpx:hr>60</gpxtpx:hr></gpxtpx:TrackPointExtension></extensions>
      </trkpt>
      <trkpt lat="60.0288448" lon="15.7630815">
        <ele>32.4</ele>
        <time>2012-11-15T19:38:31Z</time>
        <extensions><gpxtpx:TrackPointExtension><gpxtpx:hr>60</gpxtpx:hr></gpxtpx:TrackPointExtension></extensions>
      </trkpt>
      <trkpt lat="60.0287762" lon="15.7630462">
        <ele>32.4</ele>
        <time>2012-11-15T19:38:34Z</time>
      </trkpt>
      <trkpt lat="60.0286257" lon="15.7629465">
        <ele>32.4</ele>
        <time>2012-11-15T19:38:39Z</time>
      </trkpt>
      <trkpt lat="60.0284732" lon="15.7628364">
        <ele>33.4</ele>
        <time>2012-11-15T19:38:44Z</time>
      </trkpt>
      <trkpt lat="60.0284165" lon="15.7628219">
        <ele>33.4</ele>
        <time>2012-11-15T19:38:46Z</time>
      </trkpt>
      <trkpt lat="60.0282931" lon="15.7628817">
        <ele>33.4</ele>
        <time>2012-11-15T19:38:50Z</time>
        <extensions><gpxtpx:TrackPointExtension><gpxtpx:hr>60</gpxtpx:hr></gpxtpx:TrackPointExtension></extensions>
      </trkpt>
      <trkpt lat="60.0280764" lon="15.7629779">
        <ele>33.4</ele>
        <time>2012-11-15T19:38:56Z</time>
        <extensions><gpxtpx:TrackPointExtension><gpxtpx:hr>60</gpxtpx:hr></gpxtpx:TrackPointExtension></extensions>
      </trkpt>
      <trkpt lat="60.0280252" lon="15.7629931">
        <ele>33.4</ele>
        <time>2012-11-15T19:38:57Z</time>
        <extensions><gpxtpx:TrackPointExtension><gpxtpx:hr>60</gpxtpx:hr></gpxtpx:TrackPointExtension></extensions>
      </trkpt>
      <trkpt lat="60.0278569" lon="15.7630441">
        <ele>33.4</ele>
        <time>2012-11-15T19:39:00Z</time>
        <extensions><gpxtpx:TrackPointExtension><gpxtpx:hr>60</gpxtpx:hr></gpxtpx:TrackPointExtension></extensions>
      </trkpt>
      <trkpt lat="60.0277973" lon="15.7630644">
        <ele>30.2</ele>
        <time>2012-11-15T19:39:01Z</time>
        <extensions><gpxtpx:TrackPointExtension><gpxtpx:hr>60</gpxtpx:hr></gpxtpx:TrackPointExtension></extensions>
      </trkpt>
      <trkpt lat="60.0275143" lon="15.7631276">
        <ele>29</ele>
        <time>2012-11-15T19:39:06Z</time>
      </trkpt>
      <trkpt lat="60.0274542" lon="15.7631497">
        <ele>29</ele>
        <time>2012-11-15T19:39:07Z</time>
      </trkpt>
      <trkpt lat="60.0272811" lon="15.7632703">
        <ele>27.8</ele>
        <time>2012-11-15T19:39:10Z</time>
      </trkpt>
      <trkpt lat="60.0272244" lon="15.7633216">
        <ele>26.6</ele>
        <time>2012-11-15T19:39:11Z</time>
      </trkpt>
      <trkpt lat="60.0271726" lon="15.7633577">
        <ele>26.6</ele>
        <time>2012-11-15T19:39:12Z</time>
      </trkpt>
      <trkpt lat="60.0271155" lon="15.763379">
        <ele>26.6</ele>
        <time>2012-11-15T19:39:13Z</time>
      </trkpt>
      <trkpt lat="60.0269914" lon="15.7633787">
        <ele>25.4</ele>
        <time>2012-11-15T19:39:15Z</time>
      </trkpt>
      <trkpt lat="60.026929" lon="15.7633666">
        <ele>25.4</ele>
        <time>2012-11-15T19:39:16Z</time>
        <extensions><gpxtpx:TrackPointExtension><gpxtpx:hr>60</gpxtpx:hr></gpxtpx:TrackPointExtension></extensions>
      </trkpt>
      <trkpt lat="60.026864" lon="15.7633474">
        <ele>25.4</ele>
        <time>2012-11-15T19:39:17Z</time>
        <extensions><gpxtpx:TrackPointExtension><gpxtpx:hr>60</gpxtpx:hr></gpxtpx:TrackPointExtension></extensions>
      </trkpt>
      <trkpt lat="60.0268064" lon="15.7633337">
        <ele>24.2</ele>
        <time>2012-11-15T19:39:18Z</time>
        <extensions><gpxtpx:TrackPointExtension><gpxtpx:hr>60</gpxtpx:hr></gpxtpx:TrackPointExtension></extensions>
      </trkpt>
      <trkpt lat="60.0264269" lon="15.7632389">
        <ele>24.2</ele>
        <time>2012-11-15T19:39:24Z</time>
      </trkpt>
      <trkpt lat="60.0262357" lon="15.7632161">
        <ele>23.2</ele>
        <time>2012-11-15T19:39:27Z</time>
      </trkpt>
      <trkpt lat="60.0261121" lon="15.7631884">
        <ele>23.2</ele>
        <time>2012-11-15T19:39:29Z</time>
      </trkpt>
      <trkpt lat="60.0259097" lon="15.7631333">
        <ele>23.2</ele>
        <time>2012-11-15T19:39:33Z</time>
        <extensions><gpxtpx:TrackPointExtension><gpxtpx:hr>60</gpxtpx:hr></gpxtpx:TrackPointExtension></extensions>
      </trkpt>
      <trkpt lat="60.0258553" lon="15.7631092">
        <ele>23.2</ele>
        <time>2012-11-15T19:39:34Z</time>
        <extensions><gpxtpx:TrackPointExtension><gpxtpx:hr>60</gpxtpx:hr></gpxtpx:TrackPointExtension></extensions>
      </trkpt>
      <trkpt lat="60.0255973" lon="15.7629717">
        <ele>23.2</ele>
        <time>2012-11-15T19:39:39Z</time>
      </trkpt>
      <trkpt lat="60.0254226" lon="15.7628809">
        <ele>23.2</ele>
        <time>2012-11-15T19:39:43Z</time>
        <extensions><gpxtpx:TrackPointExtension><gpxtpx:hr>56</gpxtpx:hr></gpxtpx:TrackPointExtension></extensions>
      </trkpt>
      <trkpt lat="60.0252826" lon="15.7628066">
        <ele>23.2</ele>
        <time>2012-11-15T19:39:46Z</time>
        <extensions><gpxtpx:TrackPointExtension><gpxtpx:hr>56</gpxtpx:hr></gpxtpx:TrackPointExtension></extensions>
      </trkpt>
      <trkpt lat="60.0250928" lon="15.7626819">
        <ele>23.2</ele>
        <time>2012-11-15T19:39:51Z</time>
      </trkpt>
      <trkpt lat="60.0250296" lon="15.7626393">
        <ele>26.2</ele>
        <time>2012-11-15T19:39:53Z</time>
        <extensions><gpxtpx:TrackPointExtension><gpxtpx:hr>56</gpxtpx:hr></gpxtpx:TrackPointExtension></extensions>
      </trkpt>
      <trkpt lat="60.0249732" lon="15.7626095">
        <ele>26.2</ele>
        <time>2012-11-15T19:39:55Z</time>
        <extensions><gpxtpx:TrackPointExtension><gpxtpx:hr>51</gpxtpx:hr></gpxtpx:TrackPointExtension></extensions>
      </trkpt>
      <trkpt lat="60.0249491" lon="15.7625916">
        <ele>27.4</ele>
        <time>2012-11-15T19:39:56Z</time>
        <extensions><gpxtpx:TrackPointExtension><gpxtpx:hr>51</gpxtpx:hr></gpxtpx:TrackPointExtension></extensions>
      </trkpt>
      <trkpt lat="60.02493" lon="15.7625748">
        <ele>27.4</ele>
        <time>2012-11-15T19:39:57Z</time>
        <extensions><gpxtpx:TrackPointExtension><gpxtpx:hr>48</gpxtpx:hr></gpxtpx:TrackPointExtension></extensions>
      </trkpt>
      <trkpt lat="60.024879" lon="15.762539">
        <ele>28.4</ele>
        <time>2012-11-15T19:39:59Z</time>
        <extensions><gpxtpx:TrackPointExtension><gpxtpx:hr>48</gpxtpx:hr></gpxtpx:TrackPointExtension></extensions>
      </trkpt>
      <trkpt lat="60.0248542" lon="15.7625223">
        <ele>28.4</ele>
        <time>2012-11-15T19:40:00Z</time>
        <extensions><gpxtpx:TrackPointExtension><gpxtpx:hr>45</gpxtpx:hr></gpxtpx:TrackPointExtension></extensions>
      </trkpt>
      <trkpt lat="60.024787" lon="15.7624711">
        <ele>29.6</ele>
        <time>2012-11-15T19:40:03Z</time>
        <extensions><gpxtpx:TrackPointExtension><gpxtpx:hr>45</gpxtpx:hr></gpxtpx:TrackPointExtension></extensions>
      </trkpt>
      <trkpt lat="60.0247048" lon="15.7624058">
        <ele>29.6</ele>
        <time>2012-11-15T19:40:06Z</time>
        <extensions><gpxtpx:TrackPointExtension><gpxtpx:hr>45</gpxtpx:hr></gpxtpx:TrackPointExtension></extensions>
      </trkpt>
      <trkpt lat="60.0245714" lon="15.7623087">
        <ele>30.6</ele>
        <time>2012-11-15T19:40:10Z</time>
        <extensions><gpxtpx:TrackPointExtension><gpxtpx:hr>45</gpxtpx:hr></gpxtpx:TrackPointExtension></extensions>
      </trkpt>
      <trkpt lat="60.0245347" lon="15.762277">
        <ele>30.6</ele>
        <time>2012-11-15T19:40:11Z</time>
      </trkpt>
      <trkpt lat="60.0244422" lon="15.7621826">
        <ele>31.6</ele>
        <time>2012-11-15T19:40:14Z</time>
      </trkpt>
      <trkpt lat="60.0242492" lon="15.7619627">
        <ele>31.6</ele>
        <time>2012-11-15T19:40:20Z</time>
      </trkpt>
      <trkpt lat="60.0240376" lon="15.7617129">
        <ele>31.6</ele>
        <time>2012-11-15T19:40:26Z</time>
      </trkpt>
      <trkpt lat="60.0238721" lon="15.7615794">
        <ele>31.6</ele>
        <time>2012-11-15T19:40:30Z</time>
      </trkpt>
      <trkpt lat="60.023811" lon="15.7614793">
        <ele>31.6</ele>
        <time>2012-11-15T19:40:32Z</time>
      </trkpt>
      <trkpt lat="60.0237191" lon="15.761392">
        <ele>31.6</ele>
        <time>2012-11-15T19:40:35Z</time>
      </trkpt>
      <trkpt lat="60.0236722" lon="15.7613564">
        <ele>31.6</ele>
        <time>2012-11-15T19:40:36Z</time>
      </trkpt>
      <trkpt lat="60.0235955" lon="15.7613032">
        <ele>31.6</ele>
        <time>2012-11-15T19:40:38Z</time>
      </trkpt>
      <trkpt lat="60.023544" lon="15.7612698">
        <ele>28.6</ele>
        <time>2012-11-15T19:40:39Z</time>
      </trkpt>
      <trkpt lat="60.0233452" lon="15.7611272">
        <ele>28.6</ele>
        <time>2012-11-15T19:40:43Z</time>
      </trkpt>
      <trkpt lat="60.0232182" lon="15.7610333">
        <ele>27.4</ele>
        <time>2012-11-15T19:40:46Z</time>
      </trkpt>
      <trkpt lat="60.0230746" lon="15.7609291">
        <ele>27.4</ele>
        <time>2012-11-15T19:40:50Z</time>
        <extensions><gpxtpx:TrackPointExtension><gpxtpx:hr>43</gpxtpx:hr></gpxtpx:TrackPointExtension></extensions>
      </trkpt>
      <trkpt lat="60.022891" lon="15.7607685">
        <ele>27.4</ele>
        <time>2012-11-15T19:40:54Z</time>
      </trkpt>
      <trkpt lat="60.0227577" lon="15.7606083">
        <ele>27.4</ele>
        <time>2012-11-15T19:40:57Z</time>
      </trkpt>
      <trkpt lat="60.0226644" lon="15.7604849">
        <ele>27.4</ele>
        <time>2012-11-15T19:40:59Z</time>
      </trkpt>
      <trkpt lat="60.0226242" lon="15.760423">
        <ele>27.4</ele>
        <time>2012-11-15T19:41:00Z</time>
      </trkpt>
      <trkpt lat="60.0225701" lon="15.7603583">
        <ele>27.4</ele>
        <time>2012-11-15T19:41:01Z</time>
      </trkpt>
      <trkpt lat="60.0224727" lon="15.760253">
        <ele>27.4</ele>
        <time>2012-11-15T19:41:03Z</time>
      </trkpt>
      <trkpt lat="60.022324" lon="15.7601437">
        <ele>27.4</ele>
        <time>2012-11-15T19:41:06Z</time>
      </trkpt>
      <trkpt lat="60.0222662" lon="15.7601159">
        <ele>27.4</ele>
        <time>2012-11-15T19:41:07Z</time>
      </trkpt>
      <trkpt lat="60.0221705" lon="15.760068">
        <ele>26.4</ele>
        <time>2012-11-15T19:41:09Z</time>
      </trkpt>
      <trkpt lat="60.0221223" lon="15.7600562">
        <ele>26.4</ele>
        <time>2012-11-15T19:41:10Z</time>
      </trkpt>
      <trkpt lat="60.0220585" lon="15.7600287">
        <ele>26.4</ele>
        <time>2012-11-15T19:41:11Z</time>
        <extensions><gpxtpx:TrackPointExtension><gpxtpx:hr>43</gpxtpx:hr></gpxtpx:TrackPointExtension></extensions>
      </trkpt>
      <trkpt lat="60.0220044" lon="15.7600055">
        <ele>25.2</ele>
        <time>2012-11-15T19:41:12Z</time>
        <extensions><gpxtpx:TrackPointExtension><gpxtpx:hr>43</gpxtpx:hr></gpxtpx:TrackPointExtension></extensions>
      </trkpt>
      <trkpt lat="60.0217786" lon="15.7599105">
        <ele>24.2</ele>
        <time>2012-11-15T19:41:16Z</time>
      </trkpt>
      <trkpt lat="60.0216652" lon="15.7598498">
        <ele>23</ele>
        <time>2012-11-15T19:41:18Z</time>
      </trkpt>
      <trkpt lat="60.0216136" lon="15.7598076">
        <ele>23</ele>
        <time>2012-11-15T19:41:19Z</time>
      </trkpt>
      <trkpt lat="60.0215539" lon="15.7597757">
        <ele>23</ele>
        <time>2012-11-15T19:41:20Z</time>
      </trkpt>
      <trkpt lat="60.0214925" lon="15.7597478">
        <ele>21.8</ele>
        <time>2012-11-15T19:41:21Z</time>
      </trkpt>
      <trkpt lat="60.0214367" lon="15.75971">
        <ele>21.8</ele>
        <time>2012-11-15T19:41:22Z</time>
      </trkpt>
      <trkpt lat="60.0213666" lon="15.7596833">
        <ele>20.8</ele>
        <time>2012-11-15T19:41:23Z</time>
      </trkpt>
      <trkpt lat="60.0212953" lon="15.7596534">
        <ele>19.4</ele>
        <time>2012-11-15T19:41:24Z</time>
      </trkpt>
      <trkpt lat="60.0212235" lon="15.7596277">
        <ele>19.4</ele>
        <time>2012-11-15T19:41:25Z</time>
      </trkpt>
      <trkpt lat="60.0209008" lon="15.7594719">
        <ele>19.4</ele>
        <time>2012-11-15T19:41:30Z</time>
        <extensions><gpxtpx:TrackPointExtension><gpxtpx:hr>43</gpxtpx:hr></gpxtpx:TrackPointExtension></extensions>
      </trkpt>
      <trkpt lat="60.0208405" lon="15.759423">
        <ele>18.2</ele>
        <time>2012-11-15T19:41:31Z</time>
        <extensions><gpxtpx:TrackPointExtension><gpxtpx:hr>39</gpxtpx:hr></gpxtpx:TrackPointExtension></extensions>
      </trkpt>
      <trkpt lat="60.0207874" lon="15.7593627">
        <ele>18.2</ele>
        <time>2012-11-15T19:41:32Z</time>
        <extensions><gpxtpx:TrackPointExtension><gpxtpx:hr>39</gpxtpx:hr></gpxtpx:TrackPointExtension></extensions>
      </trkpt>
      <trkpt lat="60.0206872" lon="15.7591782">
        <ele>18.2</ele>
        <time>2012-11-15T19:41:35Z</time>
        <extensions><gpxtpx:TrackPointExtension><gpxtpx:hr>39</gpxtpx:hr></gpxtpx:TrackPointExtension></extensions>
      </trkpt>
      <trkpt lat="60.0206362" lon="15.7590793">
        <ele>18.2</ele>
        <time>2012-11-15T19:41:37Z</time>
        <extensions><gpxtpx:TrackPointExtension><gpxtpx:hr>39</gpxtpx:hr></gpxtpx:TrackPointExtension></extensions>
      </trkpt>
      <trkpt lat="60.0205968" lon="15.7589987">
        <ele>18.2</ele>
        <time>2012-11-15T19:41:39Z</time>
      </trkpt>
      <trkpt lat="60.0204689" lon="15.7587228">
        <ele>18.2</ele>
        <time>2012-11-15T19:41:44Z</time>
        <extensions><gpxtpx:TrackPointExtension><gpxtpx:hr>39</gpxtpx:hr></gpxtpx:TrackPointExtension></extensions>
      </trkpt>
      <trkpt lat="60.0203843" lon="15.758625">
        <ele>18.2</ele>
        <time>2012-11-15T19:41:47Z</time>
      </trkpt>
      <trkpt lat="60.0203593" lon="15.7586411">
        <ele>18.2</ele>
        <time>2012-11-15T19:41:48Z</time>
      </trkpt>
      <trkpt lat="60.0202634" lon="15.7588125">
        <ele>17.2</ele>
        <time>2012-11-15T19:41:52Z</time>
      </trkpt>
      <trkpt lat="60.0202593" lon="15.7588603">
        <ele>17.2</ele>
        <time>2012-11-15T19:41:53Z</time>
      </trkpt>
      <trkpt lat="60.0202101" lon="15.7590701">
        <ele>16.2</ele>
        <time>2012-11-15T19:41:56Z</time>
      </trkpt>
      <trkpt lat="60.0201913" lon="15.7591508">
        <ele>16.2</ele>
        <time>2012-11-15T19:41:57Z</time>
      </trkpt>
      <trkpt lat="60.0201497" lon="15.7592901">
        <ele>16.2</ele>
        <time>2012-11-15T19:41:59Z</time>
      </trkpt>
      <trkpt lat="60.0201293" lon="15.7593521">
        <ele>16.2</ele>
        <time>2012-11-15T19:42:00Z</time>
        <extensions><gpxtpx:TrackPointExtension><gpxtpx:hr>39</gpxtpx:hr></gpxtpx:TrackPointExtension></extensions>
      </trkpt>
      <trkpt lat="60.0201106" lon="15.7594137">
        <ele>16.2</ele>
        <time>2012-11-15T19:42:01Z</time>
        <extensions><gpxtpx:TrackPointExtension><gpxtpx:hr>53</gpxtpx:hr></gpxtpx:TrackPointExtension></extensions>
      </trkpt>
      <trkpt lat="60.0200935" lon="15.7594696">
        <ele>16.2</ele>
        <time>2012-11-15T19:42:02Z</time>
        <extensions><gpxtpx:TrackPointExtension><gpxtpx:hr>53</gpxtpx:hr></gpxtpx:TrackPointExtension></extensions>
      </trkpt>
      <trkpt lat="60.020078" lon="15.7595098">
        <ele>16.2</ele>
        <time>2012-11-15T19:42:03Z</time>
        <extensions><gpxtpx:TrackPointExtension><gpxtpx:hr>53</gpxtpx:hr></gpxtpx:TrackPointExtension></extensions>
      </trkpt>
      <trkpt lat="60.0200483" lon="15.759571">
        <ele>16.2</ele>
        <time>2012-11-15T19:42:07Z</time>
        <extensions><gpxtpx:TrackPointExtension><gpxtpx:hr>53</gpxtpx:hr></gpxtpx:TrackPointExtension></extensions>
      </trkpt>
      <trkpt lat="60.0200281" lon="15.7596161">
        <ele>16.2</ele>
        <time>2012-11-15T19:42:15Z</time>
        <extensions><gpxtpx:TrackPointExtension><gpxtpx:hr>53</gpxtpx:hr></gpxtpx:TrackPointExtension></extensions>
      </trkpt>
      <trkpt lat="60.0200239" lon="15.7596226">
        <ele>16.2</ele>
        <time>2012-11-15T19:42:18Z</time>
        <extensions><gpxtpx:TrackPointExtension><gpxtpx:hr>59</gpxtpx:hr></gpxtpx:TrackPointExtension></extensions>
      </trkpt>
      <trkpt lat="60.0200185" lon="15.7596282">
        <ele>15.2</ele>
        <time>2012-11-15T19:42:19Z</time>
        <extensions><gpxtpx:TrackPointExtension><gpxtpx:hr>68</gpxtpx:hr></gpxtpx:TrackPointExtension></extensions>
      </trkpt>
      <trkpt lat="60.0200101" lon="15.759628">
        <ele>15.2</ele>
        <time>2012-11-15T19:42:20Z</time>
        <extensions><gpxtpx:TrackPointExtension><gpxtpx:hr>75</gpxtpx:hr></gpxtpx:TrackPointExtension></extensions>
      </trkpt>
      <trkpt lat="60.0200133" lon="15.7596288">
        <ele>15.2</ele>
        <time>2012-11-15T19:42:21Z</time>
        <extensions><gpxtpx:TrackPointExtension><gpxtpx:hr>75</gpxtpx:hr></gpxtpx:TrackPointExtension></extensions>
      </trkpt>
      <trkpt lat="60.0200003" lon="15.7596513">
        <ele>15.2</ele>
        <time>2012-11-15T19:42:23Z</time>
        <extensions><gpxtpx:TrackPointExtension><gpxtpx:hr>81</gpxtpx:hr></gpxtpx:TrackPointExtension></extensions>
      </trkpt>
      <trkpt lat="60.0200003" lon="15.7596458">
        <ele>15.2</ele>
        <time>2012-11-15T19:42:24Z</time>
        <extensions><gpxtpx:TrackPointExtension><gpxtpx:hr>81</gpxtpx:hr></gpxtpx:TrackPointExtension></extensions>
      </trkpt>
      <trkpt lat="60.0199935" lon="15.7596668">
        <ele>15.2</ele>
        <time>2012-11-15T19:42:27Z</time>
        <extensions><gpxtpx:TrackPointExtension><gpxtpx:hr>80</gpxtpx:hr></gpxtpx:TrackPointExtension></extensions>
      </trkpt>
      <trkpt lat="60.0199414" lon="15.759808">
        <ele>15.2</ele>
        <time>2012-11-15T19:42:33Z</time>
        <extensions><gpxtpx:TrackPointExtension><gpxtpx:hr>80</gpxtpx:hr></gpxtpx:TrackPointExtension></extensions>
      </trkpt>
      <trkpt lat="60.0198549" lon="15.7601142">
        <ele>15.2</ele>
        <time>2012-11-15T19:42:38Z</time>
        <extensions><gpxtpx:TrackPointExtension><gpxtpx:hr>80</gpxtpx:hr></gpxtpx:TrackPointExtension></extensions>
      </trkpt>
      <trkpt lat="60.0198242" lon="15.7602758">
        <ele>14</ele>
        <time>2012-11-15T19:42:40Z</time>
        <extensions><gpxtpx:TrackPointExtension><gpxtpx:hr>80</gpxtpx:hr></gpxtpx:TrackPointExtension></extensions>
      </trkpt>
      <trkpt lat="60.0197277" lon="15.7606834">
        <ele>14</ele>
        <time>2012-11-15T19:42:45Z</time>
        <extensions><gpxtpx:TrackPointExtension><gpxtpx:hr>80</gpxtpx:hr></gpxtpx:TrackPointExtension></extensions>
      </trkpt>
      <trkpt lat="60.019708" lon="15.760765">
        <ele>13</ele>
        <time>2012-11-15T19:42:46Z</time>
      </trkpt>
      <trkpt lat="60.019681" lon="15.7608519">
        <ele>13</ele>
        <time>2012-11-15T19:42:47Z</time>
      </trkpt>
      <trkpt lat="60.0196187" lon="15.761006">
        <ele>13</ele>
        <time>2012-11-15T19:42:49Z</time>
      </trkpt>
      <trkpt lat="60.0195785" lon="15.761077">
        <ele>12</ele>
        <time>2012-11-15T19:42:50Z</time>
      </trkpt>
      <trkpt lat="60.0195393" lon="15.7611469">
        <ele>12</ele>
        <time>2012-11-15T19:42:51Z</time>
      </trkpt>
      <trkpt lat="60.0194022" lon="15.7613891">
        <ele>11</ele>
        <time>2012-11-15T19:42:54Z</time>
      </trkpt>
      <trkpt lat="60.0192496" lon="15.7616367">
        <ele>11</ele>
        <time>2012-11-15T19:42:57Z</time>
      </trkpt>
      <trkpt lat="60.0192064" lon="15.7617126">
        <ele>10</ele>
        <time>2012-11-15T19:42:58Z</time>
      </trkpt>
      <trkpt lat="60.0191042" lon="15.7618936">
        <ele>10</ele>
        <time>2012-11-15T19:43:00Z</time>
      </trkpt>
      <trkpt lat="60.0189268" lon="15.7621942">
        <ele>10</ele>
        <time>2012-11-15T19:43:04Z</time>
      </trkpt>
      <trkpt lat="60.0188754" lon="15.7622575">
        <ele>9</ele>
        <time>2012-11-15T19:43:05Z</time>
      </trkpt>
      <trkpt lat="60.0186672" lon="15.7624811">
        <ele>7.8</ele>
        <time>2012-11-15T19:43:09Z</time>
      </trkpt>
      <trkpt lat="60.018625" lon="15.7625494">
        <ele>7.8</ele>
        <time>2012-11-15T19:43:10Z</time>
      </trkpt>
      <trkpt lat="60.0185227" lon="15.7628721">
        <ele>7.8</ele>
        <time>2012-11-15T19:43:13Z</time>
      </trkpt>
      <trkpt lat="60.018468" lon="15.7632463">
        <ele>7.8</ele>
        <time>2012-11-15T19:43:16Z</time>
      </trkpt>
      <trkpt lat="60.0184364" lon="15.7634985">
        <ele>7.8</ele>
        <time>2012-11-15T19:43:18Z</time>
      </trkpt>
      <trkpt lat="60.0184215" lon="15.7636334">
        <ele>6.6</ele>
        <time>2012-11-15T19:43:19Z</time>
      </trkpt>
      <trkpt lat="60.0183344" lon="15.7642459">
        <ele>5.6</ele>
        <time>2012-11-15T19:43:24Z</time>
      </trkpt>
      <trkpt lat="60.0183068" lon="15.7643442">
        <ele>5.6</ele>
        <time>2012-11-15T19:43:25Z</time>
      </trkpt>
      <trkpt lat="60.0182737" lon="15.7644273">
        <ele>4.6</ele>
        <time>2012-11-15T19:43:26Z</time>
      </trkpt>
      <trkpt lat="60.018194" lon="15.7645309">
        <ele>4.6</ele>
        <time>2012-11-15T19:43:28Z</time>
      </trkpt>
      <trkpt lat="60.0180444" lon="15.7645604">
        <ele>4.6</ele>
        <time>2012-11-15T19:43:32Z</time>
      </trkpt>
      <trkpt lat="60.0178376" lon="15.7645283">
        <ele>4.6</ele>
        <time>2012-11-15T19:43:38Z</time>
        <extensions><gpxtpx:TrackPointExtension><gpxtpx:hr>80</gpxtpx:hr></gpxtpx:TrackPointExtension></extensions>
      </trkpt>
      <trkpt lat="60.0175387" lon="15.7645069">
        <ele>4.6</ele>
        <time>2012-11-15T19:43:44Z</time>
      </trkpt>
      <trkpt lat="60.0170875" lon="15.7644466">
        <ele>3.4</ele>
        <time>2012-11-15T19:43:52Z</time>
      </trkpt>
      <trkpt lat="60.0166244" lon="15.76439">
        <ele>3.4</ele>
        <time>2012-11-15T19:44:00Z</time>
      </trkpt>
      <trkpt lat="60.0162314" lon="15.7643148">
        <ele>3.4</ele>
        <time>2012-11-15T19:44:07Z</time>
      </trkpt>
      <trkpt lat="60.0161795" lon="15.7642775">
        <ele>2.4</ele>
        <time>2012-11-15T19:44:08Z</time>
      </trkpt>
      <trkpt lat="60.016027" lon="15.764075">
        <ele>2.4</ele>
        <time>2012-11-15T19:44:11Z</time>
      </trkpt>
      <trkpt lat="60.0159317" lon="15.7638457">
        <ele>2.4</ele>
        <time>2012-11-15T19:44:14Z</time>
      </trkpt>
      <trkpt lat="60.0159077" lon="15.7637665">
        <ele>2.4</ele>
        <time>2012-11-15T19:44:15Z</time>
      </trkpt>
      <trkpt lat="60.0158914" lon="15.7636834">
        <ele>2.4</ele>
        <time>2012-11-15T19:44:16Z</time>
      </trkpt>
      <trkpt lat="60.0158974" lon="15.7633667">
        <ele>2.4</ele>
        <time>2012-11-15T19:44:19Z</time>
        <extensions><gpxtpx:TrackPointExtension><gpxtpx:hr>80</gpxtpx:hr></gpxtpx:TrackPointExtension></extensions>
      </trkpt>
      <trkpt lat="60.0159218" lon="15.7632606">
        <ele>1.2</ele>
        <time>2012-11-15T19:44:20Z</time>
        <extensions><gpxtpx:TrackPointExtension><gpxtpx:hr>80</gpxtpx:hr></gpxtpx:TrackPointExtension></extensions>
      </trkpt>
      <trkpt lat="60.0159572" lon="15.7631213">
        <ele>1.2</ele>
        <time>2012-11-15T19:44:21Z</time>
        <extensions><gpxtpx:TrackPointExtension><gpxtpx:hr>80</gpxtpx:hr></gpxtpx:TrackPointExtension></extensions>
      </trkpt>
      <trkpt lat="60.0159909" lon="15.7629955">
        <ele>0.2</ele>
        <time>2012-11-15T19:44:22Z</time>
      </trkpt>
      <trkpt lat="60.0160355" lon="15.7628375">
        <ele>0</ele>
        <time>2012-11-15T19:44:23Z</time>
      </trkpt>
      <trkpt lat="60.0161273" lon="15.7625179">
        <ele>0</ele>
        <time>2012-11-15T19:44:25Z</time>
      </trkpt>
      <trkpt lat="60.016168" lon="15.7623789">
        <ele>0</ele>
        <time>2012-11-15T19:44:26Z</time>
      </trkpt>
      <trkpt lat="60.0164545" lon="15.7613805">
        <ele>0</ele>
        <time>2012-11-15T19:44:32Z</time>
      </trkpt>
      <trkpt lat="60.0164838" lon="15.7612363">
        <ele>0</ele>
        <time>2012-11-15T19:44:33Z</time>
      </trkpt>
      <trkpt lat="60.0165296" lon="15.7608011">
        <ele>0</ele>
        <time>2012-11-15T19:44:36Z</time>
      </trkpt>
      <trkpt lat="60.0165344" lon="15.7605812">
        <ele>0</ele>
        <time>2012-11-15T19:44:38Z</time>
      </trkpt>
      <trkpt lat="60.0165058" lon="15.7602271">
        <ele>0</ele>
        <time>2012-11-15T19:44:41Z</time>
      </trkpt>
      <trkpt lat="60.0163642" lon="15.7593002">
        <ele>0</ele>
        <time>2012-11-15T19:44:49Z</time>
      </trkpt>
      <trkpt lat="60.0162489" lon="15.7586233">
        <ele>0</ele>
        <time>2012-11-15T19:44:55Z</time>
      </trkpt>
      <trkpt lat="60.01622" lon="15.7584343">
        <ele>0</ele>
        <time>2012-11-15T19:44:57Z</time>
      </trkpt>
      <trkpt lat="60.0162093" lon="15.7583809">
        <ele>0.6</ele>
        <time>2012-11-15T19:44:58Z</time>
      </trkpt>
      <trkpt lat="60.0161688" lon="15.7581821">
        <ele>0.6</ele>
        <time>2012-11-15T19:45:00Z</time>
      </trkpt>
      <trkpt lat="60.0161509" lon="15.7581003">
        <ele>1.6</ele>
        <time>2012-11-15T19:45:01Z</time>
      </trkpt>
      <trkpt lat="60.0161346" lon="15.7580109">
        <ele>1.6</ele>
        <time>2012-11-15T19:45:02Z</time>
      </trkpt>
      <trkpt lat="60.0161086" lon="15.7578426">
        <ele>2.6</ele>
        <time>2012-11-15T19:45:04Z</time>
      </trkpt>
      <trkpt lat="60.0160525" lon="15.7574925">
        <ele>3.8</ele>
        <time>2012-11-15T19:45:08Z</time>
      </trkpt>
      <trkpt lat="60.016008" lon="15.7572237">
        <ele>3.8</ele>
        <time>2012-11-15T19:45:11Z</time>
      </trkpt>
      <trkpt lat="60.0159085" lon="15.7565967">
        <ele>4.8</ele>
        <time>2012-11-15T19:45:18Z</time>
      </trkpt>
      <trkpt lat="60.015889" lon="15.7565032">
        <ele>4.8</ele>
        <time>2012-11-15T19:45:19Z</time>
      </trkpt>
      <trkpt lat="60.0157948" lon="15.7561879">
        <ele>4.8</ele>
        <time>2012-11-15T19:45:23Z</time>
      </trkpt>
      <trkpt lat="60.0157126" lon="15.7560803">
        <ele>4.8</ele>
        <time>2012-11-15T19:45:25Z</time>
      </trkpt>
      <trkpt lat="60.0156165" lon="15.756029">
        <ele>4.8</ele>
        <time>2012-11-15T19:45:27Z</time>
        <extensions><gpxtpx:TrackPointExtension><gpxtpx:hr>80</gpxtpx:hr></gpxtpx:TrackPointExtension></extensions>
      </trkpt>
      <trkpt lat="60.0154758" lon="15.7559543">
        <ele>4.8</ele>
        <time>2012-11-15T19:45:30Z</time>
        <extensions><gpxtpx:TrackPointExtension><gpxtpx:hr>80</gpxtpx:hr></gpxtpx:TrackPointExtension></extensions>
      </trkpt>
      <trkpt lat="60.0152855" lon="15.7558592">
        <ele>4.8</ele>
        <time>2012-11-15T19:45:34Z</time>
      </trkpt>
      <trkpt lat="60.0151423" lon="15.755751">
        <ele>4.8</ele>
        <time>2012-11-15T19:45:37Z</time>
      </trkpt>
      <trkpt lat="60.0148061" lon="15.7555948">
        <ele>4.8</ele>
        <time>2012-11-15T19:45:43Z</time>
      </trkpt>
      <trkpt lat="60.0144176" lon="15.755414">
        <ele>1.6</ele>
        <time>2012-11-15T19:45:49Z</time>
      </trkpt>
      <trkpt lat="60.0143399" lon="15.7553728">
        <ele>1.6</ele>
        <time>2012-11-15T19:45:50Z</time>
      </trkpt>
      <trkpt lat="60.0142659" lon="15.7553344">
        <ele>0.6</ele>
        <time>2012-11-15T19:45:51Z</time>
      </trkpt>
      <trkpt lat="60.014054" lon="15.7552225">
        <ele>0</ele>
        <time>2012-11-15T19:45:54Z</time>
      </trkpt>
      <trkpt lat="60.0138463" lon="15.7551216">
        <ele>0</ele>
        <time>2012-11-15T19:45:57Z</time>
      </trkpt>
      <trkpt lat="60.013523" lon="15.7549601">
        <ele>0</ele>
        <time>2012-11-15T19:46:02Z</time>
      </trkpt>
      <trkpt lat="60.0133229" lon="15.7548823">
        <ele>0</ele>
        <time>2012-11-15T19:46:05Z</time>
      </trkpt>
      <trkpt lat="60.0132105" lon="15.7548647">
        <ele>0</ele>
        <time>2012-11-15T19:46:08Z</time>
      </trkpt>
      <trkpt lat="60.013159" lon="15.7548694">
        <ele>0</ele>
        <time>2012-11-15T19:46:10Z</time>
      </trkpt>
      <trkpt lat="60.0131379" lon="15.7548569">
        <ele>0</ele>
        <time>2012-11-15T19:46:11Z</time>
      </trkpt>
      <trkpt lat="60.0130998" lon="15.7548549">
        <ele>0</ele>
        <time>2012-11-15T19:46:13Z</time>
        <extensions><gpxtpx:TrackPointExtension><gpxtpx:hr>80</gpxtpx:hr></gpxtpx:TrackPointExtension></extensions>
      </trkpt>
      <trkpt lat="60.01303" lon="15.7549188">
        <ele>0</ele>
        <time>2012-11-15T19:46:16Z</time>
        <extensions><gpxtpx:TrackPointExtension><gpxtpx:hr>71</gpxtpx:hr></gpxtpx:TrackPointExtension></extensions>
      </trkpt>
      <trkpt lat="60.0130026" lon="15.7549406">
        <ele>0</ele>
        <time>2012-11-15T19:46:17Z</time>
        <extensions><gpxtpx:TrackPointExtension><gpxtpx:hr>71</gpxtpx:hr></gpxtpx:TrackPointExtension></extensions>
      </trkpt>
      <trkpt lat="60.0128662" lon="15.7551477">
        <ele>0</ele>
        <time>2012-11-15T19:46:22Z</time>
      </trkpt>
      <trkpt lat="60.012789" lon="15.7553094">
        <ele>0</ele>
        <time>2012-11-15T19:46:25Z</time>
        <extensions><gpxtpx:TrackPointExtension><gpxtpx:hr>63</gpxtpx:hr></gpxtpx:TrackPointExtension></extensions>
      </trkpt>
      <trkpt lat="60.0127637" lon="15.755359">
        <ele>0</ele>
        <time>2012-11-15T19:46:26Z</time>
        <extensions><gpxtpx:TrackPointExtension><gpxtpx:hr>63</gpxtpx:hr></gpxtpx:TrackPointExtension></extensions>
      </trkpt>
      <trkpt lat="60.0127154" lon="15.7554626">
        <ele>0</ele>
        <time>2012-11-15T19:46:28Z</time>
        <extensions><gpxtpx:TrackPointExtension><gpxtpx:hr>63</gpxtpx:hr></gpxtpx:TrackPointExtension></extensions>
      </trkpt>
      <trkpt lat="60.012504" lon="15.7559662">
        <ele>0</ele>
        <time>2012-11-15T19:46:36Z</time>
      </trkpt>
      <trkpt lat="60.0124576" lon="15.7560732">
        <ele>0</ele>
        <time>2012-11-15T19:46:38Z</time>
      </trkpt>
      <trkpt lat="60.0123128" lon="15.756425">
        <ele>0</ele>
        <time>2012-11-15T19:46:44Z</time>
      </trkpt>
      <trkpt lat="60.0122274" lon="15.7566278">
        <ele>0</ele>
        <time>2012-11-15T19:46:47Z</time>
      </trkpt>
      <trkpt lat="60.0121298" lon="15.7569137">
        <ele>0</ele>
        <time>2012-11-15T19:46:51Z</time>
      </trkpt>
      <trkpt lat="60.0120613" lon="15.7571297">
        <ele>0</ele>
        <time>2012-11-15T19:46:54Z</time>
      </trkpt>
      <trkpt lat="60.0120013" lon="15.7573576">
        <ele>0</ele>
        <time>2012-11-15T19:46:57Z</time>
      </trkpt>
      <trkpt lat="60.0119792" lon="15.7574331">
        <ele>0</ele>
        <time>2012-11-15T19:46:58Z</time>
      </trkpt>
      <trkpt lat="60.0118681" lon="15.7578263">
        <ele>0</ele>
        <time>2012-11-15T19:47:02Z</time>
      </trkpt>
      <trkpt lat="60.0117402" lon="15.7584038">
        <ele>0</ele>
        <time>2012-11-15T19:47:08Z</time>
      </trkpt>
      <trkpt lat="60.0116619" lon="15.7589976">
        <ele>0</ele>
        <time>2012-11-15T19:47:14Z</time>
        <extensions><gpxtpx:TrackPointExtension><gpxtpx:hr>63</gpxtpx:hr></gpxtpx:TrackPointExtension></extensions>
      </trkpt>
      <trkpt lat="60.0116531" lon="15.7590936">
        <ele>0</ele>
        <time>2012-11-15T19:47:15Z</time>
      </trkpt>
      <trkpt lat="60.0116409" lon="15.759268">
        <ele>0</ele>
        <time>2012-11-15T19:47:17Z</time>
      </trkpt>
      <trkpt lat="60.0116339" lon="15.759448">
        <ele>0</ele>
        <time>2012-11-15T19:47:19Z</time>
      </trkpt>
      <trkpt lat="60.011609" lon="15.7598692">
        <ele>0.4</ele>
        <time>2012-11-15T19:47:24Z</time>
      </trkpt>
      <trkpt lat="60.011611" lon="15.7600079">
        <ele>0.4</ele>
        <time>2012-11-15T19:47:26Z</time>
      </trkpt>
      <trkpt lat="60.0116167" lon="15.7600754">
        <ele>1.4</ele>
        <time>2012-11-15T19:47:27Z</time>
      </trkpt>
      <trkpt lat="60.0116049" lon="15.7604452">
        <ele>1.4</ele>
        <time>2012-11-15T19:47:32Z</time>
      </trkpt>
      <trkpt lat="60.011618" lon="15.7606082">
        <ele>1.4</ele>
        <time>2012-11-15T19:47:34Z</time>
      </trkpt>
      <trkpt lat="60.0116365" lon="15.7607884">
        <ele>1.4</ele>
        <time>2012-11-15T19:47:36Z</time>
      </trkpt>
      <trkpt lat="60.011679" lon="15.761114">
        <ele>1.4</ele>
        <time>2012-11-15T19:47:40Z</time>
      </trkpt>
      <trkpt lat="60.0116219" lon="15.7615177">
        <ele>1.4</ele>
        <time>2012-11-15T19:47:44Z</time>
      </trkpt>
      <trkpt lat="60.0114941" lon="15.7619085">
        <ele>1.4</ele>
        <time>2012-11-15T19:47:48Z</time>
        <extensions><gpxtpx:TrackPointExtension><gpxtpx:hr>55</gpxtpx:hr></gpxtpx:TrackPointExtension></extensions>
      </trkpt>
      <trkpt lat="60.0114584" lon="15.7620067">
        <ele>1.4</ele>
        <time>2012-11-15T19:47:49Z</time>
        <extensions><gpxtpx:TrackPointExtension><gpxtpx:hr>55</gpxtpx:hr></gpxtpx:TrackPointExtension></extensions>
      </trkpt>
      <trkpt lat="60.0114278" lon="15.7620974">
        <ele>1.4</ele>
        <time>2012-11-15T19:47:50Z</time>
        <extensions><gpxtpx:TrackPointExtension><gpxtpx:hr>55</gpxtpx:hr></gpxtpx:TrackPointExtension></extensions>
      </trkpt>
      <trkpt lat="60.0113948" lon="15.7621781">
        <ele>1.4</ele>
        <time>2012-11-15T19:47:51Z</time>
        <extensions><gpxtpx:TrackPointExtension><gpxtpx:hr>55</gpxtpx:hr></gpxtpx:TrackPointExtension></extensions>
      </trkpt>
      <trkpt lat="60.0112563" lon="15.7625506">
        <ele>1.4</ele>
        <time>2012-11-15T19:47:55Z</time>
        <extensions><gpxtpx:TrackPointExtension><gpxtpx:hr>55</gpxtpx:hr></gpxtpx:TrackPointExtension></extensions>
      </trkpt>
      <trkpt lat="60.0111582" lon="15.7628064">
        <ele>1.4</ele>
        <time>2012-11-15T19:47:58Z</time>
        <extensions><gpxtpx:TrackPointExtension><gpxtpx:hr>55</gpxtpx:hr></gpxtpx:TrackPointExtension></extensions>
      </trkpt>
      <trkpt lat="60.0110829" lon="15.7629606">
        <ele>1.4</ele>
        <time>2012-11-15T19:48:00Z</time>
        <extensions><gpxtpx:TrackPointExtension><gpxtpx:hr>55</gpxtpx:hr></gpxtpx:TrackPointExtension></extensions>
      </trkpt>
      <trkpt lat="60.0109014" lon="15.7633817">
        <ele>1.4</ele>
        <time>2012-11-15T19:48:05Z</time>
        <extensions><gpxtpx:TrackPointExtension><gpxtpx:hr>55</gpxtpx:hr></gpxtpx:TrackPointExtension></extensions>
      </trkpt>
      <trkpt lat="60.0107659" lon="15.763745">
        <ele>1.4</ele>
        <time>2012-11-15T19:48:10Z</time>
        <extensions><gpxtpx:TrackPointExtension><gpxtpx:hr>55</gpxtpx:hr></gpxtpx:TrackPointExtension></extensions>
      </trkpt>
      <trkpt lat="60.010618" lon="15.7639429">
        <ele>1.4</ele>
        <time>2012-11-15T19:48:15Z</time>
        <extensions><gpxtpx:TrackPointExtension><gpxtpx:hr>53</gpxtpx:hr></gpxtpx:TrackPointExtension></extensions>
      </trkpt>
      <trkpt lat="60.0105939" lon="15.7639925">
        <ele>1.4</ele>
        <time>2012-11-15T19:48:16Z</time>
        <extensions><gpxtpx:TrackPointExtension><gpxtpx:hr>53</gpxtpx:hr></gpxtpx:TrackPointExtension></extensions>
      </trkpt>
      <trkpt lat="60.0105074" lon="15.7641342">
        <ele>1.4</ele>
        <time>2012-11-15T19:48:19Z</time>
        <extensions><gpxtpx:TrackPointExtension><gpxtpx:hr>53</gpxtpx:hr></gpxtpx:TrackPointExtension></extensions>
      </trkpt>
      <trkpt lat="60.0104428" lon="15.764225">
        <ele>2.6</ele>
        <time>2012-11-15T19:48:21Z</time>
        <extensions><gpxtpx:TrackPointExtension><gpxtpx:hr>53</gpxtpx:hr></gpxtpx:TrackPointExtension></extensions>
      </trkpt>
      <trkpt lat="60.01035" lon="15.7643498">
        <ele>3.8</ele>
        <time>2012-11-15T19:48:24Z</time>
        <extensions><gpxtpx:TrackPointExtension><gpxtpx:hr>53</gpxtpx:hr></gpxtpx:TrackPointExtension></extensions>
      </trkpt>
      <trkpt lat="60.010196" lon="15.7645734">
        <ele>3.8</ele>
        <time>2012-11-15T19:48:29Z</time>
        <extensions><gpxtpx:TrackPointExtension><gpxtpx:hr>53</gpxtpx:hr></gpxtpx:TrackPointExtension></extensions>
      </trkpt>
      <trkpt lat="60.0100063" lon="15.7648525">
        <ele>3.8</ele>
        <time>2012-11-15T19:48:34Z</time>
      </trkpt>
      <trkpt lat="60.0099604" lon="15.7649101">
        <ele>3.8</ele>
        <time>2012-11-15T19:48:35Z</time>
      </trkpt>
      <trkpt lat="60.009788" lon="15.7651294">
        <ele>3.8</ele>
        <time>2012-11-15T19:48:39Z</time>
      </trkpt>
      <trkpt lat="60.0097514" lon="15.7651735">
        <ele>5</ele>
        <time>2012-11-15T19:48:40Z</time>
      </trkpt>
      <trkpt lat="60.0096743" lon="15.7652796">
        <ele>6</ele>
        <time>2012-11-15T19:48:42Z</time>
      </trkpt>
      <trkpt lat="60.0094983" lon="15.765544">
        <ele>6</ele>
        <time>2012-11-15T19:48:47Z</time>
      </trkpt>
      <trkpt lat="60.0092474" lon="15.7659157">
        <ele>6</ele>
        <time>2012-11-15T19:48:53Z</time>
      </trkpt>
      <trkpt lat="60.0090744" lon="15.7661962">
        <ele>7</ele>
        <time>2012-11-15T19:48:58Z</time>
      </trkpt>
      <trkpt lat="60.0090402" lon="15.7662526">
        <ele>7</ele>
        <time>2012-11-15T19:48:59Z</time>
      </trkpt>
      <trkpt lat="60.0090101" lon="15.7663021">
        <ele>7</ele>
        <time>2012-11-15T19:49:00Z</time>
      </trkpt>
      <trkpt lat="60.0088783" lon="15.7665898">
        <ele>7</ele>
        <time>2012-11-15T19:49:05Z</time>
      </trkpt>
      <trkpt lat="60.008845" lon="15.766647">
        <ele>7</ele>
        <time>2012-11-15T19:49:06Z</time>
      </trkpt>
      <trkpt lat="60.0087106" lon="15.7668755">
        <ele>7</ele>
        <time>2012-11-15T19:49:10Z</time>
        <extensions><gpxtpx:TrackPointExtension><gpxtpx:hr>53</gpxtpx:hr></gpxtpx:TrackPointExtension></extensions>
      </trkpt>
      <trkpt lat="60.0086239" lon="15.7669375">
        <ele>7</ele>
        <time>2012-11-15T19:49:13Z</time>
        <extensions><gpxtpx:TrackPointExtension><gpxtpx:hr>53</gpxtpx:hr></gpxtpx:TrackPointExtension></extensions>
      </trkpt>
      <trkpt lat="60.0085314" lon="15.7669669">
        <ele>7</ele>
        <time>2012-11-15T19:49:16Z</time>
      </trkpt>
      <trkpt lat="60.0084691" lon="15.766989">
        <ele>7</ele>
        <time>2012-11-15T19:49:17Z</time>
        <extensions><gpxtpx:TrackPointExtension><gpxtpx:hr>47</gpxtpx:hr></gpxtpx:TrackPointExtension></extensions>
      </trkpt>
      <trkpt lat="60.0084174" lon="15.7669898">
        <ele>7</ele>
        <time>2012-11-15T19:49:18Z</time>
        <extensions><gpxtpx:TrackPointExtension><gpxtpx:hr>47</gpxtpx:hr></gpxtpx:TrackPointExtension></extensions>
      </trkpt>
      <trkpt lat="60.0083682" lon="15.7669985">
        <ele>7</ele>
        <time>2012-11-15T19:49:19Z</time>
        <extensions><gpxtpx:TrackPointExtension><gpxtpx:hr>47</gpxtpx:hr></gpxtpx:TrackPointExtension></extensions>
      </trkpt>
      <trkpt lat="60.0082398" lon="15.7670286">
        <ele>7</ele>
        <time>2012-11-15T19:49:22Z</time>
      </trkpt>
      <trkpt lat="60.008124" lon="15.7670437">
        <ele>8.2</ele>
        <time>2012-11-15T19:49:24Z</time>
      </trkpt>
      <trkpt lat="60.0080721" lon="15.76704">
        <ele>8.2</ele>
        <time>2012-11-15T19:49:25Z</time>
      </trkpt>
      <trkpt lat="60.008021" lon="15.7670318">
        <ele>9.4</ele>
        <time>2012-11-15T19:49:26Z</time>
      </trkpt>
      <trkpt lat="60.0079756" lon="15.767017">
        <ele>9.4</ele>
        <time>2012-11-15T19:49:27Z</time>
      </trkpt>
      <trkpt lat="60.0078878" lon="15.7669878">
        <ele>9.4</ele>
        <time>2012-11-15T19:49:29Z</time>
        <extensions><gpxtpx:TrackPointExtension><gpxtpx:hr>42</gpxtpx:hr></gpxtpx:TrackPointExtension></extensions>
      </trkpt>
      <trkpt lat="60.0078516" lon="15.7669661">
        <ele>9.4</ele>
        <time>2012-11-15T19:49:30Z</time>
        <extensions><gpxtpx:TrackPointExtension><gpxtpx:hr>42</gpxtpx:hr></gpxtpx:TrackPointExtension></extensions>
      </trkpt>
      <trkpt lat="60.007821" lon="15.7669541">
        <ele>10.4</ele>
        <time>2012-11-15T19:49:31Z</time>
        <extensions><gpxtpx:TrackPointExtension><gpxtpx:hr>42</gpxtpx:hr></gpxtpx:TrackPointExtension></extensions>
      </trkpt>
      <trkpt lat="60.0077939" lon="15.766944">
        <ele>10.4</ele>
        <time>2012-11-15T19:49:32Z</time>
        <extensions><gpxtpx:TrackPointExtension><gpxtpx:hr>42</gpxtpx:hr></gpxtpx:TrackPointExtension></extensions>
      </trkpt>
      <trkpt lat="60.007737" lon="15.7669115">
        <ele>11.6</ele>
        <time>2012-11-15T19:49:34Z</time>
        <extensions><gpxtpx:TrackPointExtension><gpxtpx:hr>42</gpxtpx:hr></gpxtpx:TrackPointExtension></extensions>
      </trkpt>
      <trkpt lat="60.0076753" lon="15.7668757">
        <ele>12.6</ele>
        <time>2012-11-15T19:49:36Z</time>
        <extensions><gpxtpx:TrackPointExtension><gpxtpx:hr>42</gpxtpx:hr></gpxtpx:TrackPointExtension></extensions>
      </trkpt>
      <trkpt lat="60.0076328" lon="15.7668449">
        <ele>12.6</ele>
        <time>2012-11-15T19:49:38Z</time>
        <extensions><gpxtpx:TrackPointExtension><gpxtpx:hr>42</gpxtpx:hr></gpxtpx:TrackPointExtension></extensions>
      </trkpt>
      <trkpt lat="60.007552" lon="15.7668076">
        <ele>13.8</ele>
        <time>2012-11-15T19:49:41Z</time>
        <extensions><gpxtpx:TrackPointExtension><gpxtpx:hr>42</gpxtpx:hr></gpxtpx:TrackPointExtension></extensions>
      </trkpt>
      <trkpt lat="60.0075177" lon="15.7667823">
        <ele>13.8</ele>
        <time>2012-11-15T19:49:42Z</time>
        <extensions><gpxtpx:TrackPointExtension><gpxtpx:hr>42</gpxtpx:hr></gpxtpx:TrackPointExtension></extensions>
      </trkpt>
      <trkpt lat="60.0073787" lon="15.7667064">
        <ele>14.8</ele>
        <time>2012-11-15T19:49:46Z</time>
      </trkpt>
      <trkpt lat="60.0073484" lon="15.7666853">
        <ele>14.8</ele>
        <time>2012-11-15T19:49:47Z</time>
      </trkpt>
      <trkpt lat="60.0072494" lon="15.7666292">
        <ele>15.8</ele>
        <time>2012-11-15T19:49:50Z</time>
        <extensions><gpxtpx:TrackPointExtension><gpxtpx:hr>42</gpxtpx:hr></gpxtpx:TrackPointExtension></extensions>
      </trkpt>
      <trkpt lat="60.0071138" lon="15.7665304">
        <ele>15.8</ele>
        <time>2012-11-15T19:49:54Z</time>
        <extensions><gpxtpx:TrackPointExtension><gpxtpx:hr>42</gpxtpx:hr></gpxtpx:TrackPointExtension></extensions>
      </trkpt>
      <trkpt lat="60.0070788" lon="15.7665067">
        <ele>16.8</ele>
        <time>2012-11-15T19:49:55Z</time>
        <extensions><gpxtpx:TrackPointExtension><gpxtpx:hr>42</gpxtpx:hr></gpxtpx:TrackPointExtension></extensions>
      </trkpt>
      <trkpt lat="60.0069063" lon="15.7663843">
        <ele>16.8</ele>
        <time>2012-11-15T19:50:00Z</time>
      </trkpt>
      <trkpt lat="60.006795" lon="15.7663326">
        <ele>16.8</ele>
        <time>2012-11-15T19:50:05Z</time>
        <extensions><gpxtpx:TrackPointExtension><gpxtpx:hr>42</gpxtpx:hr></gpxtpx:TrackPointExtension></extensions>
      </trkpt>
      <trkpt lat="60.006789" lon="15.7663345">
        <ele>16.8</ele>
        <time>2012-11-15T19:50:07Z</time>
        <extensions><gpxtpx:TrackPointExtension><gpxtpx:hr>42</gpxtpx:hr></gpxtpx:TrackPointExtension></extensions>
      </trkpt>
      <trkpt lat="60.0066611" lon="15.7663181">
        <ele>16.8</ele>
        <time>2012-11-15T19:50:32Z</time>
      </trkpt>
      <trkpt lat="60.006645" lon="15.7663058">
        <ele>16.8</ele>
        <time>2012-11-15T19:50:33Z</time>
      </trkpt>
      <trkpt lat="60.0066023" lon="15.7662626">
        <ele>17.8</ele>
        <time>2012-11-15T19:50:35Z</time>
      </trkpt>
      <trkpt lat="60.0064942" lon="15.7661637">
        <ele>17.8</ele>
        <time>2012-11-15T19:50:39Z</time>
      </trkpt>
      <trkpt lat="60.006361" lon="15.7660613">
        <ele>18.8</ele>
        <time>2012-11-15T19:50:43Z</time>
      </trkpt>
      <trkpt lat="60.0061847" lon="15.765916">
        <ele>18.8</ele>
        <time>2012-11-15T19:50:48Z</time>
      </trkpt>
      <trkpt lat="60.0059897" lon="15.7657504">
        <ele>19.8</ele>
        <time>2012-11-15T19:50:53Z</time>
      </trkpt>
      <trkpt lat="60.0057934" lon="15.7655945">
        <ele>19.8</ele>
        <time>2012-11-15T19:50:58Z</time>
      </trkpt>
      <trkpt lat="60.005583" lon="15.7654393">
        <ele>20.8</ele>
        <time>2012-11-15T19:51:03Z</time>
      </trkpt>
      <trkpt lat="60.0054941" lon="15.7653679">
        <ele>20.8</ele>
        <time>2012-11-15T19:51:05Z</time>
      </trkpt>
      <trkpt lat="60.0052073" lon="15.7651277">
        <ele>20.8</ele>
        <time>2012-11-15T19:51:12Z</time>
      </trkpt>
      <trkpt lat="60.0051241" lon="15.7650597">
        <ele>22</ele>
        <time>2012-11-15T19:51:14Z</time>
      </trkpt>
      <trkpt lat="60.0049294" lon="15.7648873">
        <ele>23</ele>
        <time>2012-11-15T19:51:19Z</time>
      </trkpt>
      <trkpt lat="60.004892" lon="15.7648518">
        <ele>23</ele>
        <time>2012-11-15T19:51:20Z</time>
      </trkpt>
      <trkpt lat="60.0047429" lon="15.7647063">
        <ele>24</ele>
        <time>2012-11-15T19:51:24Z</time>
      </trkpt>
      <trkpt lat="60.0046516" lon="15.7645854">
        <ele>24</ele>
        <time>2012-11-15T19:51:27Z</time>
      </trkpt>
      <trkpt lat="60.0046212" lon="15.7645502">
        <ele>25</ele>
        <time>2012-11-15T19:51:28Z</time>
      </trkpt>
      <trkpt lat="60.004533" lon="15.7644192">
        <ele>25</ele>
        <time>2012-11-15T19:51:31Z</time>
      </trkpt>
      <trkpt lat="60.0045053" lon="15.7643743">
        <ele>26.2</ele>
        <time>2012-11-15T19:51:32Z</time>
      </trkpt>
      <trkpt lat="60.004366" lon="15.7641641">
        <ele>27.2</ele>
        <time>2012-11-15T19:51:37Z</time>
        <extensions><gpxtpx:TrackPointExtension><gpxtpx:hr>42</gpxtpx:hr></gpxtpx:TrackPointExtension></extensions>
      </trkpt>
      <trkpt lat="60.0042296" lon="15.7639348">
        <ele>28.2</ele>
        <time>2012-11-15T19:51:42Z</time>
      </trkpt>
      <trkpt lat="60.0042032" lon="15.7638853">
        <ele>28.2</ele>
        <time>2012-11-15T19:51:43Z</time>
      </trkpt>
      <trkpt lat="60.0040088" lon="15.7635206">
        <ele>29.2</ele>
        <time>2012-11-15T19:51:50Z</time>
      </trkpt>
      <trkpt lat="60.0037964" lon="15.7630528">
        <ele>29.2</ele>
        <time>2012-11-15T19:51:59Z</time>
      </trkpt>
      <trkpt lat="60.0036633" lon="15.7628071">
        <ele>29.2</ele>
        <time>2012-11-15T19:52:04Z</time>
      </trkpt>
      <trkpt lat="60.0034569" lon="15.7624288">
        <ele>29.2</ele>
        <time>2012-11-15T19:52:11Z</time>
      </trkpt>
      <trkpt lat="60.0032338" lon="15.762077">
        <ele>29.2</ele>
        <time>2012-11-15T19:52:18Z</time>
      </trkpt>
      <trkpt lat="60.0030059" lon="15.761684">
        <ele>29.2</ele>
        <time>2012-11-15T19:52:24Z</time>
      </trkpt>
      <trkpt lat="60.0027366" lon="15.7612147">
        <ele>26.2</ele>
        <time>2012-11-15T19:52:30Z</time>
      </trkpt>
      <trkpt lat="60.0025377" lon="15.760882">
        <ele>25.2</ele>
        <time>2012-11-15T19:52:34Z</time>
      </trkpt>
      <trkpt lat="60.002337" lon="15.7605367">
        <ele>25.2</ele>
        <time>2012-11-15T19:52:38Z</time>
      </trkpt>
      <trkpt lat="60.0020598" lon="15.7600736">
        <ele>24.2</ele>
        <time>2012-11-15T19:52:44Z</time>
        <extensions><gpxtpx:TrackPointExtension><gpxtpx:hr>42</gpxtpx:hr></gpxtpx:TrackPointExtension></extensions>
      </trkpt>
      <trkpt lat="60.0020167" lon="15.7600024">
        <ele>24.2</ele>
        <time>2012-11-15T19:52:45Z</time>
      </trkpt>
      <trkpt lat="60.0017535" lon="15.7595673">
        <ele>24.2</ele>
        <time>2012-11-15T19:52:52Z</time>
      </trkpt>
      <trkpt lat="60.0015948" lon="15.7593022">
        <ele>27.2</ele>
        <time>2012-11-15T19:52:57Z</time>
      </trkpt>
      <trkpt lat="60.0015317" lon="15.7591959">
        <ele>27.2</ele>
        <time>2012-11-15T19:52:59Z</time>
      </trkpt>
      <trkpt lat="60.0014689" lon="15.7590886">
        <ele>28.2</ele>
        <time>2012-11-15T19:53:01Z</time>
      </trkpt>
      <trkpt lat="60.0013039" lon="15.7588591">
        <ele>29.4</ele>
        <time>2012-11-15T19:53:06Z</time>
      </trkpt>
      <trkpt lat="60.0012379" lon="15.7587824">
        <ele>29.4</ele>
        <time>2012-11-15T19:53:08Z</time>
      </trkpt>
      <trkpt lat="60.0010115" lon="15.7586038">
        <ele>30.4</ele>
        <time>2012-11-15T19:53:14Z</time>
      </trkpt>
      <trkpt lat="60.0009772" lon="15.7585871">
        <ele>30.4</ele>
        <time>2012-11-15T19:53:15Z</time>
      </trkpt>
      <trkpt lat="60.0008308" lon="15.7585599">
        <ele>31.4</ele>
        <time>2012-11-15T19:53:19Z</time>
      </trkpt>
      <trkpt lat="60.0007938" lon="15.7585642">
        <ele>31.4</ele>
        <time>2012-11-15T19:53:20Z</time>
      </trkpt>
      <trkpt lat="60.0006446" lon="15.7585785">
        <ele>32.6</ele>
        <time>2012-11-15T19:53:24Z</time>
      </trkpt>
      <trkpt lat="60.0004437" lon="15.7586181">
        <ele>33.6</ele>
        <time>2012-11-15T19:53:29Z</time>
      </trkpt>
      <trkpt lat="60.0004016" lon="15.7586264">
        <ele>33.6</ele>
        <time>2012-11-15T19:53:30Z</time>
      </trkpt>
      <trkpt lat="60.0002006" lon="15.7586505">
        <ele>34.8</ele>
        <time>2012-11-15T19:53:35Z</time>
      </trkpt>
      <trkpt lat="60.0001376" lon="15.7586336">
        <ele>34.8</ele>
        <time>2012-11-15T19:53:37Z</time>
      </trkpt>
      <trkpt lat="60.0000176" lon="15.7585633">
        <ele>35.8</ele>
        <time>2012-11-15T19:53:41Z</time>
      </trkpt>
      <trkpt lat="59.9999777" lon="15.7585528">
        <ele>35.8</ele>
        <time>2012-11-15T19:53:42Z</time>
      </trkpt>
      <trkpt lat="59.9998762" lon="15.7584878">
        <ele>36.8</ele>
        <time>2012-11-15T19:53:45Z</time>
      </trkpt>
      <trkpt lat="59.9997489" lon="15.7583911">
        <ele>36.8</ele>
        <time>2012-11-15T19:53:49Z</time>
      </trkpt>
      <trkpt lat="59.9997132" lon="15.7583679">
        <ele>38</ele>
        <time>2012-11-15T19:53:50Z</time>
      </trkpt>
      <trkpt lat="59.9995943" lon="15.7582618">
        <ele>38</ele>
        <time>2012-11-15T19:53:54Z</time>
      </trkpt>
      <trkpt lat="59.9995362" lon="15.7582155">
        <ele>39</ele>
        <time>2012-11-15T19:53:56Z</time>
      </trkpt>
      <trkpt lat="59.9994204" lon="15.75815">
        <ele>39</ele>
        <time>2012-11-15T19:54:00Z</time>
        <extensions><gpxtpx:TrackPointExtension><gpxtpx:hr>42</gpxtpx:hr></gpxtpx:TrackPointExtension></extensions>
      </trkpt>
      <trkpt lat="59.999344" lon="15.7580836">
        <ele>40.2</ele>
        <time>2012-11-15T19:54:03Z</time>
        <extensions><gpxtpx:TrackPointExtension><gpxtpx:hr>42</gpxtpx:hr></gpxtpx:TrackPointExtension></extensions>
      </trkpt>
      <trkpt lat="59.9993182" lon="15.7580645">
        <ele>40.2</ele>
        <time>2012-11-15T19:54:04Z</time>
        <extensions><gpxtpx:TrackPointExtension><gpxtpx:hr>42</gpxtpx:hr></gpxtpx:TrackPointExtension></extensions>
      </trkpt>
      <trkpt lat="59.9992596" lon="15.7580164">
        <ele>40.2</ele>
        <time>2012-11-15T19:54:06Z</time>
        <extensions><gpxtpx:TrackPointExtension><gpxtpx:hr>39</gpxtpx:hr></gpxtpx:TrackPointExtension></extensions>
      </trkpt>
      <trkpt lat="59.9992005" lon="15.7579639">
        <ele>41.2</ele>
        <time>2012-11-15T19:54:08Z</time>
        <extensions><gpxtpx:TrackPointExtension><gpxtpx:hr>39</gpxtpx:hr></gpxtpx:TrackPointExtension></extensions>
      </trkpt>
      <trkpt lat="59.9991367" lon="15.7579147">
        <ele>41.2</ele>
        <time>2012-11-15T19:54:10Z</time>
        <extensions><gpxtpx:TrackPointExtension><gpxtpx:hr>36</gpxtpx:hr></gpxtpx:TrackPointExtension></extensions>
      </trkpt>
      <trkpt lat="59.9990508" lon="15.7578076">
        <ele>42.2</ele>
        <time>2012-11-15T19:54:13Z</time>
        <extensions><gpxtpx:TrackPointExtension><gpxtpx:hr>36</gpxtpx:hr></gpxtpx:TrackPointExtension></extensions>
      </trkpt>
      <trkpt lat="59.9989887" lon="15.7577378">
        <ele>42.2</ele>
        <time>2012-11-15T19:54:15Z</time>
        <extensions><gpxtpx:TrackPointExtension><gpxtpx:hr>36</gpxtpx:hr></gpxtpx:TrackPointExtension></extensions>
      </trkpt>
      <trkpt lat="59.9989128" lon="15.7576203">
        <ele>43.4</ele>
        <time>2012-11-15T19:54:18Z</time>
        <extensions><gpxtpx:TrackPointExtension><gpxtpx:hr>36</gpxtpx:hr></gpxtpx:TrackPointExtension></extensions>
      </trkpt>
      <trkpt lat="59.9988521" lon="15.7575318">
        <ele>43.4</ele>
        <time>2012-11-15T19:54:20Z</time>
        <extensions><gpxtpx:TrackPointExtension><gpxtpx:hr>36</gpxtpx:hr></gpxtpx:TrackPointExtension></extensions>
      </trkpt>
      <trkpt lat="59.9988265" lon="15.757487">
        <ele>44.4</ele>
        <time>2012-11-15T19:54:21Z</time>
        <extensions><gpxtpx:TrackPointExtension><gpxtpx:hr>36</gpxtpx:hr></gpxtpx:TrackPointExtension></extensions>
      </trkpt>
      <trkpt lat="59.998719" lon="15.7573057">
        <ele>45.4</ele>
        <time>2012-11-15T19:54:25Z</time>
        <extensions><gpxtpx:TrackPointExtension><gpxtpx:hr>36</gpxtpx:hr></gpxtpx:TrackPointExtension></extensions>
      </trkpt>
      <trkpt lat="59.9986684" lon="15.7572312">
        <ele>45.4</ele>
        <time>2012-11-15T19:54:27Z</time>
        <extensions><gpxtpx:TrackPointExtension><gpxtpx:hr>36</gpxtpx:hr></gpxtpx:TrackPointExtension></extensions>
      </trkpt>
      <trkpt lat="59.9986164" lon="15.7571411">
        <ele>46.6</ele>
        <time>2012-11-15T19:54:29Z</time>
        <extensions><gpxtpx:TrackPointExtension><gpxtpx:hr>36</gpxtpx:hr></gpxtpx:TrackPointExtension></extensions>
      </trkpt>
      <trkpt lat="59.9985247" lon="15.7569423">
        <ele>46.6</ele>
        <time>2012-11-15T19:54:33Z</time>
        <extensions><gpxtpx:TrackPointExtension><gpxtpx:hr>36</gpxtpx:hr></gpxtpx:TrackPointExtension></extensions>
      </trkpt>
      <trkpt lat="59.9985025" lon="15.7568915">
        <ele>47.6</ele>
        <time>2012-11-15T19:54:34Z</time>
        <extensions><gpxtpx:TrackPointExtension><gpxtpx:hr>36</gpxtpx:hr></gpxtpx:TrackPointExtension></extensions>
      </trkpt>
      <trkpt lat="59.9984338" lon="15.7567462">
        <ele>48.6</ele>
        <time>2012-11-15T19:54:37Z</time>
        <extensions><gpxtpx:TrackPointExtension><gpxtpx:hr>36</gpxtpx:hr></gpxtpx:TrackPointExtension></extensions>
      </trkpt>
      <trkpt lat="59.9983884" lon="15.7566512">
        <ele>48.6</ele>
        <time>2012-11-15T19:54:39Z</time>
        <extensions><gpxtpx:TrackPointExtension><gpxtpx:hr>36</gpxtpx:hr></gpxtpx:TrackPointExtension></extensions>
      </trkpt>
      <trkpt lat="59.9983371" lon="15.7565603">
        <ele>49.6</ele>
        <time>2012-11-15T19:54:41Z</time>
        <extensions><gpxtpx:TrackPointExtension><gpxtpx:hr>36</gpxtpx:hr></gpxtpx:TrackPointExtension></extensions>
      </trkpt>
      <trkpt lat="59.998243" lon="15.7563863">
        <ele>50.8</ele>
        <time>2012-11-15T19:54:45Z</time>
        <extensions><gpxtpx:TrackPointExtension><gpxtpx:hr>36</gpxtpx:hr></gpxtpx:TrackPointExtension></extensions>
      </trkpt>
      <trkpt lat="59.9981598" lon="15.7562231">
        <ele>51.8</ele>
        <time>2012-11-15T19:54:49Z</time>
        <extensions><gpxtpx:TrackPointExtension><gpxtpx:hr>36</gpxtpx:hr></gpxtpx:TrackPointExtension></extensions>
      </trkpt>
      <trkpt lat="59.9980971" lon="15.7561051">
        <ele>51.8</ele>
        <time>2012-11-15T19:54:52Z</time>
        <extensions><gpxtpx:TrackPointExtension><gpxtpx:hr>36</gpxtpx:hr></gpxtpx:TrackPointExtension></extensions>
      </trkpt>
      <trkpt lat="59.9980442" lon="15.7560436">
        <ele>52.8</ele>
        <time>2012-11-15T19:54:54Z</time>
        <extensions><gpxtpx:TrackPointExtension><gpxtpx:hr>36</gpxtpx:hr></gpxtpx:TrackPointExtension></extensions>
      </trkpt>
      <trkpt lat="59.9979522" lon="15.7559283">
        <ele>54</ele>
        <time>2012-11-15T19:54:58Z</time>
        <extensions><gpxtpx:TrackPointExtension><gpxtpx:hr>36</gpxtpx:hr></gpxtpx:TrackPointExtension></extensions>
      </trkpt>
      <trkpt lat="59.9978362" lon="15.7558178">
        <ele>54</ele>
        <time>2012-11-15T19:55:04Z</time>
      </trkpt>
      <trkpt lat="59.9978096" lon="15.7557924">
        <ele>55</ele>
        <time>2012-11-15T19:55:05Z</time>
      </trkpt>
      <trkpt lat="59.9977525" lon="15.7557395">
        <ele>55</ele>
        <time>2012-11-15T19:55:08Z</time>
      </trkpt>
      <trkpt lat="59.9977357" lon="15.75572">
        <ele>55</ele>
        <time>2012-11-15T19:55:09Z</time>
      </trkpt>
      <trkpt lat="59.9977168" lon="15.755704">
        <ele>56.2</ele>
        <time>2012-11-15T19:55:10Z</time>
      </trkpt>
      <trkpt lat="59.9976341" lon="15.7556199">
        <ele>56.2</ele>
        <time>2012-11-15T19:55:14Z</time>
        <extensions><gpxtpx:TrackPointExtension><gpxtpx:hr>36</gpxtpx:hr></gpxtpx:TrackPointExtension></extensions>
      </trkpt>
      <trkpt lat="59.9975643" lon="15.7555622">
        <ele>57.2</ele>
        <time>2012-11-15T19:55:17Z</time>
        <extensions><gpxtpx:TrackPointExtension><gpxtpx:hr>36</gpxtpx:hr></gpxtpx:TrackPointExtension></extensions>
      </trkpt>
      <trkpt lat="59.9975202" lon="15.7555252">
        <ele>57.2</ele>
        <time>2012-11-15T19:55:19Z</time>
        <extensions><gpxtpx:TrackPointExtension><gpxtpx:hr>36</gpxtpx:hr></gpxtpx:TrackPointExtension></extensions>
      </trkpt>
      <trkpt lat="59.9974817" lon="15.7554978">
        <ele>58.2</ele>
        <time>2012-11-15T19:55:21Z</time>
        <extensions><gpxtpx:TrackPointExtension><gpxtpx:hr>36</gpxtpx:hr></gpxtpx:TrackPointExtension></extensions>
      </trkpt>
      <trkpt lat="59.9974081" lon="15.7554118">
        <ele>58.2</ele>
        <time>2012-11-15T19:55:25Z</time>
      </trkpt>
      <trkpt lat="59.9973833" lon="15.7553931">
        <ele>59.4</ele>
        <time>2012-11-15T19:55:26Z</time>
      </trkpt>
      <trkpt lat="59.9972784" lon="15.7552997">
        <ele>60.4</ele>
        <time>2012-11-15T19:55:31Z</time>
        <extensions><gpxtpx:TrackPointExtension><gpxtpx:hr>36</gpxtpx:hr></gpxtpx:TrackPointExtension></extensions>
      </trkpt>
      <trkpt lat="59.9971859" lon="15.7552223">
        <ele>61.4</ele>
        <time>2012-11-15T19:55:35Z</time>
        <extensions><gpxtpx:TrackPointExtension><gpxtpx:hr>34</gpxtpx:hr></gpxtpx:TrackPointExtension></extensions>
      </trkpt>
      <trkpt lat="59.9971265" lon="15.7551628">
        <ele>61.4</ele>
        <time>2012-11-15T19:55:38Z</time>
      </trkpt>
      <trkpt lat="59.9970804" lon="15.755116">
        <ele>62.4</ele>
        <time>2012-11-15T19:55:40Z</time>
      </trkpt>
      <trkpt lat="59.997019" lon="15.755071">
        <ele>62.4</ele>
        <time>2012-11-15T19:55:43Z</time>
      </trkpt>
      <trkpt lat="59.996977" lon="15.7550396">
        <ele>63.4</ele>
        <time>2012-11-15T19:55:45Z</time>
      </trkpt>
      <trkpt lat="59.9969025" lon="15.7549602">
        <ele>63.4</ele>
        <time>2012-11-15T19:55:49Z</time>
      </trkpt>
      <trkpt lat="59.9968639" lon="15.7549271">
        <ele>64.6</ele>
        <time>2012-11-15T19:55:51Z</time>
      </trkpt>
      <trkpt lat="59.9968274" lon="15.7548705">
        <ele>64.6</ele>
        <time>2012-11-15T19:55:54Z</time>
      </trkpt>
      <trkpt lat="59.9968023" lon="15.7548581">
        <ele>65.8</ele>
        <time>2012-11-15T19:55:55Z</time>
      </trkpt>
      <trkpt lat="59.9967572" lon="15.7548132">
        <ele>65.8</ele>
        <time>2012-11-15T19:55:57Z</time>
      </trkpt>
      <trkpt lat="59.9966603" lon="15.7547451">
        <ele>66.8</ele>
        <time>2012-11-15T19:56:01Z</time>
      </trkpt>
      <trkpt lat="59.9966334" lon="15.7547217">
        <ele>66.8</ele>
        <time>2012-11-15T19:56:02Z</time>
      </trkpt>
      <trkpt lat="59.9966045" lon="15.7546888">
        <ele>66.8</ele>
        <time>2012-11-15T19:56:03Z</time>
      </trkpt>
      <trkpt lat="59.9965013" lon="15.7545892">
        <ele>67.8</ele>
        <time>2012-11-15T19:56:07Z</time>
      </trkpt>
      <trkpt lat="59.9964754" lon="15.7545712">
        <ele>67.8</ele>
        <time>2012-11-15T19:56:08Z</time>
      </trkpt>
      <trkpt lat="59.9963467" lon="15.7544662">
        <ele>69</ele>
        <time>2012-11-15T19:56:13Z</time>
        <extensions><gpxtpx:TrackPointExtension><gpxtpx:hr>34</gpxtpx:hr></gpxtpx:TrackPointExtension></extensions>
      </trkpt>
      <trkpt lat="59.9963217" lon="15.7544369">
        <ele>69</ele>
        <time>2012-11-15T19:56:14Z</time>
        <extensions><gpxtpx:TrackPointExtension><gpxtpx:hr>34</gpxtpx:hr></gpxtpx:TrackPointExtension></extensions>
      </trkpt>
      <trkpt lat="59.9962506" lon="15.7543711">
        <ele>70</ele>
        <time>2012-11-15T19:56:17Z</time>
        <extensions><gpxtpx:TrackPointExtension><gpxtpx:hr>34</gpxtpx:hr></gpxtpx:TrackPointExtension></extensions>
      </trkpt>
      <trkpt lat="59.9961762" lon="15.7542922">
        <ele>70</ele>
        <time>2012-11-15T19:56:21Z</time>
        <extensions><gpxtpx:TrackPointExtension><gpxtpx:hr>34</gpxtpx:hr></gpxtpx:TrackPointExtension></extensions>
      </trkpt>
      <trkpt lat="59.9961071" lon="15.7542346">
        <ele>71</ele>
        <time>2012-11-15T19:56:24Z</time>
        <extensions><gpxtpx:TrackPointExtension><gpxtpx:hr>34</gpxtpx:hr></gpxtpx:TrackPointExtension></extensions>
      </trkpt>
      <trkpt lat="59.9960506" lon="15.7541489">
        <ele>71</ele>
        <time>2012-11-15T19:56:27Z</time>
      </trkpt>
      <trkpt lat="59.9959882" lon="15.7540572">
        <ele>72.2</ele>
        <time>2012-11-15T19:56:30Z</time>
      </trkpt>
      <trkpt lat="59.9959247" lon="15.7539432">
        <ele>72.2</ele>
        <time>2012-11-15T19:56:34Z</time>
      </trkpt>
      <trkpt lat="59.9958886" lon="15.7538851">
        <ele>73.2</ele>
        <time>2012-11-15T19:56:36Z</time>
      </trkpt>
      <trkpt lat="59.995823" lon="15.753742">
        <ele>74.2</ele>
        <time>2012-11-15T19:56:40Z</time>
        <extensions><gpxtpx:TrackPointExtension><gpxtpx:hr>34</gpxtpx:hr></gpxtpx:TrackPointExtension></extensions>
      </trkpt>
      <trkpt lat="59.9957823" lon="15.7535645">
        <ele>75.4</ele>
        <time>2012-11-15T19:56:44Z</time>
      </trkpt>
      <trkpt lat="59.9957729" lon="15.7535273">
        <ele>75.4</ele>
        <time>2012-11-15T19:56:45Z</time>
      </trkpt>
      <trkpt lat="59.9957143" lon="15.7532877">
        <ele>76.4</ele>
        <time>2012-11-15T19:56:52Z</time>
        <extensions><gpxtpx:TrackPointExtension><gpxtpx:hr>34</gpxtpx:hr></gpxtpx:TrackPointExtension></extensions>
      </trkpt>
      <trkpt lat="59.995681" lon="15.7530779">
        <ele>77.4</ele>
        <time>2012-11-15T19:56:57Z</time>
      </trkpt>
      <trkpt lat="59.9956769" lon="15.7530336">
        <ele>77.4</ele>
        <time>2012-11-15T19:56:58Z</time>
      </trkpt>
      <trkpt lat="59.9956685" lon="15.7528477">
        <ele>78.4</ele>
        <time>2012-11-15T19:57:02Z</time>
      </trkpt>
      <trkpt lat="59.9956586" lon="15.7527197">
        <ele>78.4</ele>
        <time>2012-11-15T19:57:05Z</time>
        <extensions><gpxtpx:TrackPointExtension><gpxtpx:hr>34</gpxtpx:hr></gpxtpx:TrackPointExtension></extensions>
      </trkpt>
      <trkpt lat="59.9956562" lon="15.7526746">
        <ele>79.6</ele>
        <time>2012-11-15T19:57:06Z</time>
        <extensions><gpxtpx:TrackPointExtension><gpxtpx:hr>34</gpxtpx:hr></gpxtpx:TrackPointExtension></extensions>
      </trkpt>
      <trkpt lat="59.9956662" lon="15.7524069">
        <ele>80.6</ele>
        <time>2012-11-15T19:57:12Z</time>
        <extensions><gpxtpx:TrackPointExtension><gpxtpx:hr>34</gpxtpx:hr></gpxtpx:TrackPointExtension></extensions>
      </trkpt>
      <trkpt lat="59.9956652" lon="15.752364">
        <ele>80.6</ele>
        <time>2012-11-15T19:57:13Z</time>
        <extensions><gpxtpx:TrackPointExtension><gpxtpx:hr>34</gpxtpx:hr></gpxtpx:TrackPointExtension></extensions>
      </trkpt>
      <trkpt lat="59.9956688" lon="15.7521235">
        <ele>81.6</ele>
        <time>2012-11-15T19:57:18Z</time>
        <extensions><gpxtpx:TrackPointExtension><gpxtpx:hr>34</gpxtpx:hr></gpxtpx:TrackPointExtension></extensions>
      </trkpt>
      <trkpt lat="59.9956757" lon="15.7519369">
        <ele>82.6</ele>
        <time>2012-11-15T19:57:22Z</time>
        <extensions><gpxtpx:TrackPointExtension><gpxtpx:hr>34</gpxtpx:hr></gpxtpx:TrackPointExtension></extensions>
      </trkpt>
      <trkpt lat="59.9956737" lon="15.7517241">
        <ele>83.6</ele>
        <time>2012-11-15T19:57:27Z</time>
      </trkpt>
      <trkpt lat="59.9956671" lon="15.7516867">
        <ele>83.6</ele>
        <time>2012-11-15T19:57:28Z</time>
      </trkpt>
      <trkpt lat="59.9956412" lon="15.7514186">
        <ele>84.8</ele>
        <time>2012-11-15T19:57:34Z</time>
        <extensions><gpxtpx:TrackPointExtension><gpxtpx:hr>34</gpxtpx:hr></gpxtpx:TrackPointExtension></extensions>
      </trkpt>
      <trkpt lat="59.9956232" lon="15.7513358">
        <ele>84.8</ele>
        <time>2012-11-15T19:57:36Z</time>
      </trkpt>
      <trkpt lat="59.9955953" lon="15.7511548">
        <ele>85.8</ele>
        <time>2012-11-15T19:57:40Z</time>
      </trkpt>
      <trkpt lat="59.9955632" lon="15.7510031">
        <ele>85.8</ele>
        <time>2012-11-15T19:57:43Z</time>
      </trkpt>
      <trkpt lat="59.9955372" lon="15.7509013">
        <ele>86.8</ele>
        <time>2012-11-15T19:57:45Z</time>
      </trkpt>
      <trkpt lat="59.9954715" lon="15.7506375">
        <ele>86.8</ele>
        <time>2012-11-15T19:57:50Z</time>
      </trkpt>
      <trkpt lat="59.9954015" lon="15.7503826">
        <ele>87.8</ele>
        <time>2012-11-15T19:57:55Z</time>
      </trkpt>
      <trkpt lat="59.9953374" lon="15.7501773">
        <ele>87.8</ele>
        <time>2012-11-15T19:57:59Z</time>
      </trkpt>
      <trkpt lat="59.9952394" lon="15.7498214">
        <ele>87.8</ele>
        <time>2012-11-15T19:58:05Z</time>
      </trkpt>
      <trkpt lat="59.9951899" lon="15.7496329">
        <ele>88.8</ele>
        <time>2012-11-15T19:58:08Z</time>
      </trkpt>
      <trkpt lat="59.9951549" lon="15.749501">
        <ele>88.8</ele>
        <time>2012-11-15T19:58:10Z</time>
      </trkpt>
      <trkpt lat="59.9951166" lon="15.7493703">
        <ele>88.8</ele>
        <time>2012-11-15T19:58:12Z</time>
      </trkpt>
      <trkpt lat="59.9949874" lon="15.748905">
        <ele>88.8</ele>
        <time>2012-11-15T19:58:19Z</time>
      </trkpt>
      <trkpt lat="59.9949127" lon="15.7486259">
        <ele>88.8</ele>
        <time>2012-11-15T19:58:23Z</time>
      </trkpt>
      <trkpt lat="59.9948447" lon="15.7483658">
        <ele>88.8</ele>
        <time>2012-11-15T19:58:26Z</time>
      </trkpt>
      <trkpt lat="59.9947084" lon="15.7479162">
        <ele>88.8</ele>
        <time>2012-11-15T19:58:32Z</time>
      </trkpt>
      <trkpt lat="59.9945468" lon="15.7473578">
        <ele>88.8</ele>
        <time>2012-11-15T19:58:39Z</time>
      </trkpt>
      <trkpt lat="59.9943443" lon="15.7468403">
        <ele>89.8</ele>
        <time>2012-11-15T19:58:46Z</time>
      </trkpt>
      <trkpt lat="59.9943072" lon="15.7467641">
        <ele>89.8</ele>
        <time>2012-11-15T19:58:47Z</time>
      </trkpt>
      <trkpt lat="59.9939858" lon="15.746169">
        <ele>89.8</ele>
        <time>2012-11-15T19:58:56Z</time>
      </trkpt>
      <trkpt lat="59.9938387" lon="15.7458998">
        <ele>89.8</ele>
        <time>2012-11-15T19:59:00Z</time>
      </trkpt>
      <trkpt lat="59.9938002" lon="15.7458371">
        <ele>89.8</ele>
        <time>2012-11-15T19:59:01Z</time>
      </trkpt>
      <trkpt lat="59.9937294" lon="15.7457183">
        <ele>89.8</ele>
        <time>2012-11-15T19:59:03Z</time>
      </trkpt>
      <trkpt lat="59.9936967" lon="15.7456551">
        <ele>90.8</ele>
        <time>2012-11-15T19:59:04Z</time>
      </trkpt>
      <trkpt lat="59.9935388" lon="15.7453688">
        <ele>90.8</ele>
        <time>2012-11-15T19:59:09Z</time>
        <extensions><gpxtpx:TrackPointExtension><gpxtpx:hr>34</gpxtpx:hr></gpxtpx:TrackPointExtension></extensions>
      </trkpt>
      <trkpt lat="59.9934745" lon="15.745252">
        <ele>90.8</ele>
        <time>2012-11-15T19:59:11Z</time>
        <extensions><gpxtpx:TrackPointExtension><gpxtpx:hr>34</gpxtpx:hr></gpxtpx:TrackPointExtension></extensions>
      </trkpt>
      <trkpt lat="59.9934116" lon="15.7451418">
        <ele>92</ele>
        <time>2012-11-15T19:59:13Z</time>
        <extensions><gpxtpx:TrackPointExtension><gpxtpx:hr>34</gpxtpx:hr></gpxtpx:TrackPointExtension></extensions>
      </trkpt>
      <trkpt lat="59.9933753" lon="15.7450801">
        <ele>92</ele>
        <time>2012-11-15T19:59:14Z</time>
        <extensions><gpxtpx:TrackPointExtension><gpxtpx:hr>34</gpxtpx:hr></gpxtpx:TrackPointExtension></extensions>
      </trkpt>
      <trkpt lat="59.99327" lon="15.7449246">
        <ele>93</ele>
        <time>2012-11-15T19:59:17Z</time>
      </trkpt>
      <trkpt lat="59.9932385" lon="15.7448625">
        <ele>93</ele>
        <time>2012-11-15T19:59:18Z</time>
        <extensions><gpxtpx:TrackPointExtension><gpxtpx:hr>34</gpxtpx:hr></gpxtpx:TrackPointExtension></extensions>
      </trkpt>
      <trkpt lat="59.993164" lon="15.7447242">
        <ele>93</ele>
        <time>2012-11-15T19:59:20Z</time>
        <extensions><gpxtpx:TrackPointExtension><gpxtpx:hr>34</gpxtpx:hr></gpxtpx:TrackPointExtension></extensions>
      </trkpt>
      <trkpt lat="59.9930039" lon="15.7444298">
        <ele>94.2</ele>
        <time>2012-11-15T19:59:24Z</time>
        <extensions><gpxtpx:TrackPointExtension><gpxtpx:hr>33</gpxtpx:hr></gpxtpx:TrackPointExtension></extensions>
      </trkpt>
      <trkpt lat="59.9929574" lon="15.7443548">
        <ele>94.2</ele>
        <time>2012-11-15T19:59:25Z</time>
        <extensions><gpxtpx:TrackPointExtension><gpxtpx:hr>33</gpxtpx:hr></gpxtpx:TrackPointExtension></extensions>
      </trkpt>
      <trkpt lat="59.9926437" lon="15.743788">
        <ele>94.2</ele>
        <time>2012-11-15T19:59:33Z</time>
      </trkpt>
      <trkpt lat="59.9922929" lon="15.7431334">
        <ele>94.2</ele>
        <time>2012-11-15T19:59:42Z</time>
      </trkpt>
      <trkpt lat="59.9920179" lon="15.7426294">
        <ele>94.2</ele>
        <time>2012-11-15T19:59:49Z</time>
      </trkpt>
      <trkpt lat="59.9917708" lon="15.7422217">
        <ele>94.2</ele>
        <time>2012-11-15T19:59:55Z</time>
      </trkpt>
      <trkpt lat="59.9915035" lon="15.7417828">
        <ele>94.2</ele>
        <time>2012-11-15T20:00:01Z</time>
      </trkpt>
      <trkpt lat="59.9914585" lon="15.7417237">
        <ele>94.2</ele>
        <time>2012-11-15T20:00:02Z</time>
      </trkpt>
      <trkpt lat="59.991215" lon="15.741415">
        <ele>94.2</ele>
        <time>2012-11-15T20:00:07Z</time>
        <extensions><gpxtpx:TrackPointExtension><gpxtpx:hr>33</gpxtpx:hr></gpxtpx:TrackPointExtension></extensions>
      </trkpt>
      <trkpt lat="59.9911647" lon="15.7413652">
        <ele>94.2</ele>
        <time>2012-11-15T20:00:08Z</time>
        <extensions><gpxtpx:TrackPointExtension><gpxtpx:hr>33</gpxtpx:hr></gpxtpx:TrackPointExtension></extensions>
      </trkpt>
      <trkpt lat="59.9910046" lon="15.7412235">
        <ele>91</ele>
        <time>2012-11-15T20:00:11Z</time>
      </trkpt>
      <trkpt lat="59.9908962" lon="15.7411583">
        <ele>91</ele>
        <time>2012-11-15T20:00:13Z</time>
      </trkpt>
      <trkpt lat="59.9904756" lon="15.7410831">
        <ele>91</ele>
        <time>2012-11-15T20:00:20Z</time>
        <extensions><gpxtpx:TrackPointExtension><gpxtpx:hr>33</gpxtpx:hr></gpxtpx:TrackPointExtension></extensions>
      </trkpt>
      <trkpt lat="59.9903634" lon="15.7410955">
        <ele>91</ele>
        <time>2012-11-15T20:00:22Z</time>
        <extensions><gpxtpx:TrackPointExtension><gpxtpx:hr>33</gpxtpx:hr></gpxtpx:TrackPointExtension></extensions>
      </trkpt>
      <trkpt lat="59.9901879" lon="15.7411259">
        <ele>91</ele>
        <time>2012-11-15T20:00:25Z</time>
      </trkpt>
      <trkpt lat="59.9900212" lon="15.7411751">
        <ele>90</ele>
        <time>2012-11-15T20:00:28Z</time>
      </trkpt>
      <trkpt lat="59.9897203" lon="15.7412546">
        <ele>90</ele>
        <time>2012-11-15T20:00:33Z</time>
        <extensions><gpxtpx:TrackPointExtension><gpxtpx:hr>33</gpxtpx:hr></gpxtpx:TrackPointExtension></extensions>
      </trkpt>
      <trkpt lat="59.9895978" lon="15.7412956">
        <ele>89</ele>
        <time>2012-11-15T20:00:35Z</time>
        <extensions><gpxtpx:TrackPointExtension><gpxtpx:hr>33</gpxtpx:hr></gpxtpx:TrackPointExtension></extensions>
      </trkpt>
      <trkpt lat="59.989051" lon="15.7414648">
        <ele>89</ele>
        <time>2012-11-15T20:00:44Z</time>
      </trkpt>
      <trkpt lat="59.9889299" lon="15.7414972">
        <ele>88</ele>
        <time>2012-11-15T20:00:46Z</time>
      </trkpt>
      <trkpt lat="59.9884265" lon="15.7415726">
        <ele>88</ele>
        <time>2012-11-15T20:00:54Z</time>
        <extensions><gpxtpx:TrackPointExtension><gpxtpx:hr>33</gpxtpx:hr></gpxtpx:TrackPointExtension></extensions>
      </trkpt>
      <trkpt lat="59.9881266" lon="15.7415111">
        <ele>86.8</ele>
        <time>2012-11-15T20:00:59Z</time>
      </trkpt>
      <trkpt lat="59.9880602" lon="15.741491">
        <ele>86.8</ele>
        <time>2012-11-15T20:01:00Z</time>
      </trkpt>
      <trkpt lat="59.9880036" lon="15.7414703">
        <ele>86.8</ele>
        <time>2012-11-15T20:01:01Z</time>
      </trkpt>
      <trkpt lat="59.9876769" lon="15.7412751">
        <ele>86.8</ele>
        <time>2012-11-15T20:01:07Z</time>
      </trkpt>
      <trkpt lat="59.9875109" lon="15.741149">
        <ele>85.8</ele>
        <time>2012-11-15T20:01:10Z</time>
      </trkpt>
      <trkpt lat="59.9872975" lon="15.7409698">
        <ele>85.8</ele>
        <time>2012-11-15T20:01:14Z</time>
      </trkpt>
      <trkpt lat="59.986972" lon="15.7407175">
        <ele>84.8</ele>
        <time>2012-11-15T20:01:20Z</time>
      </trkpt>
      <trkpt lat="59.9869175" lon="15.7406661">
        <ele>84.8</ele>
        <time>2012-11-15T20:01:21Z</time>
      </trkpt>
      <trkpt lat="59.9866349" lon="15.7404534">
        <ele>84.8</ele>
        <time>2012-11-15T20:01:26Z</time>
      </trkpt>
      <trkpt lat="59.9865189" lon="15.7403626">
        <ele>83.6</ele>
        <time>2012-11-15T20:01:28Z</time>
      </trkpt>
      <trkpt lat="59.9861574" lon="15.7400785">
        <ele>82.4</ele>
        <time>2012-11-15T20:01:34Z</time>
      </trkpt>
      <trkpt lat="59.9860992" lon="15.7400339">
        <ele>82.4</ele>
        <time>2012-11-15T20:01:35Z</time>
      </trkpt>
      <trkpt lat="59.9858498" lon="15.7398772">
        <ele>81.4</ele>
        <time>2012-11-15T20:01:39Z</time>
        <extensions><gpxtpx:TrackPointExtension><gpxtpx:hr>33</gpxtpx:hr></gpxtpx:TrackPointExtension></extensions>
      </trkpt>
      <trkpt lat="59.9857242" lon="15.7398176">
        <ele>81.4</ele>
        <time>2012-11-15T20:01:41Z</time>
      </trkpt>
      <trkpt lat="59.9854687" lon="15.7397307">
        <ele>80.4</ele>
        <time>2012-11-15T20:01:45Z</time>
      </trkpt>
      <trkpt lat="59.9853356" lon="15.7397241">
        <ele>80.4</ele>
        <time>2012-11-15T20:01:47Z</time>
      </trkpt>
      <trkpt lat="59.9851869" lon="15.7397235">
        <ele>79.2</ele>
        <time>2012-11-15T20:01:49Z</time>
      </trkpt>
      <trkpt lat="59.9849728" lon="15.7397697">
        <ele>78</ele>
        <time>2012-11-15T20:01:52Z</time>
      </trkpt>
      <trkpt lat="59.984916" lon="15.739793">
        <ele>78</ele>
        <time>2012-11-15T20:01:53Z</time>
      </trkpt>
      <trkpt lat="59.9846284" lon="15.739947">
        <ele>77</ele>
        <time>2012-11-15T20:01:57Z</time>
      </trkpt>
      <trkpt lat="59.9844976" lon="15.7400607">
        <ele>77</ele>
        <time>2012-11-15T20:01:59Z</time>
      </trkpt>
      <trkpt lat="59.9843623" lon="15.7401967">
        <ele>76</ele>
        <time>2012-11-15T20:02:01Z</time>
      </trkpt>
      <trkpt lat="59.9841382" lon="15.740475">
        <ele>76</ele>
        <time>2012-11-15T20:02:05Z</time>
      </trkpt>
      <trkpt lat="59.983918" lon="15.7408878">
        <ele>76</ele>
        <time>2012-11-15T20:02:10Z</time>
      </trkpt>
      <trkpt lat="59.983815" lon="15.7412754">
        <ele>76</ele>
        <time>2012-11-15T20:02:14Z</time>
      </trkpt>
      <trkpt lat="59.9836911" lon="15.7420605">
        <ele>75</ele>
        <time>2012-11-15T20:02:21Z</time>
      </trkpt>
      <trkpt lat="59.9836018" lon="15.7424031">
        <ele>75</ele>
        <time>2012-11-15T20:02:24Z</time>
      </trkpt>
      <trkpt lat="59.9835682" lon="15.7425061">
        <ele>73.8</ele>
        <time>2012-11-15T20:02:25Z</time>
      </trkpt>
      <trkpt lat="59.9835344" lon="15.7425987">
        <ele>73.8</ele>
        <time>2012-11-15T20:02:26Z</time>
      </trkpt>
      <trkpt lat="59.983488" lon="15.7426879">
        <ele>72.6</ele>
        <time>2012-11-15T20:02:27Z</time>
      </trkpt>
      <trkpt lat="59.9833769" lon="15.7428136">
        <ele>71.4</ele>
        <time>2012-11-15T20:02:29Z</time>
      </trkpt>
      <trkpt lat="59.9832225" lon="15.7429164">
        <ele>71.4</ele>
        <time>2012-11-15T20:02:31Z</time>
      </trkpt>
      <trkpt lat="59.9831461" lon="15.7429578">
        <ele>70.4</ele>
        <time>2012-11-15T20:02:32Z</time>
      </trkpt>
      <trkpt lat="59.9830811" lon="15.7429901">
        <ele>70.4</ele>
        <time>2012-11-15T20:02:33Z</time>
      </trkpt>
      <trkpt lat="59.9830015" lon="15.7430314">
        <ele>69.4</ele>
        <time>2012-11-15T20:02:34Z</time>
      </trkpt>
      <trkpt lat="59.9827623" lon="15.7431506">
        <ele>68.4</ele>
        <time>2012-11-15T20:02:37Z</time>
      </trkpt>
      <trkpt lat="59.9826776" lon="15.7431782">
        <ele>68.4</ele>
        <time>2012-11-15T20:02:38Z</time>
      </trkpt>
      <trkpt lat="59.9825908" lon="15.7431975">
        <ele>67.2</ele>
        <time>2012-11-15T20:02:39Z</time>
      </trkpt>
      <trkpt lat="59.9825083" lon="15.7432171">
        <ele>66.2</ele>
        <time>2012-11-15T20:02:40Z</time>
      </trkpt>
      <trkpt lat="59.9823252" lon="15.7432431">
        <ele>65</ele>
        <time>2012-11-15T20:02:42Z</time>
      </trkpt>
      <trkpt lat="59.9822339" lon="15.743259">
        <ele>65</ele>
        <time>2012-11-15T20:02:43Z</time>
      </trkpt>
      <trkpt lat="59.9821396" lon="15.7432684">
        <ele>64</ele>
        <time>2012-11-15T20:02:44Z</time>
      </trkpt>
      <trkpt lat="59.981863" lon="15.7433067">
        <ele>63</ele>
        <time>2012-11-15T20:02:47Z</time>
      </trkpt>
      <trkpt lat="59.9816618" lon="15.7433401">
        <ele>61.8</ele>
        <time>2012-11-15T20:02:49Z</time>
      </trkpt>
      <trkpt lat="59.9814667" lon="15.7433934">
        <ele>60.8</ele>
        <time>2012-11-15T20:02:51Z</time>
      </trkpt>
      <trkpt lat="59.9811617" lon="15.7435">
        <ele>59.6</ele>
        <time>2012-11-15T20:02:54Z</time>
      </trkpt>
      <trkpt lat="59.9809568" lon="15.7436249">
        <ele>58.4</ele>
        <time>2012-11-15T20:02:56Z</time>
      </trkpt>
      <trkpt lat="59.9807477" lon="15.7437471">
        <ele>57</ele>
        <time>2012-11-15T20:02:58Z</time>
      </trkpt>
      <trkpt lat="59.9806483" lon="15.7438088">
        <ele>57</ele>
        <time>2012-11-15T20:02:59Z</time>
      </trkpt>
      <trkpt lat="59.9805435" lon="15.743878">
        <ele>55.8</ele>
        <time>2012-11-15T20:03:00Z</time>
      </trkpt>
      <trkpt lat="59.9803417" lon="15.7439953">
        <ele>54.8</ele>
        <time>2012-11-15T20:03:02Z</time>
      </trkpt>
      <trkpt lat="59.9801466" lon="15.7441228">
        <ele>53.6</ele>
        <time>2012-11-15T20:03:04Z</time>
      </trkpt>
      <trkpt lat="59.9799473" lon="15.744253">
        <ele>52.2</ele>
        <time>2012-11-15T20:03:06Z</time>
      </trkpt>
      <trkpt lat="59.9797384" lon="15.7443321">
        <ele>51.2</ele>
        <time>2012-11-15T20:03:08Z</time>
      </trkpt>
      <trkpt lat="59.9795237" lon="15.7443689">
        <ele>50</ele>
        <time>2012-11-15T20:03:10Z</time>
      </trkpt>
      <trkpt lat="59.9793155" lon="15.7443741">
        <ele>49</ele>
        <time>2012-11-15T20:03:12Z</time>
      </trkpt>
      <trkpt lat="59.9789276" lon="15.7443085">
        <ele>47.8</ele>
        <time>2012-11-15T20:03:16Z</time>
      </trkpt>
      <trkpt lat="59.9787518" lon="15.7442609">
        <ele>46.8</ele>
        <time>2012-11-15T20:03:18Z</time>
      </trkpt>
      <trkpt lat="59.9782971" lon="15.7441197">
        <ele>45.6</ele>
        <time>2012-11-15T20:03:23Z</time>
      </trkpt>
      <trkpt lat="59.978088" lon="15.7440658">
        <ele>44.2</ele>
        <time>2012-11-15T20:03:25Z</time>
      </trkpt>
      <trkpt lat="59.9778912" lon="15.744004">
        <ele>43.2</ele>
        <time>2012-11-15T20:03:27Z</time>
      </trkpt>
      <trkpt lat="59.9775992" lon="15.7439253">
        <ele>42.2</ele>
        <time>2012-11-15T20:03:30Z</time>
      </trkpt>
      <trkpt lat="59.977397" lon="15.743883">
        <ele>41</ele>
        <time>2012-11-15T20:03:32Z</time>
      </trkpt>
      <trkpt lat="59.977195" lon="15.7438379">
        <ele>40</ele>
        <time>2012-11-15T20:03:34Z</time>
      </trkpt>
      <trkpt lat="59.9770965" lon="15.7438125">
        <ele>39</ele>
        <time>2012-11-15T20:03:35Z</time>
      </trkpt>
      <trkpt lat="59.9767948" lon="15.7437224">
        <ele>37.4</ele>
        <time>2012-11-15T20:03:38Z</time>
      </trkpt>
      <trkpt lat="59.9766827" lon="15.7436866">
        <ele>36.2</ele>
        <time>2012-11-15T20:03:39Z</time>
      </trkpt>
      <trkpt lat="59.9765037" lon="15.7436295">
        <ele>35.2</ele>
        <time>2012-11-15T20:03:41Z</time>
      </trkpt>
      <trkpt lat="59.9762591" lon="15.7435542">
        <ele>34</ele>
        <time>2012-11-15T20:03:44Z</time>
      </trkpt>
      <trkpt lat="59.9761212" lon="15.7435052">
        <ele>34</ele>
        <time>2012-11-15T20:03:46Z</time>
      </trkpt>
      <trkpt lat="59.9760567" lon="15.743505">
        <ele>34</ele>
        <time>2012-11-15T20:03:47Z</time>
      </trkpt>
      <trkpt lat="59.9759886" lon="15.7435426">
        <ele>33</ele>
        <time>2012-11-15T20:03:48Z</time>
      </trkpt>
      <trkpt lat="59.9759249" lon="15.7436231">
        <ele>33</ele>
        <time>2012-11-15T20:03:49Z</time>
      </trkpt>
      <trkpt lat="59.9758172" lon="15.7439306">
        <ele>33</ele>
        <time>2012-11-15T20:03:52Z</time>
      </trkpt>
      <trkpt lat="59.9757927" lon="15.744013">
        <ele>33</ele>
        <time>2012-11-15T20:03:53Z</time>
      </trkpt>
      <trkpt lat="59.9756303" lon="15.744465">
        <ele>33</ele>
        <time>2012-11-15T20:03:58Z</time>
      </trkpt>
      <trkpt lat="59.9752805" lon="15.7452991">
        <ele>33</ele>
        <time>2012-11-15T20:04:07Z</time>
      </trkpt>
      <trkpt lat="59.9749438" lon="15.7460615">
        <ele>31.8</ele>
        <time>2012-11-15T20:04:14Z</time>
      </trkpt>
      <trkpt lat="59.9748059" lon="15.7464357">
        <ele>30.8</ele>
        <time>2012-11-15T20:04:17Z</time>
      </trkpt>
      <trkpt lat="59.9746392" lon="15.7469583">
        <ele>30.8</ele>
        <time>2012-11-15T20:04:21Z</time>
      </trkpt>
      <trkpt lat="59.9744895" lon="15.7474925">
        <ele>29.8</ele>
        <time>2012-11-15T20:04:25Z</time>
      </trkpt>
      <trkpt lat="59.9743747" lon="15.7478825">
        <ele>28.8</ele>
        <time>2012-11-15T20:04:28Z</time>
      </trkpt>
      <trkpt lat="59.9742983" lon="15.7481322">
        <ele>27.6</ele>
        <time>2012-11-15T20:04:30Z</time>
      </trkpt>
      <trkpt lat="59.9741634" lon="15.7485936">
        <ele>26.6</ele>
        <time>2012-11-15T20:04:33Z</time>
      </trkpt>
      <trkpt lat="59.9740251" lon="15.7492412">
        <ele>26.6</ele>
        <time>2012-11-15T20:04:37Z</time>
      </trkpt>
      <trkpt lat="59.9740092" lon="15.7494011">
        <ele>25.4</ele>
        <time>2012-11-15T20:04:38Z</time>
      </trkpt>
      <trkpt lat="59.9739966" lon="15.7499017">
        <ele>25.4</ele>
        <time>2012-11-15T20:04:41Z</time>
      </trkpt>
      <trkpt lat="59.9740604" lon="15.7504829">
        <ele>25.4</ele>
        <time>2012-11-15T20:04:45Z</time>
      </trkpt>
      <trkpt lat="59.9741739" lon="15.7511781">
        <ele>25.4</ele>
        <time>2012-11-15T20:04:51Z</time>
      </trkpt>
      <trkpt lat="59.9742048" lon="15.7513786">
        <ele>28.4</ele>
        <time>2012-11-15T20:04:53Z</time>
      </trkpt>
      <trkpt lat="59.9742912" lon="15.7521538">
        <ele>28.4</ele>
        <time>2012-11-15T20:05:00Z</time>
      </trkpt>
      <trkpt lat="59.9743745" lon="15.7532653">
        <ele>28.4</ele>
        <time>2012-11-15T20:05:09Z</time>
      </trkpt>
      <trkpt lat="59.9743696" lon="15.7541593">
        <ele>28.4</ele>
        <time>2012-11-15T20:05:16Z</time>
      </trkpt>
      <trkpt lat="59.9742439" lon="15.7548631">
        <ele>28.4</ele>
        <time>2012-11-15T20:05:22Z</time>
      </trkpt>
      <trkpt lat="59.9742159" lon="15.7549422">
        <ele>28.4</ele>
        <time>2012-11-15T20:05:23Z</time>
      </trkpt>
      <trkpt lat="59.9740329" lon="15.7553028">
        <ele>28.4</ele>
        <time>2012-11-15T20:05:27Z</time>
      </trkpt>
      <trkpt lat="59.9736282" lon="15.7559436">
        <ele>28.4</ele>
        <time>2012-11-15T20:05:36Z</time>
      </trkpt>
      <trkpt lat="59.9733193" lon="15.7565252">
        <ele>28.4</ele>
        <time>2012-11-15T20:05:43Z</time>
      </trkpt>
      <trkpt lat="59.972994" lon="15.7573223">
        <ele>28.4</ele>
        <time>2012-11-15T20:05:51Z</time>
      </trkpt>
      <trkpt lat="59.9726708" lon="15.7581471">
        <ele>28.4</ele>
        <time>2012-11-15T20:06:00Z</time>
      </trkpt>
      <trkpt lat="59.972638" lon="15.758226">
        <ele>28.4</ele>
        <time>2012-11-15T20:06:01Z</time>
      </trkpt>
      <trkpt lat="59.9724553" lon="15.7586642">
        <ele>29.4</ele>
        <time>2012-11-15T20:06:07Z</time>
      </trkpt>
      <trkpt lat="59.9724238" lon="15.7587283">
        <ele>29.4</ele>
        <time>2012-11-15T20:06:08Z</time>
      </trkpt>
      <trkpt lat="59.9723285" lon="15.7589271">
        <ele>30.6</ele>
        <time>2012-11-15T20:06:11Z</time>
      </trkpt>
      <trkpt lat="59.9722353" lon="15.7591187">
        <ele>31.6</ele>
        <time>2012-11-15T20:06:14Z</time>
      </trkpt>
      <trkpt lat="59.9721763" lon="15.759253">
        <ele>31.6</ele>
        <time>2012-11-15T20:06:16Z</time>
      </trkpt>
      <trkpt lat="59.9720709" lon="15.759462">
        <ele>32.6</ele>
        <time>2012-11-15T20:06:19Z</time>
      </trkpt>
      <trkpt lat="59.9719482" lon="15.7597027">
        <ele>32.6</ele>
        <time>2012-11-15T20:06:23Z</time>
      </trkpt>
      <trkpt lat="59.9718415" lon="15.7598941">
        <ele>33.6</ele>
        <time>2012-11-15T20:06:26Z</time>
      </trkpt>
      <trkpt lat="59.9716824" lon="15.7601667">
        <ele>33.6</ele>
        <time>2012-11-15T20:06:31Z</time>
      </trkpt>
      <trkpt lat="59.9716526" lon="15.7602251">
        <ele>34.6</ele>
        <time>2012-11-15T20:06:32Z</time>
      </trkpt>
      <trkpt lat="59.9714366" lon="15.7606305">
        <ele>34.6</ele>
        <time>2012-11-15T20:06:39Z</time>
      </trkpt>
      <trkpt lat="59.9713716" lon="15.7607617">
        <ele>35.8</ele>
        <time>2012-11-15T20:06:41Z</time>
      </trkpt>
      <trkpt lat="59.9711912" lon="15.7611032">
        <ele>35.8</ele>
        <time>2012-11-15T20:06:46Z</time>
      </trkpt>
      <trkpt lat="59.9710152" lon="15.7614461">
        <ele>36.8</ele>
        <time>2012-11-15T20:06:51Z</time>
      </trkpt>
      <trkpt lat="59.9708322" lon="15.7618072">
        <ele>36.8</ele>
        <time>2012-11-15T20:06:56Z</time>
      </trkpt>
      <trkpt lat="59.9708006" lon="15.7618739">
        <ele>38</ele>
        <time>2012-11-15T20:06:57Z</time>
      </trkpt>
      <trkpt lat="59.970665" lon="15.7621362">
        <ele>39</ele>
        <time>2012-11-15T20:07:01Z</time>
      </trkpt>
      <trkpt lat="59.9705687" lon="15.7623252">
        <ele>39</ele>
        <time>2012-11-15T20:07:04Z</time>
      </trkpt>
      <trkpt lat="59.9705377" lon="15.7623835">
        <ele>40.2</ele>
        <time>2012-11-15T20:07:05Z</time>
      </trkpt>
      <trkpt lat="59.9703244" lon="15.7627443">
        <ele>41.2</ele>
        <time>2012-11-15T20:07:11Z</time>
      </trkpt>
      <trkpt lat="59.9702487" lon="15.7628627">
        <ele>41.2</ele>
        <time>2012-11-15T20:07:13Z</time>
      </trkpt>
      <trkpt lat="59.9701609" lon="15.7629622">
        <ele>41.2</ele>
        <time>2012-11-15T20:07:15Z</time>
      </trkpt>
      <trkpt lat="59.9700175" lon="15.7631038">
        <ele>41.2</ele>
        <time>2012-11-15T20:07:18Z</time>
      </trkpt>
      <trkpt lat="59.9696991" lon="15.7633151">
        <ele>41.2</ele>
        <time>2012-11-15T20:07:23Z</time>
      </trkpt>
      <trkpt lat="59.969465" lon="15.763458">
        <ele>38.2</ele>
        <time>2012-11-15T20:07:26Z</time>
      </trkpt>
      <trkpt lat="59.9693869" lon="15.7635034">
        <ele>37.2</ele>
        <time>2012-11-15T20:07:27Z</time>
      </trkpt>
      <trkpt lat="59.9692282" lon="15.7636028">
        <ele>36</ele>
        <time>2012-11-15T20:07:29Z</time>
      </trkpt>
      <trkpt lat="59.9690454" lon="15.7637022">
        <ele>34.8</ele>
        <time>2012-11-15T20:07:31Z</time>
      </trkpt>
      <trkpt lat="59.9688791" lon="15.7637626">
        <ele>33.6</ele>
        <time>2012-11-15T20:07:33Z</time>
      </trkpt>
      <trkpt lat="59.9687696" lon="15.7637989">
        <ele>32.4</ele>
        <time>2012-11-15T20:07:34Z</time>
      </trkpt>
      <trkpt lat="59.9686786" lon="15.7638186">
        <ele>32.4</ele>
        <time>2012-11-15T20:07:35Z</time>
      </trkpt>
      <trkpt lat="59.9682289" lon="15.7639023">
        <ele>31</ele>
        <time>2012-11-15T20:07:40Z</time>
      </trkpt>
      <trkpt lat="59.9679874" lon="15.7639359">
        <ele>31</ele>
        <time>2012-11-15T20:07:43Z</time>
      </trkpt>
      <trkpt lat="59.9675789" lon="15.7639953">
        <ele>31</ele>
        <time>2012-11-15T20:07:49Z</time>
      </trkpt>
      <trkpt lat="59.9672855" lon="15.7640171">
        <ele>31</ele>
        <time>2012-11-15T20:07:55Z</time>
      </trkpt>
      <trkpt lat="59.967239" lon="15.7640186">
        <ele>34.2</ele>
        <time>2012-11-15T20:07:56Z</time>
      </trkpt>
      <trkpt lat="59.9670388" lon="15.7640236">
        <ele>35.2</ele>
        <time>2012-11-15T20:08:00Z</time>
      </trkpt>
      <trkpt lat="59.9668842" lon="15.7639844">
        <ele>35.2</ele>
        <time>2012-11-15T20:08:03Z</time>
      </trkpt>
      <trkpt lat="59.9665228" lon="15.7637742">
        <ele>35.2</ele>
        <time>2012-11-15T20:08:09Z</time>
      </trkpt>
      <trkpt lat="59.9660546" lon="15.7634006">
        <ele>35.2</ele>
        <time>2012-11-15T20:08:17Z</time>
      </trkpt>
      <trkpt lat="59.9656833" lon="15.7630887">
        <ele>35.2</ele>
        <time>2012-11-15T20:08:25Z</time>
      </trkpt>
      <trkpt lat="59.9655946" lon="15.7630492">
        <ele>35.2</ele>
        <time>2012-11-15T20:08:27Z</time>
      </trkpt>
      <trkpt lat="59.9654184" lon="15.7629975">
        <ele>35.2</ele>
        <time>2012-11-15T20:08:31Z</time>
      </trkpt>
      <trkpt lat="59.9653699" lon="15.7629932">
        <ele>35.2</ele>
        <time>2012-11-15T20:08:32Z</time>
      </trkpt>
      <trkpt lat="59.9652784" lon="15.7630647">
        <ele>36.2</ele>
        <time>2012-11-15T20:08:34Z</time>
      </trkpt>
      <trkpt lat="59.9652596" lon="15.7631141">
        <ele>36.2</ele>
        <time>2012-11-15T20:08:35Z</time>
      </trkpt>
      <trkpt lat="59.9652242" lon="15.7632094">
        <ele>37.4</ele>
        <time>2012-11-15T20:08:36Z</time>
      </trkpt>
      <trkpt lat="59.9651783" lon="15.7633653">
        <ele>37.4</ele>
        <time>2012-11-15T20:08:38Z</time>
      </trkpt>
      <trkpt lat="59.9651296" lon="15.763542">
        <ele>37.4</ele>
        <time>2012-11-15T20:08:40Z</time>
      </trkpt>
      <trkpt lat="59.9649901" lon="15.764165">
        <ele>37.4</ele>
        <time>2012-11-15T20:08:47Z</time>
      </trkpt>
      <trkpt lat="59.9647975" lon="15.765052">
        <ele>37.4</ele>
        <time>2012-11-15T20:08:56Z</time>
      </trkpt>
      <trkpt lat="59.964761" lon="15.7653373">
        <ele>37.4</ele>
        <time>2012-11-15T20:08:59Z</time>
      </trkpt>
      <trkpt lat="59.9647792" lon="15.7655217">
        <ele>37.4</ele>
        <time>2012-11-15T20:09:01Z</time>
      </trkpt>
      <trkpt lat="59.9649135" lon="15.7657898">
        <ele>37.4</ele>
        <time>2012-11-15T20:09:05Z</time>
      </trkpt>
      <trkpt lat="59.9653218" lon="15.7663958">
        <ele>37.4</ele>
        <time>2012-11-15T20:09:14Z</time>
      </trkpt>
      <trkpt lat="59.9657957" lon="15.7670537">
        <ele>37.4</ele>
        <time>2012-11-15T20:09:24Z</time>
      </trkpt>
      <trkpt lat="59.9658448" lon="15.767124">
        <ele>37.4</ele>
        <time>2012-11-15T20:09:25Z</time>
      </trkpt>
      <trkpt lat="59.9661857" lon="15.7676173">
        <ele>34.2</ele>
        <time>2012-11-15T20:09:32Z</time>
      </trkpt>
      <trkpt lat="59.9663394" lon="15.7678362">
        <ele>34.2</ele>
        <time>2012-11-15T20:09:35Z</time>
      </trkpt>
      <trkpt lat="59.9664528" lon="15.7680083">
        <ele>33</ele>
        <time>2012-11-15T20:09:37Z</time>
      </trkpt>
      <trkpt lat="59.9666161" lon="15.7682678">
        <ele>32</ele>
        <time>2012-11-15T20:09:40Z</time>
      </trkpt>
      <trkpt lat="59.9667861" lon="15.768543">
        <ele>30.8</ele>
        <time>2012-11-15T20:09:43Z</time>
      </trkpt>
      <trkpt lat="59.966964" lon="15.7688479">
        <ele>29.6</ele>
        <time>2012-11-15T20:09:46Z</time>
      </trkpt>
      <trkpt lat="59.9671503" lon="15.7691769">
        <ele>28.4</ele>
        <time>2012-11-15T20:09:49Z</time>
      </trkpt>
      <trkpt lat="59.9672135" lon="15.7692934">
        <ele>27.2</ele>
        <time>2012-11-15T20:09:50Z</time>
      </trkpt>
      <trkpt lat="59.9673383" lon="15.7695316">
        <ele>26.2</ele>
        <time>2012-11-15T20:09:52Z</time>
      </trkpt>
      <trkpt lat="59.9675224" lon="15.769885">
        <ele>25</ele>
        <time>2012-11-15T20:09:55Z</time>
      </trkpt>
      <trkpt lat="59.9676527" lon="15.7701404">
        <ele>23.8</ele>
        <time>2012-11-15T20:09:57Z</time>
      </trkpt>
      <trkpt lat="59.9677738" lon="15.7703723">
        <ele>23.8</ele>
        <time>2012-11-15T20:09:59Z</time>
      </trkpt>
      <trkpt lat="59.96784" lon="15.7704998">
        <ele>22.6</ele>
        <time>2012-11-15T20:10:00Z</time>
      </trkpt>
      <trkpt lat="59.9679678" lon="15.770745">
        <ele>21.6</ele>
        <time>2012-11-15T20:10:02Z</time>
      </trkpt>
      <trkpt lat="59.9680921" lon="15.7709823">
        <ele>20.4</ele>
        <time>2012-11-15T20:10:04Z</time>
      </trkpt>
      <trkpt lat="59.9682824" lon="15.771345">
        <ele>19.2</ele>
        <time>2012-11-15T20:10:07Z</time>
      </trkpt>
      <trkpt lat="59.9683957" lon="15.771613">
        <ele>18</ele>
        <time>2012-11-15T20:10:09Z</time>
      </trkpt>
      <trkpt lat="59.9684485" lon="15.771758">
        <ele>18</ele>
        <time>2012-11-15T20:10:10Z</time>
      </trkpt>
      <trkpt lat="59.9685034" lon="15.7718866">
        <ele>17</ele>
        <time>2012-11-15T20:10:11Z</time>
      </trkpt>
      <trkpt lat="59.968638" lon="15.7721349">
        <ele>15.8</ele>
        <time>2012-11-15T20:10:13Z</time>
      </trkpt>
      <trkpt lat="59.9687164" lon="15.7722417">
        <ele>15.8</ele>
        <time>2012-11-15T20:10:14Z</time>
      </trkpt>
      <trkpt lat="59.9687879" lon="15.7723384">
        <ele>14.8</ele>
        <time>2012-11-15T20:10:15Z</time>
      </trkpt>
      <trkpt lat="59.9689832" lon="15.7726828">
        <ele>13.6</ele>
        <time>2012-11-15T20:10:18Z</time>
      </trkpt>
      <trkpt lat="59.9690487" lon="15.7728264">
        <ele>13.6</ele>
        <time>2012-11-15T20:10:19Z</time>
      </trkpt>
      <trkpt lat="59.9692037" lon="15.7732118">
        <ele>12.6</ele>
        <time>2012-11-15T20:10:22Z</time>
      </trkpt>
      <trkpt lat="59.9693695" lon="15.7735877">
        <ele>12.6</ele>
        <time>2012-11-15T20:10:25Z</time>
      </trkpt>
      <trkpt lat="59.9695819" lon="15.7740565">
        <ele>11.6</ele>
        <time>2012-11-15T20:10:29Z</time>
      </trkpt>
      <trkpt lat="59.9697543" lon="15.7743897">
        <ele>11.6</ele>
        <time>2012-11-15T20:10:32Z</time>
      </trkpt>
      <trkpt lat="59.9699141" lon="15.774718">
        <ele>10.4</ele>
        <time>2012-11-15T20:10:35Z</time>
      </trkpt>
      <trkpt lat="59.970134" lon="15.7751758">
        <ele>9.4</ele>
        <time>2012-11-15T20:10:39Z</time>
      </trkpt>
      <trkpt lat="59.9701937" lon="15.7752927">
        <ele>9.4</ele>
        <time>2012-11-15T20:10:40Z</time>
      </trkpt>
      <trkpt lat="59.970421" lon="15.775755">
        <ele>8.2</ele>
        <time>2012-11-15T20:10:44Z</time>
      </trkpt>
      <trkpt lat="59.97055" lon="15.7759772">
        <ele>7</ele>
        <time>2012-11-15T20:10:46Z</time>
      </trkpt>
      <trkpt lat="59.9706096" lon="15.7760889">
        <ele>7</ele>
        <time>2012-11-15T20:10:47Z</time>
      </trkpt>
      <trkpt lat="59.9708473" lon="15.7765713">
        <ele>5.8</ele>
        <time>2012-11-15T20:10:51Z</time>
      </trkpt>
      <trkpt lat="59.971015" lon="15.7769154">
        <ele>5.8</ele>
        <time>2012-11-15T20:10:54Z</time>
      </trkpt>
      <trkpt lat="59.9713309" lon="15.7775714">
        <ele>5.8</ele>
        <time>2012-11-15T20:11:00Z</time>
      </trkpt>
      <trkpt lat="59.9714337" lon="15.7777793">
        <ele>4.8</ele>
        <time>2012-11-15T20:11:02Z</time>
      </trkpt>
      <trkpt lat="59.9714783" lon="15.7778779">
        <ele>4.8</ele>
        <time>2012-11-15T20:11:03Z</time>
      </trkpt>
      <trkpt lat="59.9718696" lon="15.7786877">
        <ele>4.8</ele>
        <time>2012-11-15T20:11:11Z</time>
      </trkpt>
      <trkpt lat="59.9719212" lon="15.7787894">
        <ele>4.8</ele>
        <time>2012-11-15T20:11:12Z</time>
      </trkpt>
      <trkpt lat="59.9723241" lon="15.7796164">
        <ele>4.8</ele>
        <time>2012-11-15T20:11:21Z</time>
      </trkpt>
      <trkpt lat="59.9727369" lon="15.7804694">
        <ele>4.8</ele>
        <time>2012-11-15T20:11:30Z</time>
      </trkpt>
      <trkpt lat="59.9728691" lon="15.7807449">
        <ele>4.8</ele>
        <time>2012-11-15T20:11:33Z</time>
      </trkpt>
      <trkpt lat="59.9731339" lon="15.7813096">
        <ele>3.8</ele>
        <time>2012-11-15T20:11:39Z</time>
      </trkpt>
      <trkpt lat="59.973195" lon="15.7815161">
        <ele>3.8</ele>
        <time>2012-11-15T20:11:41Z</time>
      </trkpt>
      <trkpt lat="59.9732242" lon="15.7816283">
        <ele>3.8</ele>
        <time>2012-11-15T20:11:42Z</time>
      </trkpt>
      <trkpt lat="59.9734591" lon="15.7822715">
        <ele>3.8</ele>
        <time>2012-11-15T20:11:49Z</time>
      </trkpt>
      <trkpt lat="59.9738456" lon="15.7831615">
        <ele>3.8</ele>
        <time>2012-11-15T20:11:59Z</time>
      </trkpt>
      <trkpt lat="59.9738888" lon="15.7832553">
        <ele>3.8</ele>
        <time>2012-11-15T20:12:00Z</time>
      </trkpt>
      <trkpt lat="59.9740597" lon="15.7836177">
        <ele>3.8</ele>
        <time>2012-11-15T20:12:04Z</time>
        <extensions><gpxtpx:TrackPointExtension><gpxtpx:hr>30</gpxtpx:hr></gpxtpx:TrackPointExtension></extensions>
      </trkpt>
      <trkpt lat="59.9742246" lon="15.7839498">
        <ele>6.8</ele>
        <time>2012-11-15T20:12:08Z</time>
        <extensions><gpxtpx:TrackPointExtension><gpxtpx:hr>30</gpxtpx:hr></gpxtpx:TrackPointExtension></extensions>
      </trkpt>
      <trkpt lat="59.9742652" lon="15.7840321">
        <ele>6.8</ele>
        <time>2012-11-15T20:12:09Z</time>
      </trkpt>
      <trkpt lat="59.9743843" lon="15.7842774">
        <ele>8</ele>
        <time>2012-11-15T20:12:12Z</time>
        <extensions><gpxtpx:TrackPointExtension><gpxtpx:hr>30</gpxtpx:hr></gpxtpx:TrackPointExtension></extensions>
      </trkpt>
      <trkpt lat="59.9745499" lon="15.7845618">
        <ele>9</ele>
        <time>2012-11-15T20:12:16Z</time>
        <extensions><gpxtpx:TrackPointExtension><gpxtpx:hr>30</gpxtpx:hr></gpxtpx:TrackPointExtension></extensions>
      </trkpt>
      <trkpt lat="59.9745934" lon="15.7846056">
        <ele>9</ele>
        <time>2012-11-15T20:12:17Z</time>
        <extensions><gpxtpx:TrackPointExtension><gpxtpx:hr>30</gpxtpx:hr></gpxtpx:TrackPointExtension></extensions>
      </trkpt>
      <trkpt lat="59.9747557" lon="15.7847255">
        <ele>10</ele>
        <time>2012-11-15T20:12:20Z</time>
        <extensions><gpxtpx:TrackPointExtension><gpxtpx:hr>30</gpxtpx:hr></gpxtpx:TrackPointExtension></extensions>
      </trkpt>
      <trkpt lat="59.9748612" lon="15.7848172">
        <ele>10</ele>
        <time>2012-11-15T20:12:22Z</time>
        <extensions><gpxtpx:TrackPointExtension><gpxtpx:hr>30</gpxtpx:hr></gpxtpx:TrackPointExtension></extensions>
      </trkpt>
      <trkpt lat="59.9751357" lon="15.7851948">
        <ele>10</ele>
        <time>2012-11-15T20:12:28Z</time>
      </trkpt>
      <trkpt lat="59.9754716" lon="15.7857646">
        <ele>10</ele>
        <time>2012-11-15T20:12:36Z</time>
      </trkpt>
      <trkpt lat="59.9755363" lon="15.7859252">
        <ele>10</ele>
        <time>2012-11-15T20:12:38Z</time>
      </trkpt>
      <trkpt lat="59.9755976" lon="15.786223">
        <ele>10</ele>
        <time>2012-11-15T20:12:41Z</time>
      </trkpt>
      <trkpt lat="59.9756202" lon="15.7864297">
        <ele>10</ele>
        <time>2012-11-15T20:12:43Z</time>
      </trkpt>
      <trkpt lat="59.9757054" lon="15.7870377">
        <ele>10</ele>
        <time>2012-11-15T20:12:49Z</time>
      </trkpt>
      <trkpt lat="59.975768" lon="15.7873252">
        <ele>10</ele>
        <time>2012-11-15T20:12:52Z</time>
      </trkpt>
      <trkpt lat="59.9757855" lon="15.7875411">
        <ele>10</ele>
        <time>2012-11-15T20:12:54Z</time>
      </trkpt>
      <trkpt lat="59.9758205" lon="15.7877461">
        <ele>10</ele>
        <time>2012-11-15T20:12:56Z</time>
      </trkpt>
      <trkpt lat="59.9758819" lon="15.7879388">
        <ele>10</ele>
        <time>2012-11-15T20:12:58Z</time>
      </trkpt>
      <trkpt lat="59.975946" lon="15.7881432">
        <ele>10</ele>
        <time>2012-11-15T20:13:00Z</time>
      </trkpt>
      <trkpt lat="59.9761155" lon="15.7886343">
        <ele>10</ele>
        <time>2012-11-15T20:13:05Z</time>
      </trkpt>
      <trkpt lat="59.9764321" lon="15.789572">
        <ele>10</ele>
        <time>2012-11-15T20:13:14Z</time>
      </trkpt>
      <trkpt lat="59.9764661" lon="15.7896797">
        <ele>10</ele>
        <time>2012-11-15T20:13:15Z</time>
      </trkpt>
      <trkpt lat="59.9768065" lon="15.7906434">
        <ele>10</ele>
        <time>2012-11-15T20:13:24Z</time>
      </trkpt>
      <trkpt lat="59.9768488" lon="15.7907473">
        <ele>10</ele>
        <time>2012-11-15T20:13:25Z</time>
      </trkpt>
      <trkpt lat="59.9772164" lon="15.7915445">
        <ele>10</ele>
        <time>2012-11-15T20:13:33Z</time>
      </trkpt>
      <trkpt lat="59.9772681" lon="15.7916409">
        <ele>10</ele>
        <time>2012-11-15T20:13:34Z</time>
      </trkpt>
      <trkpt lat="59.9776635" lon="15.7922761">
        <ele>10</ele>
        <time>2012-11-15T20:13:42Z</time>
      </trkpt>
      <trkpt lat="59.9777561" lon="15.7924061">
        <ele>6.8</ele>
        <time>2012-11-15T20:13:44Z</time>
      </trkpt>
      <trkpt lat="59.9779293" lon="15.7926732">
        <ele>6.8</ele>
        <time>2012-11-15T20:13:48Z</time>
      </trkpt>
      <trkpt lat="59.9783388" lon="15.7932742">
        <ele>6.8</ele>
        <time>2012-11-15T20:13:57Z</time>
      </trkpt>
      <trkpt lat="59.9787636" lon="15.79385">
        <ele>6.8</ele>
        <time>2012-11-15T20:14:06Z</time>
      </trkpt>
      <trkpt lat="59.9792219" lon="15.7944428">
        <ele>6.8</ele>
        <time>2012-11-15T20:14:15Z</time>
      </trkpt>
      <trkpt lat="59.9796724" lon="15.7951049">
        <ele>6.8</ele>
        <time>2012-11-15T20:14:24Z</time>
      </trkpt>
      <trkpt lat="59.980135" lon="15.7957762">
        <ele>6.8</ele>
        <time>2012-11-15T20:14:32Z</time>
      </trkpt>
      <trkpt lat="59.980187" lon="15.7958547">
        <ele>5.8</ele>
        <time>2012-11-15T20:14:33Z</time>
      </trkpt>
      <trkpt lat="59.9802957" lon="15.7960191">
        <ele>5.8</ele>
        <time>2012-11-15T20:14:35Z</time>
      </trkpt>
      <trkpt lat="59.9806608" lon="15.7965905">
        <ele>4.4</ele>
        <time>2012-11-15T20:14:42Z</time>
      </trkpt>
      <trkpt lat="59.9807619" lon="15.7967488">
        <ele>4.4</ele>
        <time>2012-11-15T20:14:44Z</time>
      </trkpt>
      <trkpt lat="59.9811849" lon="15.7974015">
        <ele>4.4</ele>
        <time>2012-11-15T20:14:52Z</time>
      </trkpt>
      <trkpt lat="59.9812377" lon="15.7974449">
        <ele>4.4</ele>
        <time>2012-11-15T20:14:53Z</time>
      </trkpt>
      <trkpt lat="59.9813765" lon="15.7975239">
        <ele>3.4</ele>
        <time>2012-11-15T20:14:55Z</time>
      </trkpt>
      <trkpt lat="59.9814427" lon="15.7975627">
        <ele>3.4</ele>
        <time>2012-11-15T20:14:56Z</time>
      </trkpt>
      <trkpt lat="59.9815112" lon="15.7975995">
        <ele>2.2</ele>
        <time>2012-11-15T20:14:57Z</time>
      </trkpt>
      <trkpt lat="59.9818873" lon="15.7978469">
        <ele>2.2</ele>
        <time>2012-11-15T20:15:03Z</time>
      </trkpt>
      <trkpt lat="59.9820021" lon="15.7979156">
        <ele>1</ele>
        <time>2012-11-15T20:15:05Z</time>
      </trkpt>
      <trkpt lat="59.9822888" lon="15.7980948">
        <ele>1</ele>
        <time>2012-11-15T20:15:10Z</time>
      </trkpt>
      <trkpt lat="59.9824417" lon="15.7982588">
        <ele>1</ele>
        <time>2012-11-15T20:15:13Z</time>
      </trkpt>
      <trkpt lat="59.9825462" lon="15.7983565">
        <ele>1</ele>
        <time>2012-11-15T20:15:15Z</time>
      </trkpt>
      <trkpt lat="59.9828506" lon="15.7987364">
        <ele>1</ele>
        <time>2012-11-15T20:15:21Z</time>
      </trkpt>
      <trkpt lat="59.9831935" lon="15.7991311">
        <ele>1</ele>
        <time>2012-11-15T20:15:28Z</time>
      </trkpt>
      <trkpt lat="59.9835823" lon="15.7996604">
        <ele>1</ele>
        <time>2012-11-15T20:15:37Z</time>
      </trkpt>
      <trkpt lat="59.9838587" lon="15.8000523">
        <ele>4</ele>
        <time>2012-11-15T20:15:43Z</time>
      </trkpt>
      <trkpt lat="59.9839048" lon="15.8001341">
        <ele>4</ele>
        <time>2012-11-15T20:15:44Z</time>
      </trkpt>
      <trkpt lat="59.9839447" lon="15.8002173">
        <ele>4</ele>
        <time>2012-11-15T20:15:45Z</time>
      </trkpt>
      <trkpt lat="59.9840147" lon="15.8003924">
        <ele>4</ele>
        <time>2012-11-15T20:15:47Z</time>
      </trkpt>
      <trkpt lat="59.9841374" lon="15.8007957">
        <ele>4</ele>
        <time>2012-11-15T20:15:51Z</time>
      </trkpt>
      <trkpt lat="59.9843903" lon="15.8017426">
        <ele>4</ele>
        <time>2012-11-15T20:16:00Z</time>
      </trkpt>
      <trkpt lat="59.9846574" lon="15.8026806">
        <ele>4</ele>
        <time>2012-11-15T20:16:08Z</time>
      </trkpt>
      <trkpt lat="59.9847053" lon="15.8028209">
        <ele>0.8</ele>
        <time>2012-11-15T20:16:09Z</time>
      </trkpt>
      <trkpt lat="59.9848463" lon="15.8031757">
        <ele>0</ele>
        <time>2012-11-15T20:16:12Z</time>
      </trkpt>
      <trkpt lat="59.9849641" lon="15.803429">
        <ele>0</ele>
        <time>2012-11-15T20:16:14Z</time>
      </trkpt>
      <trkpt lat="59.9850191" lon="15.8035334">
        <ele>0</ele>
        <time>2012-11-15T20:16:15Z</time>
      </trkpt>
      <trkpt lat="59.9852402" lon="15.8039727">
        <ele>0</ele>
        <time>2012-11-15T20:16:19Z</time>
      </trkpt>
      <trkpt lat="59.9853307" lon="15.8041984">
        <ele>0</ele>
        <time>2012-11-15T20:16:21Z</time>
      </trkpt>
      <trkpt lat="59.9854819" lon="15.8046719">
        <ele>0</ele>
        <time>2012-11-15T20:16:25Z</time>
      </trkpt>
      <trkpt lat="59.9855335" lon="15.8047523">
        <ele>0</ele>
        <time>2012-11-15T20:16:26Z</time>
      </trkpt>
      <trkpt lat="59.9857575" lon="15.8050301">
        <ele>0</ele>
        <time>2012-11-15T20:16:30Z</time>
      </trkpt>
      <trkpt lat="59.9859224" lon="15.8052852">
        <ele>0</ele>
        <time>2012-11-15T20:16:33Z</time>
      </trkpt>
      <trkpt lat="59.9860837" lon="15.8055707">
        <ele>0</ele>
        <time>2012-11-15T20:16:36Z</time>
      </trkpt>
      <trkpt lat="59.9864313" lon="15.8062488">
        <ele>0</ele>
        <time>2012-11-15T20:16:43Z</time>
      </trkpt>
      <trkpt lat="59.9865676" lon="15.8064805">
        <ele>0</ele>
        <time>2012-11-15T20:16:46Z</time>
      </trkpt>
      <trkpt lat="59.986627" lon="15.8065354">
        <ele>0</ele>
        <time>2012-11-15T20:16:47Z</time>
      </trkpt>
      <trkpt lat="59.986693" lon="15.8065797">
        <ele>0</ele>
        <time>2012-11-15T20:16:48Z</time>
      </trkpt>
      <trkpt lat="59.9871393" lon="15.8068475">
        <ele>0</ele>
        <time>2012-11-15T20:16:55Z</time>
      </trkpt>
      <trkpt lat="59.9872848" lon="15.8069991">
        <ele>0</ele>
        <time>2012-11-15T20:16:58Z</time>
      </trkpt>
      <trkpt lat="59.987319" lon="15.8070659">
        <ele>0</ele>
        <time>2012-11-15T20:16:59Z</time>
      </trkpt>
      <trkpt lat="59.9874335" lon="15.8074123">
        <ele>0</ele>
        <time>2012-11-15T20:17:03Z</time>
      </trkpt>
      <trkpt lat="59.9874952" lon="15.8076586">
        <ele>0</ele>
        <time>2012-11-15T20:17:06Z</time>
      </trkpt>
      <trkpt lat="59.9875459" lon="15.8078645">
        <ele>0</ele>
        <time>2012-11-15T20:17:09Z</time>
      </trkpt>
      <trkpt lat="59.9875749" lon="15.8081157">
        <ele>0</ele>
        <time>2012-11-15T20:17:13Z</time>
      </trkpt>
      <trkpt lat="59.987563" lon="15.8081872">
        <ele>0</ele>
        <time>2012-11-15T20:17:14Z</time>
      </trkpt>
      <trkpt lat="59.987511" lon="15.808569">
        <ele>0</ele>
        <time>2012-11-15T20:17:19Z</time>
      </trkpt>
      <trkpt lat="59.9875053" lon="15.8087428">
        <ele>0</ele>
        <time>2012-11-15T20:17:21Z</time>
      </trkpt>
      <trkpt lat="59.987503" lon="15.80883">
        <ele>0</ele>
        <time>2012-11-15T20:17:22Z</time>
      </trkpt>
      <trkpt lat="59.9874828" lon="15.8093642">
        <ele>0</ele>
        <time>2012-11-15T20:17:28Z</time>
      </trkpt>
      <trkpt lat="59.9874612" lon="15.810001">
        <ele>0</ele>
        <time>2012-11-15T20:17:35Z</time>
      </trkpt>
      <trkpt lat="59.9874864" lon="15.810542">
        <ele>0</ele>
        <time>2012-11-15T20:17:41Z</time>
      </trkpt>
      <trkpt lat="59.9874964" lon="15.8106341">
        <ele>0</ele>
        <time>2012-11-15T20:17:42Z</time>
      </trkpt>
      <trkpt lat="59.9875204" lon="15.8107969">
        <ele>0</ele>
        <time>2012-11-15T20:17:44Z</time>
      </trkpt>
      <trkpt lat="59.9875373" lon="15.8109591">
        <ele>0</ele>
        <time>2012-11-15T20:17:46Z</time>
      </trkpt>
      <trkpt lat="59.987558" lon="15.8111318">
        <ele>0</ele>
        <time>2012-11-15T20:17:48Z</time>
      </trkpt>
      <trkpt lat="59.9875794" lon="15.81131">
        <ele>0.4</ele>
        <time>2012-11-15T20:17:50Z</time>
      </trkpt>
      <trkpt lat="59.9876558" lon="15.811937">
        <ele>0.4</ele>
        <time>2012-11-15T20:17:57Z</time>
      </trkpt>
      <trkpt lat="59.9877553" lon="15.8126524">
        <ele>0.4</ele>
        <time>2012-11-15T20:18:05Z</time>
      </trkpt>
      <trkpt lat="59.9878533" lon="15.8133569">
        <ele>0.4</ele>
        <time>2012-11-15T20:18:13Z</time>
      </trkpt>
      <trkpt lat="59.987887" lon="15.813822">
        <ele>0</ele>
        <time>2012-11-15T20:18:19Z</time>
      </trkpt>
      <trkpt lat="59.9878806" lon="15.8140086">
        <ele>0</ele>
        <time>2012-11-15T20:18:22Z</time>
      </trkpt>
      <trkpt lat="59.9878324" lon="15.8141686">
        <ele>0</ele>
        <time>2012-11-15T20:18:25Z</time>
      </trkpt>
      <trkpt lat="59.9878088" lon="15.8142112">
        <ele>0</ele>
        <time>2012-11-15T20:18:26Z</time>
      </trkpt>
      <trkpt lat="59.9877709" lon="15.8143056">
        <ele>0</ele>
        <time>2012-11-15T20:18:28Z</time>
      </trkpt>
      <trkpt lat="59.9877374" lon="15.8145092">
        <ele>0</ele>
        <time>2012-11-15T20:18:31Z</time>
      </trkpt>
      <trkpt lat="59.9877411" lon="15.8145996">
        <ele>0</ele>
        <time>2012-11-15T20:18:32Z</time>
      </trkpt>
      <trkpt lat="59.9877699" lon="15.8148063">
        <ele>0</ele>
        <time>2012-11-15T20:18:34Z</time>
      </trkpt>
      <trkpt lat="59.9877852" lon="15.8149089">
        <ele>0</ele>
        <time>2012-11-15T20:18:35Z</time>
      </trkpt>
      <trkpt lat="59.9878111" lon="15.8150083">
        <ele>0</ele>
        <time>2012-11-15T20:18:36Z</time>
      </trkpt>
      <trkpt lat="59.9878463" lon="15.8152353">
        <ele>0</ele>
        <time>2012-11-15T20:18:40Z</time>
      </trkpt>
      <trkpt lat="59.9877556" lon="15.8153839">
        <ele>0</ele>
        <time>2012-11-15T20:18:44Z</time>
      </trkpt>
      <trkpt lat="59.9876782" lon="15.8154282">
        <ele>0</ele>
        <time>2012-11-15T20:18:46Z</time>
      </trkpt>
      <trkpt lat="59.9875392" lon="15.8155119">
        <ele>0</ele>
        <time>2012-11-15T20:18:49Z</time>
      </trkpt>
      <trkpt lat="59.9873414" lon="15.8156515">
        <ele>0</ele>
        <time>2012-11-15T20:18:53Z</time>
      </trkpt>
      <trkpt lat="59.9872308" lon="15.8157345">
        <ele>0</ele>
        <time>2012-11-15T20:18:55Z</time>
      </trkpt>
      <trkpt lat="59.9869327" lon="15.8159578">
        <ele>0</ele>
        <time>2012-11-15T20:19:01Z</time>
      </trkpt>
      <trkpt lat="59.9868519" lon="15.8160035">
        <ele>0</ele>
        <time>2012-11-15T20:19:03Z</time>
      </trkpt>
      <trkpt lat="59.9868044" lon="15.8160992">
        <ele>0</ele>
        <time>2012-11-15T20:19:05Z</time>
      </trkpt>
      <trkpt lat="59.9868018" lon="15.8161794">
        <ele>0</ele>
        <time>2012-11-15T20:19:06Z</time>
      </trkpt>
      <trkpt lat="59.9868094" lon="15.8162633">
        <ele>0</ele>
        <time>2012-11-15T20:19:07Z</time>
      </trkpt>
      <trkpt lat="59.9868215" lon="15.8165683">
        <ele>0</ele>
        <time>2012-11-15T20:19:10Z</time>
      </trkpt>
      <trkpt lat="59.9868398" lon="15.8172121">
        <ele>0</ele>
        <time>2012-11-15T20:19:17Z</time>
      </trkpt>
      <trkpt lat="59.9867825" lon="15.8175839">
        <ele>0</ele>
        <time>2012-11-15T20:19:21Z</time>
      </trkpt>
      <trkpt lat="59.9867639" lon="15.8176692">
        <ele>0</ele>
        <time>2012-11-15T20:19:22Z</time>
      </trkpt>
      <trkpt lat="59.9867154" lon="15.8178413">
        <ele>0</ele>
        <time>2012-11-15T20:19:24Z</time>
      </trkpt>
      <trkpt lat="59.9866021" lon="15.8181561">
        <ele>0</ele>
        <time>2012-11-15T20:19:28Z</time>
      </trkpt>
      <trkpt lat="59.9865407" lon="15.8183852">
        <ele>0</ele>
        <time>2012-11-15T20:19:31Z</time>
      </trkpt>
      <trkpt lat="59.9865444" lon="15.818551">
        <ele>0</ele>
        <time>2012-11-15T20:19:33Z</time>
      </trkpt>
      <trkpt lat="59.9865959" lon="15.8192469">
        <ele>0</ele>
        <time>2012-11-15T20:19:40Z</time>
      </trkpt>
      <trkpt lat="59.9866225" lon="15.8201083">
        <ele>0</ele>
        <time>2012-11-15T20:19:48Z</time>
      </trkpt>
      <trkpt lat="59.9865554" lon="15.821024">
        <ele>0</ele>
        <time>2012-11-15T20:19:56Z</time>
      </trkpt>
      <trkpt lat="59.9864519" lon="15.8220353">
        <ele>0</ele>
        <time>2012-11-15T20:20:05Z</time>
      </trkpt>
      <trkpt lat="59.9863804" lon="15.8227139">
        <ele>0</ele>
        <time>2012-11-15T20:20:11Z</time>
      </trkpt>
      <trkpt lat="59.9862734" lon="15.8235011">
        <ele>0</ele>
        <time>2012-11-15T20:20:18Z</time>
      </trkpt>
      <trkpt lat="59.9861953" lon="15.8241146">
        <ele>0</ele>
        <time>2012-11-15T20:20:24Z</time>
      </trkpt>
      <trkpt lat="59.9861218" lon="15.8246169">
        <ele>0</ele>
        <time>2012-11-15T20:20:30Z</time>
      </trkpt>
      <trkpt lat="59.9860395" lon="15.8252608">
        <ele>0</ele>
        <time>2012-11-15T20:20:38Z</time>
      </trkpt>
      <trkpt lat="59.9860233" lon="15.8253609">
        <ele>0</ele>
        <time>2012-11-15T20:20:39Z</time>
      </trkpt>
      <trkpt lat="59.985996" lon="15.8255323">
        <ele>0</ele>
        <time>2012-11-15T20:20:41Z</time>
      </trkpt>
      <trkpt lat="59.9859567" lon="15.8257942">
        <ele>0</ele>
        <time>2012-11-15T20:20:44Z</time>
      </trkpt>
      <trkpt lat="59.9859185" lon="15.8260423">
        <ele>0</ele>
        <time>2012-11-15T20:20:47Z</time>
      </trkpt>
      <trkpt lat="59.9858866" lon="15.8261974">
        <ele>0</ele>
        <time>2012-11-15T20:20:49Z</time>
      </trkpt>
      <trkpt lat="59.9858778" lon="15.8262567">
        <ele>0</ele>
        <time>2012-11-15T20:20:50Z</time>
      </trkpt>
      <trkpt lat="59.9858456" lon="15.8264648">
        <ele>0</ele>
        <time>2012-11-15T20:20:54Z</time>
      </trkpt>
      <trkpt lat="59.9858307" lon="15.8265989">
        <ele>0</ele>
        <time>2012-11-15T20:20:57Z</time>
      </trkpt>
      <trkpt lat="59.9858157" lon="15.8266957">
        <ele>0</ele>
        <time>2012-11-15T20:20:59Z</time>
      </trkpt>
      <trkpt lat="59.9857866" lon="15.8268516">
        <ele>0</ele>
        <time>2012-11-15T20:21:02Z</time>
      </trkpt>
      <trkpt lat="59.9857461" lon="15.8270604">
        <ele>0</ele>
        <time>2012-11-15T20:21:06Z</time>
      </trkpt>
      <trkpt lat="59.9857347" lon="15.8271127">
        <ele>0</ele>
        <time>2012-11-15T20:21:07Z</time>
      </trkpt>
      <trkpt lat="59.9856978" lon="15.827184">
        <ele>0</ele>
        <time>2012-11-15T20:21:09Z</time>
      </trkpt>
      <trkpt lat="59.9856372" lon="15.8271976">
        <ele>0</ele>
        <time>2012-11-15T20:21:11Z</time>
      </trkpt>
      <trkpt lat="59.9853889" lon="15.8272034">
        <ele>0</ele>
        <time>2012-11-15T20:21:17Z</time>
      </trkpt>
      <trkpt lat="59.9850368" lon="15.8271619">
        <ele>0</ele>
        <time>2012-11-15T20:21:24Z</time>
      </trkpt>
      <trkpt lat="59.9849176" lon="15.8273267">
        <ele>0</ele>
        <time>2012-11-15T20:21:27Z</time>
      </trkpt>
      <trkpt lat="59.9848408" lon="15.8276029">
        <ele>0</ele>
        <time>2012-11-15T20:21:31Z</time>
      </trkpt>
      <trkpt lat="59.9848282" lon="15.8276577">
        <ele>0</ele>
        <time>2012-11-15T20:21:32Z</time>
      </trkpt>
      <trkpt lat="59.98481" lon="15.8277354">
        <ele>0</ele>
        <time>2012-11-15T20:21:35Z</time>
      </trkpt>
      <trkpt lat="59.9848129" lon="15.8277273">
        <ele>0</ele>
        <time>2012-11-15T20:21:36Z</time>
      </trkpt>
    </trkseg>
  </trk>
</gpx>